<?xml version="1.0" encoding="UTF-8" standalone="no" ?>
<gpx xmlns="http://www.topografix.com/GPX/1/1" xmlns:xsi="http://www.w3.org/2001/XMLSchema-instance" xsi:schemaLocation="http://www.topografix.com/GPX/1/1 http://www.topografix.com/GPX/1/1/gpx.xsd" version="1.1" creator="VisuGPX - https://www.visugpx.com">
  <metadata>
    <name>11039119-Le Gerbier de Jonc bis</name>
  </metadata>
  <trk>
    <name><![CDATA[11039119-Le Gerbier de Jonc bis]]></name>
    <trkseg>
      <trkpt lat="44.82097" lon="4.06199">
        <ele>996</ele>
        <time>2022-06-06T09:10:11Z</time>
      </trkpt>
      <trkpt lat="44.82098" lon="4.0621">
        <ele>997</ele>
        <time>2022-06-06T09:10:12Z</time>
      </trkpt>
      <trkpt lat="44.82083" lon="4.06224">
        <ele>999</ele>
        <time>2022-06-06T09:10:16Z</time>
      </trkpt>
      <trkpt lat="44.82073" lon="4.06231">
        <ele>999</ele>
        <time>2022-06-06T09:10:18Z</time>
      </trkpt>
      <trkpt lat="44.82054" lon="4.0624">
        <ele>1000</ele>
        <time>2022-06-06T09:10:21Z</time>
      </trkpt>
      <trkpt lat="44.82017" lon="4.06251">
        <ele>1000</ele>
        <time>2022-06-06T09:10:28Z</time>
      </trkpt>
      <trkpt lat="44.82004" lon="4.06255">
        <ele>1001</ele>
        <time>2022-06-06T09:10:30Z</time>
      </trkpt>
      <trkpt lat="44.81971" lon="4.06265">
        <ele>1002</ele>
        <time>2022-06-06T09:10:36Z</time>
      </trkpt>
      <trkpt lat="44.81945" lon="4.06272">
        <ele>1002</ele>
        <time>2022-06-06T09:10:41Z</time>
      </trkpt>
      <trkpt lat="44.81924" lon="4.06277">
        <ele>1002</ele>
        <time>2022-06-06T09:10:45Z</time>
      </trkpt>
      <trkpt lat="44.8182" lon="4.06317">
        <ele>1003</ele>
        <time>2022-06-06T09:11:04Z</time>
      </trkpt>
      <trkpt lat="44.8178" lon="4.06325">
        <ele>1003</ele>
        <time>2022-06-06T09:11:11Z</time>
      </trkpt>
      <trkpt lat="44.8174" lon="4.06336">
        <ele>1002</ele>
        <time>2022-06-06T09:11:18Z</time>
      </trkpt>
      <trkpt lat="44.81733" lon="4.06337">
        <ele>1002</ele>
        <time>2022-06-06T09:11:20Z</time>
      </trkpt>
      <trkpt lat="44.81716" lon="4.06339">
        <ele>1002</ele>
        <time>2022-06-06T09:11:23Z</time>
      </trkpt>
      <trkpt lat="44.81701" lon="4.06338">
        <ele>1002</ele>
        <time>2022-06-06T09:11:25Z</time>
      </trkpt>
      <trkpt lat="44.81688" lon="4.06335">
        <ele>1002</ele>
        <time>2022-06-06T09:11:28Z</time>
      </trkpt>
      <trkpt lat="44.8168" lon="4.06331">
        <ele>1002</ele>
        <time>2022-06-06T09:11:29Z</time>
      </trkpt>
      <trkpt lat="44.81668" lon="4.06328">
        <ele>1002</ele>
        <time>2022-06-06T09:11:31Z</time>
      </trkpt>
      <trkpt lat="44.81654" lon="4.06324">
        <ele>1003</ele>
        <time>2022-06-06T09:11:34Z</time>
      </trkpt>
      <trkpt lat="44.81634" lon="4.06317">
        <ele>1004</ele>
        <time>2022-06-06T09:11:38Z</time>
      </trkpt>
      <trkpt lat="44.81604" lon="4.06312">
        <ele>1006</ele>
        <time>2022-06-06T09:11:43Z</time>
      </trkpt>
      <trkpt lat="44.81593" lon="4.0631">
        <ele>1007</ele>
        <time>2022-06-06T09:11:45Z</time>
      </trkpt>
      <trkpt lat="44.81572" lon="4.06308">
        <ele>1008</ele>
        <time>2022-06-06T09:11:49Z</time>
      </trkpt>
      <trkpt lat="44.81561" lon="4.06308">
        <ele>1009</ele>
        <time>2022-06-06T09:11:51Z</time>
      </trkpt>
      <trkpt lat="44.81534" lon="4.06309">
        <ele>1011</ele>
        <time>2022-06-06T09:11:55Z</time>
      </trkpt>
      <trkpt lat="44.81519" lon="4.06312">
        <ele>1012</ele>
        <time>2022-06-06T09:11:58Z</time>
      </trkpt>
      <trkpt lat="44.81505" lon="4.06319">
        <ele>1014</ele>
        <time>2022-06-06T09:12:01Z</time>
      </trkpt>
      <trkpt lat="44.81476" lon="4.06343">
        <ele>1015</ele>
        <time>2022-06-06T09:12:07Z</time>
      </trkpt>
      <trkpt lat="44.81463" lon="4.06357">
        <ele>1016</ele>
        <time>2022-06-06T09:12:10Z</time>
      </trkpt>
      <trkpt lat="44.81455" lon="4.06365">
        <ele>1016</ele>
        <time>2022-06-06T09:12:11Z</time>
      </trkpt>
      <trkpt lat="44.81446" lon="4.06375">
        <ele>1017</ele>
        <time>2022-06-06T09:12:13Z</time>
      </trkpt>
      <trkpt lat="44.81412" lon="4.06419">
        <ele>1023</ele>
        <time>2022-06-06T09:12:22Z</time>
      </trkpt>
      <trkpt lat="44.81365" lon="4.06469">
        <ele>1021</ele>
        <time>2022-06-06T09:12:32Z</time>
      </trkpt>
      <trkpt lat="44.81299" lon="4.06547">
        <ele>1028</ele>
        <time>2022-06-06T09:12:47Z</time>
      </trkpt>
      <trkpt lat="44.81275" lon="4.0657">
        <ele>1032</ele>
        <time>2022-06-06T09:12:53Z</time>
      </trkpt>
      <trkpt lat="44.81252" lon="4.06593">
        <ele>1037</ele>
        <time>2022-06-06T09:12:58Z</time>
      </trkpt>
      <trkpt lat="44.81227" lon="4.06629">
        <ele>1043</ele>
        <time>2022-06-06T09:13:04Z</time>
      </trkpt>
      <trkpt lat="44.81204" lon="4.06681">
        <ele>1049</ele>
        <time>2022-06-06T09:13:12Z</time>
      </trkpt>
      <trkpt lat="44.81184" lon="4.06739">
        <ele>1053</ele>
        <time>2022-06-06T09:13:20Z</time>
      </trkpt>
      <trkpt lat="44.81155" lon="4.06837">
        <ele>1057</ele>
        <time>2022-06-06T09:13:33Z</time>
      </trkpt>
      <trkpt lat="44.81149" lon="4.06862">
        <ele>1060</ele>
        <time>2022-06-06T09:13:37Z</time>
      </trkpt>
      <trkpt lat="44.81148" lon="4.06882">
        <ele>1061</ele>
        <time>2022-06-06T09:13:39Z</time>
      </trkpt>
      <trkpt lat="44.8115" lon="4.06904">
        <ele>1060</ele>
        <time>2022-06-06T09:13:42Z</time>
      </trkpt>
      <trkpt lat="44.81154" lon="4.06921">
        <ele>1059</ele>
        <time>2022-06-06T09:13:44Z</time>
      </trkpt>
      <trkpt lat="44.81155" lon="4.06943">
        <ele>1059</ele>
        <time>2022-06-06T09:13:47Z</time>
      </trkpt>
      <trkpt lat="44.81154" lon="4.06963">
        <ele>1060</ele>
        <time>2022-06-06T09:13:50Z</time>
      </trkpt>
      <trkpt lat="44.81148" lon="4.06992">
        <ele>1064</ele>
        <time>2022-06-06T09:13:53Z</time>
      </trkpt>
      <trkpt lat="44.81111" lon="4.07093">
        <ele>1077</ele>
        <time>2022-06-06T09:14:08Z</time>
      </trkpt>
      <trkpt lat="44.81108" lon="4.07112">
        <ele>1078</ele>
        <time>2022-06-06T09:14:10Z</time>
      </trkpt>
      <trkpt lat="44.81109" lon="4.0713">
        <ele>1077</ele>
        <time>2022-06-06T09:14:12Z</time>
      </trkpt>
      <trkpt lat="44.81114" lon="4.07176">
        <ele>1074</ele>
        <time>2022-06-06T09:14:18Z</time>
      </trkpt>
      <trkpt lat="44.81114" lon="4.07195">
        <ele>1073</ele>
        <time>2022-06-06T09:14:21Z</time>
      </trkpt>
      <trkpt lat="44.81112" lon="4.07214">
        <ele>1073</ele>
        <time>2022-06-06T09:14:23Z</time>
      </trkpt>
      <trkpt lat="44.81102" lon="4.07263">
        <ele>1073</ele>
        <time>2022-06-06T09:14:30Z</time>
      </trkpt>
      <trkpt lat="44.81094" lon="4.07298">
        <ele>1072</ele>
        <time>2022-06-06T09:14:34Z</time>
      </trkpt>
      <trkpt lat="44.81085" lon="4.07319">
        <ele>1073</ele>
        <time>2022-06-06T09:14:37Z</time>
      </trkpt>
      <trkpt lat="44.81054" lon="4.07385">
        <ele>1078</ele>
        <time>2022-06-06T09:14:47Z</time>
      </trkpt>
      <trkpt lat="44.81041" lon="4.07431">
        <ele>1079</ele>
        <time>2022-06-06T09:14:54Z</time>
      </trkpt>
      <trkpt lat="44.81039" lon="4.07449">
        <ele>1080</ele>
        <time>2022-06-06T09:14:56Z</time>
      </trkpt>
      <trkpt lat="44.8104" lon="4.07507">
        <ele>1079</ele>
        <time>2022-06-06T09:15:03Z</time>
      </trkpt>
      <trkpt lat="44.81039" lon="4.07526">
        <ele>1081</ele>
        <time>2022-06-06T09:15:06Z</time>
      </trkpt>
      <trkpt lat="44.81035" lon="4.07556">
        <ele>1084</ele>
        <time>2022-06-06T09:15:09Z</time>
      </trkpt>
      <trkpt lat="44.81026" lon="4.07604">
        <ele>1088</ele>
        <time>2022-06-06T09:15:16Z</time>
      </trkpt>
      <trkpt lat="44.81016" lon="4.07646">
        <ele>1090</ele>
        <time>2022-06-06T09:15:21Z</time>
      </trkpt>
      <trkpt lat="44.81016" lon="4.07648">
        <ele>1090</ele>
        <time>2022-06-06T09:15:22Z</time>
      </trkpt>
      <trkpt lat="44.81011" lon="4.07665">
        <ele>1090</ele>
        <time>2022-06-06T09:15:24Z</time>
      </trkpt>
      <trkpt lat="44.80992" lon="4.07716">
        <ele>1085</ele>
        <time>2022-06-06T09:15:31Z</time>
      </trkpt>
      <trkpt lat="44.80988" lon="4.07732">
        <ele>1082</ele>
        <time>2022-06-06T09:15:33Z</time>
      </trkpt>
      <trkpt lat="44.80987" lon="4.07823">
        <ele>1075</ele>
        <time>2022-06-06T09:15:45Z</time>
      </trkpt>
      <trkpt lat="44.80989" lon="4.07845">
        <ele>1073</ele>
        <time>2022-06-06T09:15:48Z</time>
      </trkpt>
      <trkpt lat="44.80993" lon="4.07867">
        <ele>1070</ele>
        <time>2022-06-06T09:15:50Z</time>
      </trkpt>
      <trkpt lat="44.80998" lon="4.07881">
        <ele>1068</ele>
        <time>2022-06-06T09:15:52Z</time>
      </trkpt>
      <trkpt lat="44.81003" lon="4.0789">
        <ele>1068</ele>
        <time>2022-06-06T09:15:54Z</time>
      </trkpt>
      <trkpt lat="44.81012" lon="4.07899">
        <ele>1068</ele>
        <time>2022-06-06T09:15:56Z</time>
      </trkpt>
      <trkpt lat="44.81039" lon="4.07915">
        <ele>1071</ele>
        <time>2022-06-06T09:16:01Z</time>
      </trkpt>
      <trkpt lat="44.81052" lon="4.07929">
        <ele>1071</ele>
        <time>2022-06-06T09:16:04Z</time>
      </trkpt>
      <trkpt lat="44.81063" lon="4.07942">
        <ele>1072</ele>
        <time>2022-06-06T09:16:06Z</time>
      </trkpt>
      <trkpt lat="44.81073" lon="4.07957">
        <ele>1072</ele>
        <time>2022-06-06T09:16:09Z</time>
      </trkpt>
      <trkpt lat="44.81077" lon="4.07968">
        <ele>1071</ele>
        <time>2022-06-06T09:16:11Z</time>
      </trkpt>
      <trkpt lat="44.81079" lon="4.07984">
        <ele>1070</ele>
        <time>2022-06-06T09:16:13Z</time>
      </trkpt>
      <trkpt lat="44.81078" lon="4.08">
        <ele>1067</ele>
        <time>2022-06-06T09:16:15Z</time>
      </trkpt>
      <trkpt lat="44.81066" lon="4.08064">
        <ele>1065</ele>
        <time>2022-06-06T09:16:23Z</time>
      </trkpt>
      <trkpt lat="44.81053" lon="4.08113">
        <ele>1059</ele>
        <time>2022-06-06T09:16:30Z</time>
      </trkpt>
      <trkpt lat="44.81051" lon="4.08129">
        <ele>1057</ele>
        <time>2022-06-06T09:16:32Z</time>
      </trkpt>
      <trkpt lat="44.81051" lon="4.08144">
        <ele>1056</ele>
        <time>2022-06-06T09:16:34Z</time>
      </trkpt>
      <trkpt lat="44.81055" lon="4.08159">
        <ele>1057</ele>
        <time>2022-06-06T09:16:36Z</time>
      </trkpt>
      <trkpt lat="44.81077" lon="4.08209">
        <ele>1060</ele>
        <time>2022-06-06T09:16:43Z</time>
      </trkpt>
      <trkpt lat="44.81097" lon="4.08244">
        <ele>1063</ele>
        <time>2022-06-06T09:16:49Z</time>
      </trkpt>
      <trkpt lat="44.81102" lon="4.08258">
        <ele>1065</ele>
        <time>2022-06-06T09:16:51Z</time>
      </trkpt>
      <trkpt lat="44.8111" lon="4.0832">
        <ele>1071</ele>
        <time>2022-06-06T09:16:59Z</time>
      </trkpt>
      <trkpt lat="44.8111" lon="4.08331">
        <ele>1071</ele>
        <time>2022-06-06T09:17:00Z</time>
      </trkpt>
      <trkpt lat="44.81106" lon="4.08341">
        <ele>1072</ele>
        <time>2022-06-06T09:17:01Z</time>
      </trkpt>
      <trkpt lat="44.81102" lon="4.08347">
        <ele>1071</ele>
        <time>2022-06-06T09:17:03Z</time>
      </trkpt>
      <trkpt lat="44.81094" lon="4.08353">
        <ele>1069</ele>
        <time>2022-06-06T09:17:04Z</time>
      </trkpt>
      <trkpt lat="44.8107" lon="4.08356">
        <ele>1061</ele>
        <time>2022-06-06T09:17:08Z</time>
      </trkpt>
      <trkpt lat="44.8106" lon="4.0836">
        <ele>1059</ele>
        <time>2022-06-06T09:17:10Z</time>
      </trkpt>
      <trkpt lat="44.81049" lon="4.08368">
        <ele>1058</ele>
        <time>2022-06-06T09:17:12Z</time>
      </trkpt>
      <trkpt lat="44.81038" lon="4.08381">
        <ele>1058</ele>
        <time>2022-06-06T09:17:15Z</time>
      </trkpt>
      <trkpt lat="44.81031" lon="4.08392">
        <ele>1059</ele>
        <time>2022-06-06T09:17:17Z</time>
      </trkpt>
      <trkpt lat="44.81024" lon="4.0841">
        <ele>1061</ele>
        <time>2022-06-06T09:17:19Z</time>
      </trkpt>
      <trkpt lat="44.81021" lon="4.08418">
        <ele>1061</ele>
        <time>2022-06-06T09:17:21Z</time>
      </trkpt>
      <trkpt lat="44.81018" lon="4.08427">
        <ele>1063</ele>
        <time>2022-06-06T09:17:22Z</time>
      </trkpt>
      <trkpt lat="44.81011" lon="4.0844">
        <ele>1065</ele>
        <time>2022-06-06T09:17:24Z</time>
      </trkpt>
      <trkpt lat="44.81001" lon="4.0845">
        <ele>1064</ele>
        <time>2022-06-06T09:17:26Z</time>
      </trkpt>
      <trkpt lat="44.80991" lon="4.08456">
        <ele>1063</ele>
        <time>2022-06-06T09:17:28Z</time>
      </trkpt>
      <trkpt lat="44.80964" lon="4.08465">
        <ele>1058</ele>
        <time>2022-06-06T09:17:33Z</time>
      </trkpt>
      <trkpt lat="44.80946" lon="4.08483">
        <ele>1057</ele>
        <time>2022-06-06T09:17:37Z</time>
      </trkpt>
      <trkpt lat="44.80925" lon="4.08519">
        <ele>1058</ele>
        <time>2022-06-06T09:17:43Z</time>
      </trkpt>
      <trkpt lat="44.80907" lon="4.0856">
        <ele>1061</ele>
        <time>2022-06-06T09:17:49Z</time>
      </trkpt>
      <trkpt lat="44.809" lon="4.08572">
        <ele>1062</ele>
        <time>2022-06-06T09:17:51Z</time>
      </trkpt>
      <trkpt lat="44.80891" lon="4.08582">
        <ele>1062</ele>
        <time>2022-06-06T09:17:53Z</time>
      </trkpt>
      <trkpt lat="44.8088" lon="4.08588">
        <ele>1062</ele>
        <time>2022-06-06T09:17:55Z</time>
      </trkpt>
      <trkpt lat="44.80845" lon="4.08591">
        <ele>1056</ele>
        <time>2022-06-06T09:18:01Z</time>
      </trkpt>
      <trkpt lat="44.80835" lon="4.08588">
        <ele>1054</ele>
        <time>2022-06-06T09:18:03Z</time>
      </trkpt>
      <trkpt lat="44.80825" lon="4.08584">
        <ele>1052</ele>
        <time>2022-06-06T09:18:05Z</time>
      </trkpt>
      <trkpt lat="44.80793" lon="4.08563">
        <ele>1049</ele>
        <time>2022-06-06T09:18:11Z</time>
      </trkpt>
      <trkpt lat="44.80761" lon="4.08553">
        <ele>1047</ele>
        <time>2022-06-06T09:18:17Z</time>
      </trkpt>
      <trkpt lat="44.80709" lon="4.08551">
        <ele>1041</ele>
        <time>2022-06-06T09:18:26Z</time>
      </trkpt>
      <trkpt lat="44.80696" lon="4.08553">
        <ele>1039</ele>
        <time>2022-06-06T09:18:29Z</time>
      </trkpt>
      <trkpt lat="44.80684" lon="4.08558">
        <ele>1038</ele>
        <time>2022-06-06T09:18:31Z</time>
      </trkpt>
      <trkpt lat="44.80676" lon="4.08565">
        <ele>1038</ele>
        <time>2022-06-06T09:18:33Z</time>
      </trkpt>
      <trkpt lat="44.80667" lon="4.08578">
        <ele>1038</ele>
        <time>2022-06-06T09:18:35Z</time>
      </trkpt>
      <trkpt lat="44.80662" lon="4.08592">
        <ele>1037</ele>
        <time>2022-06-06T09:18:37Z</time>
      </trkpt>
      <trkpt lat="44.80629" lon="4.08724">
        <ele>1029</ele>
        <time>2022-06-06T09:18:54Z</time>
      </trkpt>
      <trkpt lat="44.80626" lon="4.08754">
        <ele>1029</ele>
        <time>2022-06-06T09:18:58Z</time>
      </trkpt>
      <trkpt lat="44.80629" lon="4.08798">
        <ele>1029</ele>
        <time>2022-06-06T09:19:04Z</time>
      </trkpt>
      <trkpt lat="44.80629" lon="4.0881">
        <ele>1029</ele>
        <time>2022-06-06T09:19:05Z</time>
      </trkpt>
      <trkpt lat="44.80626" lon="4.08817">
        <ele>1028</ele>
        <time>2022-06-06T09:19:06Z</time>
      </trkpt>
      <trkpt lat="44.80623" lon="4.0882">
        <ele>1027</ele>
        <time>2022-06-06T09:19:07Z</time>
      </trkpt>
      <trkpt lat="44.80617" lon="4.08821">
        <ele>1026</ele>
        <time>2022-06-06T09:19:08Z</time>
      </trkpt>
      <trkpt lat="44.80612" lon="4.08818">
        <ele>1024</ele>
        <time>2022-06-06T09:19:09Z</time>
      </trkpt>
      <trkpt lat="44.80607" lon="4.08809">
        <ele>1023</ele>
        <time>2022-06-06T09:19:11Z</time>
      </trkpt>
      <trkpt lat="44.80589" lon="4.08761">
        <ele>1016</ele>
        <time>2022-06-06T09:19:17Z</time>
      </trkpt>
      <trkpt lat="44.80587" lon="4.08751">
        <ele>1015</ele>
        <time>2022-06-06T09:19:19Z</time>
      </trkpt>
      <trkpt lat="44.80589" lon="4.08726">
        <ele>1014</ele>
        <time>2022-06-06T09:19:22Z</time>
      </trkpt>
      <trkpt lat="44.80598" lon="4.0868">
        <ele>1014</ele>
        <time>2022-06-06T09:19:28Z</time>
      </trkpt>
      <trkpt lat="44.80609" lon="4.08472">
        <ele>997</ele>
        <time>2022-06-06T09:19:54Z</time>
      </trkpt>
      <trkpt lat="44.80608" lon="4.08431">
        <ele>994</ele>
        <time>2022-06-06T09:19:59Z</time>
      </trkpt>
      <trkpt lat="44.80593" lon="4.08352">
        <ele>986</ele>
        <time>2022-06-06T09:20:10Z</time>
      </trkpt>
      <trkpt lat="44.80591" lon="4.08336">
        <ele>986</ele>
        <time>2022-06-06T09:20:12Z</time>
      </trkpt>
      <trkpt lat="44.8059" lon="4.08287">
        <ele>982</ele>
        <time>2022-06-06T09:20:18Z</time>
      </trkpt>
      <trkpt lat="44.80588" lon="4.08258">
        <ele>979</ele>
        <time>2022-06-06T09:20:22Z</time>
      </trkpt>
      <trkpt lat="44.80587" lon="4.08242">
        <ele>977</ele>
        <time>2022-06-06T09:20:24Z</time>
      </trkpt>
      <trkpt lat="44.80589" lon="4.08228">
        <ele>975</ele>
        <time>2022-06-06T09:20:25Z</time>
      </trkpt>
      <trkpt lat="44.80594" lon="4.08214">
        <ele>972</ele>
        <time>2022-06-06T09:20:27Z</time>
      </trkpt>
      <trkpt lat="44.80601" lon="4.08206">
        <ele>972</ele>
        <time>2022-06-06T09:20:29Z</time>
      </trkpt>
      <trkpt lat="44.80611" lon="4.08202">
        <ele>972</ele>
        <time>2022-06-06T09:20:31Z</time>
      </trkpt>
      <trkpt lat="44.80622" lon="4.082">
        <ele>973</ele>
        <time>2022-06-06T09:20:33Z</time>
      </trkpt>
      <trkpt lat="44.80743" lon="4.08191">
        <ele>976</ele>
        <time>2022-06-06T09:20:54Z</time>
      </trkpt>
      <trkpt lat="44.80796" lon="4.08182">
        <ele>978</ele>
        <time>2022-06-06T09:21:04Z</time>
      </trkpt>
      <trkpt lat="44.808" lon="4.08179">
        <ele>978</ele>
        <time>2022-06-06T09:21:05Z</time>
      </trkpt>
      <trkpt lat="44.80802" lon="4.08175">
        <ele>977</ele>
        <time>2022-06-06T09:21:05Z</time>
      </trkpt>
      <trkpt lat="44.80801" lon="4.08167">
        <ele>975</ele>
        <time>2022-06-06T09:21:06Z</time>
      </trkpt>
      <trkpt lat="44.80794" lon="4.08161">
        <ele>974</ele>
        <time>2022-06-06T09:21:08Z</time>
      </trkpt>
      <trkpt lat="44.80763" lon="4.08166">
        <ele>970</ele>
        <time>2022-06-06T09:21:13Z</time>
      </trkpt>
      <trkpt lat="44.80742" lon="4.08163">
        <ele>967</ele>
        <time>2022-06-06T09:21:17Z</time>
      </trkpt>
      <trkpt lat="44.80697" lon="4.08143">
        <ele>963</ele>
        <time>2022-06-06T09:21:26Z</time>
      </trkpt>
      <trkpt lat="44.80634" lon="4.08123">
        <ele>956</ele>
        <time>2022-06-06T09:21:37Z</time>
      </trkpt>
      <trkpt lat="44.80591" lon="4.08113">
        <ele>954</ele>
        <time>2022-06-06T09:21:45Z</time>
      </trkpt>
      <trkpt lat="44.8058" lon="4.08112">
        <ele>954</ele>
        <time>2022-06-06T09:21:47Z</time>
      </trkpt>
      <trkpt lat="44.80569" lon="4.08114">
        <ele>955</ele>
        <time>2022-06-06T09:21:49Z</time>
      </trkpt>
      <trkpt lat="44.80557" lon="4.08122">
        <ele>956</ele>
        <time>2022-06-06T09:21:51Z</time>
      </trkpt>
      <trkpt lat="44.80546" lon="4.08133">
        <ele>956</ele>
        <time>2022-06-06T09:21:54Z</time>
      </trkpt>
      <trkpt lat="44.80539" lon="4.08145">
        <ele>956</ele>
        <time>2022-06-06T09:21:55Z</time>
      </trkpt>
      <trkpt lat="44.80522" lon="4.08179">
        <ele>954</ele>
        <time>2022-06-06T09:22:01Z</time>
      </trkpt>
      <trkpt lat="44.80516" lon="4.08187">
        <ele>953</ele>
        <time>2022-06-06T09:22:02Z</time>
      </trkpt>
      <trkpt lat="44.80508" lon="4.08193">
        <ele>952</ele>
        <time>2022-06-06T09:22:04Z</time>
      </trkpt>
      <trkpt lat="44.80501" lon="4.08197">
        <ele>951</ele>
        <time>2022-06-06T09:22:05Z</time>
      </trkpt>
      <trkpt lat="44.80479" lon="4.08205">
        <ele>958</ele>
        <time>2022-06-06T09:22:09Z</time>
      </trkpt>
      <trkpt lat="44.80473" lon="4.0821">
        <ele>961</ele>
        <time>2022-06-06T09:22:10Z</time>
      </trkpt>
      <trkpt lat="44.80469" lon="4.08219">
        <ele>962</ele>
        <time>2022-06-06T09:22:12Z</time>
      </trkpt>
      <trkpt lat="44.8046" lon="4.08264">
        <ele>965</ele>
        <time>2022-06-06T09:22:18Z</time>
      </trkpt>
      <trkpt lat="44.80458" lon="4.08283">
        <ele>965</ele>
        <time>2022-06-06T09:22:20Z</time>
      </trkpt>
      <trkpt lat="44.80461" lon="4.08321">
        <ele>963</ele>
        <time>2022-06-06T09:22:25Z</time>
      </trkpt>
      <trkpt lat="44.8046" lon="4.08331">
        <ele>963</ele>
        <time>2022-06-06T09:22:26Z</time>
      </trkpt>
      <trkpt lat="44.80454" lon="4.08341">
        <ele>964</ele>
        <time>2022-06-06T09:22:28Z</time>
      </trkpt>
      <trkpt lat="44.80446" lon="4.08342">
        <ele>966</ele>
        <time>2022-06-06T09:22:29Z</time>
      </trkpt>
      <trkpt lat="44.8044" lon="4.08334">
        <ele>968</ele>
        <time>2022-06-06T09:22:31Z</time>
      </trkpt>
      <trkpt lat="44.80439" lon="4.08327">
        <ele>969</ele>
        <time>2022-06-06T09:22:32Z</time>
      </trkpt>
      <trkpt lat="44.80441" lon="4.0824">
        <ele>971</ele>
        <time>2022-06-06T09:22:43Z</time>
      </trkpt>
      <trkpt lat="44.8044" lon="4.08164">
        <ele>973</ele>
        <time>2022-06-06T09:22:52Z</time>
      </trkpt>
      <trkpt lat="44.8044" lon="4.08142">
        <ele>977</ele>
        <time>2022-06-06T09:22:55Z</time>
      </trkpt>
      <trkpt lat="44.80449" lon="4.08069">
        <ele>985</ele>
        <time>2022-06-06T09:23:04Z</time>
      </trkpt>
      <trkpt lat="44.80453" lon="4.08054">
        <ele>987</ele>
        <time>2022-06-06T09:23:06Z</time>
      </trkpt>
      <trkpt lat="44.80458" lon="4.08042">
        <ele>988</ele>
        <time>2022-06-06T09:23:08Z</time>
      </trkpt>
      <trkpt lat="44.80498" lon="4.07994">
        <ele>991</ele>
        <time>2022-06-06T09:23:17Z</time>
      </trkpt>
      <trkpt lat="44.80514" lon="4.07977">
        <ele>992</ele>
        <time>2022-06-06T09:23:21Z</time>
      </trkpt>
      <trkpt lat="44.80564" lon="4.07948">
        <ele>988</ele>
        <time>2022-06-06T09:23:31Z</time>
      </trkpt>
      <trkpt lat="44.80568" lon="4.07944">
        <ele>988</ele>
        <time>2022-06-06T09:23:32Z</time>
      </trkpt>
      <trkpt lat="44.80569" lon="4.07938">
        <ele>989</ele>
        <time>2022-06-06T09:23:32Z</time>
      </trkpt>
      <trkpt lat="44.80569" lon="4.07931">
        <ele>991</ele>
        <time>2022-06-06T09:23:33Z</time>
      </trkpt>
      <trkpt lat="44.80566" lon="4.07926">
        <ele>993</ele>
        <time>2022-06-06T09:23:34Z</time>
      </trkpt>
      <trkpt lat="44.80561" lon="4.07924">
        <ele>995</ele>
        <time>2022-06-06T09:23:35Z</time>
      </trkpt>
      <trkpt lat="44.80549" lon="4.07929">
        <ele>997</ele>
        <time>2022-06-06T09:23:37Z</time>
      </trkpt>
      <trkpt lat="44.80519" lon="4.07953">
        <ele>999</ele>
        <time>2022-06-06T09:23:43Z</time>
      </trkpt>
      <trkpt lat="44.80487" lon="4.07973">
        <ele>1000</ele>
        <time>2022-06-06T09:23:50Z</time>
      </trkpt>
      <trkpt lat="44.80434" lon="4.08001">
        <ele>1004</ele>
        <time>2022-06-06T09:24:00Z</time>
      </trkpt>
      <trkpt lat="44.80411" lon="4.08018">
        <ele>1006</ele>
        <time>2022-06-06T09:24:04Z</time>
      </trkpt>
      <trkpt lat="44.80401" lon="4.08029">
        <ele>1006</ele>
        <time>2022-06-06T09:24:07Z</time>
      </trkpt>
      <trkpt lat="44.80362" lon="4.08091">
        <ele>1008</ele>
        <time>2022-06-06T09:24:17Z</time>
      </trkpt>
      <trkpt lat="44.80333" lon="4.08131">
        <ele>1014</ele>
        <time>2022-06-06T09:24:24Z</time>
      </trkpt>
      <trkpt lat="44.80314" lon="4.0815">
        <ele>1011</ele>
        <time>2022-06-06T09:24:28Z</time>
      </trkpt>
      <trkpt lat="44.80288" lon="4.08168">
        <ele>1010</ele>
        <time>2022-06-06T09:24:33Z</time>
      </trkpt>
      <trkpt lat="44.80267" lon="4.08189">
        <ele>1012</ele>
        <time>2022-06-06T09:24:38Z</time>
      </trkpt>
      <trkpt lat="44.80218" lon="4.08255">
        <ele>1015</ele>
        <time>2022-06-06T09:24:50Z</time>
      </trkpt>
      <trkpt lat="44.80199" lon="4.08272">
        <ele>1014</ele>
        <time>2022-06-06T09:24:54Z</time>
      </trkpt>
      <trkpt lat="44.80181" lon="4.08285">
        <ele>1012</ele>
        <time>2022-06-06T09:24:58Z</time>
      </trkpt>
      <trkpt lat="44.80167" lon="4.08299">
        <ele>1012</ele>
        <time>2022-06-06T09:25:01Z</time>
      </trkpt>
      <trkpt lat="44.80152" lon="4.08318">
        <ele>1011</ele>
        <time>2022-06-06T09:25:04Z</time>
      </trkpt>
      <trkpt lat="44.80101" lon="4.08407">
        <ele>1010</ele>
        <time>2022-06-06T09:25:19Z</time>
      </trkpt>
      <trkpt lat="44.80039" lon="4.085">
        <ele>1009</ele>
        <time>2022-06-06T09:25:35Z</time>
      </trkpt>
      <trkpt lat="44.80027" lon="4.08513">
        <ele>1009</ele>
        <time>2022-06-06T09:25:38Z</time>
      </trkpt>
      <trkpt lat="44.80013" lon="4.08522">
        <ele>1008</ele>
        <time>2022-06-06T09:25:40Z</time>
      </trkpt>
      <trkpt lat="44.79958" lon="4.08542">
        <ele>1002</ele>
        <time>2022-06-06T09:25:50Z</time>
      </trkpt>
      <trkpt lat="44.79935" lon="4.08557">
        <ele>1002</ele>
        <time>2022-06-06T09:25:55Z</time>
      </trkpt>
      <trkpt lat="44.79906" lon="4.08577">
        <ele>1000</ele>
        <time>2022-06-06T09:26:01Z</time>
      </trkpt>
      <trkpt lat="44.79847" lon="4.08626">
        <ele>995</ele>
        <time>2022-06-06T09:26:13Z</time>
      </trkpt>
      <trkpt lat="44.79838" lon="4.08634">
        <ele>994</ele>
        <time>2022-06-06T09:26:15Z</time>
      </trkpt>
      <trkpt lat="44.79829" lon="4.08651">
        <ele>996</ele>
        <time>2022-06-06T09:26:17Z</time>
      </trkpt>
      <trkpt lat="44.79794" lon="4.08734">
        <ele>1007</ele>
        <time>2022-06-06T09:26:30Z</time>
      </trkpt>
      <trkpt lat="44.79761" lon="4.08785">
        <ele>1006</ele>
        <time>2022-06-06T09:26:38Z</time>
      </trkpt>
      <trkpt lat="44.79678" lon="4.0888">
        <ele>998</ele>
        <time>2022-06-06T09:26:57Z</time>
      </trkpt>
      <trkpt lat="44.79618" lon="4.08926">
        <ele>987</ele>
        <time>2022-06-06T09:27:10Z</time>
      </trkpt>
      <trkpt lat="44.79603" lon="4.08943">
        <ele>984</ele>
        <time>2022-06-06T09:27:13Z</time>
      </trkpt>
      <trkpt lat="44.7959" lon="4.08961">
        <ele>981</ele>
        <time>2022-06-06T09:27:16Z</time>
      </trkpt>
      <trkpt lat="44.79562" lon="4.09025">
        <ele>981</ele>
        <time>2022-06-06T09:27:26Z</time>
      </trkpt>
      <trkpt lat="44.79551" lon="4.09059">
        <ele>983</ele>
        <time>2022-06-06T09:27:30Z</time>
      </trkpt>
      <trkpt lat="44.79537" lon="4.09129">
        <ele>990</ele>
        <time>2022-06-06T09:27:40Z</time>
      </trkpt>
      <trkpt lat="44.79532" lon="4.09143">
        <ele>991</ele>
        <time>2022-06-06T09:27:42Z</time>
      </trkpt>
      <trkpt lat="44.79526" lon="4.09154">
        <ele>991</ele>
        <time>2022-06-06T09:27:43Z</time>
      </trkpt>
      <trkpt lat="44.7952" lon="4.09161">
        <ele>990</ele>
        <time>2022-06-06T09:27:45Z</time>
      </trkpt>
      <trkpt lat="44.79493" lon="4.09175">
        <ele>984</ele>
        <time>2022-06-06T09:27:50Z</time>
      </trkpt>
      <trkpt lat="44.7947" lon="4.09196">
        <ele>985</ele>
        <time>2022-06-06T09:27:55Z</time>
      </trkpt>
      <trkpt lat="44.79443" lon="4.09226">
        <ele>987</ele>
        <time>2022-06-06T09:28:01Z</time>
      </trkpt>
      <trkpt lat="44.7942" lon="4.09254">
        <ele>988</ele>
        <time>2022-06-06T09:28:06Z</time>
      </trkpt>
      <trkpt lat="44.79411" lon="4.09261">
        <ele>988</ele>
        <time>2022-06-06T09:28:08Z</time>
      </trkpt>
      <trkpt lat="44.79401" lon="4.09268">
        <ele>989</ele>
        <time>2022-06-06T09:28:10Z</time>
      </trkpt>
      <trkpt lat="44.79391" lon="4.0927">
        <ele>989</ele>
        <time>2022-06-06T09:28:12Z</time>
      </trkpt>
      <trkpt lat="44.7935" lon="4.09268">
        <ele>985</ele>
        <time>2022-06-06T09:28:19Z</time>
      </trkpt>
      <trkpt lat="44.79335" lon="4.09269">
        <ele>984</ele>
        <time>2022-06-06T09:28:22Z</time>
      </trkpt>
      <trkpt lat="44.79321" lon="4.09274">
        <ele>986</ele>
        <time>2022-06-06T09:28:24Z</time>
      </trkpt>
      <trkpt lat="44.79306" lon="4.09286">
        <ele>989</ele>
        <time>2022-06-06T09:28:27Z</time>
      </trkpt>
      <trkpt lat="44.7929" lon="4.09304">
        <ele>993</ele>
        <time>2022-06-06T09:28:31Z</time>
      </trkpt>
      <trkpt lat="44.79277" lon="4.09326">
        <ele>997</ele>
        <time>2022-06-06T09:28:35Z</time>
      </trkpt>
      <trkpt lat="44.7927" lon="4.09331">
        <ele>997</ele>
        <time>2022-06-06T09:28:36Z</time>
      </trkpt>
      <trkpt lat="44.79262" lon="4.09332">
        <ele>997</ele>
        <time>2022-06-06T09:28:38Z</time>
      </trkpt>
      <trkpt lat="44.79255" lon="4.09329">
        <ele>997</ele>
        <time>2022-06-06T09:28:39Z</time>
      </trkpt>
      <trkpt lat="44.79245" lon="4.09316">
        <ele>997</ele>
        <time>2022-06-06T09:28:41Z</time>
      </trkpt>
      <trkpt lat="44.79226" lon="4.09214">
        <ele>993</ele>
        <time>2022-06-06T09:28:55Z</time>
      </trkpt>
      <trkpt lat="44.79219" lon="4.09194">
        <ele>993</ele>
        <time>2022-06-06T09:28:57Z</time>
      </trkpt>
      <trkpt lat="44.79208" lon="4.09173">
        <ele>994</ele>
        <time>2022-06-06T09:29:01Z</time>
      </trkpt>
      <trkpt lat="44.79169" lon="4.09109">
        <ele>987</ele>
        <time>2022-06-06T09:29:11Z</time>
      </trkpt>
      <trkpt lat="44.79153" lon="4.09089">
        <ele>985</ele>
        <time>2022-06-06T09:29:15Z</time>
      </trkpt>
      <trkpt lat="44.7914" lon="4.09077">
        <ele>986</ele>
        <time>2022-06-06T09:29:18Z</time>
      </trkpt>
      <trkpt lat="44.79098" lon="4.09048">
        <ele>989</ele>
        <time>2022-06-06T09:29:26Z</time>
      </trkpt>
      <trkpt lat="44.79062" lon="4.09029">
        <ele>989</ele>
        <time>2022-06-06T09:29:33Z</time>
      </trkpt>
      <trkpt lat="44.79031" lon="4.09004">
        <ele>988</ele>
        <time>2022-06-06T09:29:39Z</time>
      </trkpt>
      <trkpt lat="44.79011" lon="4.08995">
        <ele>989</ele>
        <time>2022-06-06T09:29:43Z</time>
      </trkpt>
      <trkpt lat="44.7893" lon="4.08981">
        <ele>986</ele>
        <time>2022-06-06T09:29:58Z</time>
      </trkpt>
      <trkpt lat="44.78918" lon="4.08982">
        <ele>986</ele>
        <time>2022-06-06T09:30:00Z</time>
      </trkpt>
      <trkpt lat="44.78906" lon="4.08984">
        <ele>986</ele>
        <time>2022-06-06T09:30:02Z</time>
      </trkpt>
      <trkpt lat="44.78892" lon="4.08993">
        <ele>987</ele>
        <time>2022-06-06T09:30:05Z</time>
      </trkpt>
      <trkpt lat="44.78857" lon="4.09029">
        <ele>996</ele>
        <time>2022-06-06T09:30:12Z</time>
      </trkpt>
      <trkpt lat="44.78832" lon="4.09045">
        <ele>1001</ele>
        <time>2022-06-06T09:30:17Z</time>
      </trkpt>
      <trkpt lat="44.78815" lon="4.0905">
        <ele>1004</ele>
        <time>2022-06-06T09:30:20Z</time>
      </trkpt>
      <trkpt lat="44.78738" lon="4.09059">
        <ele>1011</ele>
        <time>2022-06-06T09:30:34Z</time>
      </trkpt>
      <trkpt lat="44.78727" lon="4.09058">
        <ele>1012</ele>
        <time>2022-06-06T09:30:36Z</time>
      </trkpt>
      <trkpt lat="44.78675" lon="4.09037">
        <ele>1010</ele>
        <time>2022-06-06T09:30:46Z</time>
      </trkpt>
      <trkpt lat="44.78668" lon="4.09036">
        <ele>1011</ele>
        <time>2022-06-06T09:30:47Z</time>
      </trkpt>
      <trkpt lat="44.78612" lon="4.09047">
        <ele>1016</ele>
        <time>2022-06-06T09:30:57Z</time>
      </trkpt>
      <trkpt lat="44.78566" lon="4.09042">
        <ele>1014</ele>
        <time>2022-06-06T09:31:05Z</time>
      </trkpt>
      <trkpt lat="44.78537" lon="4.09044">
        <ele>1015</ele>
        <time>2022-06-06T09:31:10Z</time>
      </trkpt>
      <trkpt lat="44.78524" lon="4.09049">
        <ele>1015</ele>
        <time>2022-06-06T09:31:13Z</time>
      </trkpt>
      <trkpt lat="44.78495" lon="4.09066">
        <ele>1017</ele>
        <time>2022-06-06T09:31:18Z</time>
      </trkpt>
      <trkpt lat="44.78467" lon="4.09089">
        <ele>1016</ele>
        <time>2022-06-06T09:31:24Z</time>
      </trkpt>
      <trkpt lat="44.78457" lon="4.09103">
        <ele>1016</ele>
        <time>2022-06-06T09:31:27Z</time>
      </trkpt>
      <trkpt lat="44.78444" lon="4.0913">
        <ele>1016</ele>
        <time>2022-06-06T09:31:31Z</time>
      </trkpt>
      <trkpt lat="44.78436" lon="4.09154">
        <ele>1016</ele>
        <time>2022-06-06T09:31:34Z</time>
      </trkpt>
      <trkpt lat="44.78426" lon="4.09203">
        <ele>1016</ele>
        <time>2022-06-06T09:31:41Z</time>
      </trkpt>
      <trkpt lat="44.78424" lon="4.09233">
        <ele>1017</ele>
        <time>2022-06-06T09:31:44Z</time>
      </trkpt>
      <trkpt lat="44.78429" lon="4.09268">
        <ele>1019</ele>
        <time>2022-06-06T09:31:49Z</time>
      </trkpt>
      <trkpt lat="44.78437" lon="4.09295">
        <ele>1020</ele>
        <time>2022-06-06T09:31:53Z</time>
      </trkpt>
      <trkpt lat="44.78449" lon="4.09332">
        <ele>1022</ele>
        <time>2022-06-06T09:31:58Z</time>
      </trkpt>
      <trkpt lat="44.78468" lon="4.09406">
        <ele>1022</ele>
        <time>2022-06-06T09:32:08Z</time>
      </trkpt>
      <trkpt lat="44.7848" lon="4.09448">
        <ele>1022</ele>
        <time>2022-06-06T09:32:13Z</time>
      </trkpt>
      <trkpt lat="44.78494" lon="4.09486">
        <ele>1022</ele>
        <time>2022-06-06T09:32:19Z</time>
      </trkpt>
      <trkpt lat="44.78502" lon="4.0951">
        <ele>1022</ele>
        <time>2022-06-06T09:32:22Z</time>
      </trkpt>
      <trkpt lat="44.78513" lon="4.09576">
        <ele>1022</ele>
        <time>2022-06-06T09:32:31Z</time>
      </trkpt>
      <trkpt lat="44.78516" lon="4.09628">
        <ele>1021</ele>
        <time>2022-06-06T09:32:37Z</time>
      </trkpt>
      <trkpt lat="44.78515" lon="4.09643">
        <ele>1021</ele>
        <time>2022-06-06T09:32:39Z</time>
      </trkpt>
      <trkpt lat="44.78511" lon="4.09659">
        <ele>1019</ele>
        <time>2022-06-06T09:32:41Z</time>
      </trkpt>
      <trkpt lat="44.78495" lon="4.09689">
        <ele>1017</ele>
        <time>2022-06-06T09:32:46Z</time>
      </trkpt>
      <trkpt lat="44.78367" lon="4.09872">
        <ele>1016</ele>
        <time>2022-06-06T09:33:19Z</time>
      </trkpt>
      <trkpt lat="44.78229" lon="4.10042">
        <ele>1016</ele>
        <time>2022-06-06T09:33:51Z</time>
      </trkpt>
      <trkpt lat="44.78187" lon="4.10097">
        <ele>1018</ele>
        <time>2022-06-06T09:34:01Z</time>
      </trkpt>
      <trkpt lat="44.78162" lon="4.10138">
        <ele>1018</ele>
        <time>2022-06-06T09:34:08Z</time>
      </trkpt>
      <trkpt lat="44.781" lon="4.10253">
        <ele>1018</ele>
        <time>2022-06-06T09:34:26Z</time>
      </trkpt>
      <trkpt lat="44.78091" lon="4.10264">
        <ele>1018</ele>
        <time>2022-06-06T09:34:29Z</time>
      </trkpt>
      <trkpt lat="44.78081" lon="4.10269">
        <ele>1018</ele>
        <time>2022-06-06T09:34:30Z</time>
      </trkpt>
      <trkpt lat="44.7803" lon="4.10268">
        <ele>1011</ele>
        <time>2022-06-06T09:34:40Z</time>
      </trkpt>
      <trkpt lat="44.77948" lon="4.10266">
        <ele>1010</ele>
        <time>2022-06-06T09:34:54Z</time>
      </trkpt>
      <trkpt lat="44.77932" lon="4.10263">
        <ele>1011</ele>
        <time>2022-06-06T09:34:57Z</time>
      </trkpt>
      <trkpt lat="44.77936" lon="4.10305">
        <ele>1017</ele>
        <time>2022-06-06T09:35:02Z</time>
      </trkpt>
      <trkpt lat="44.77932" lon="4.10364">
        <ele>1025</ele>
        <time>2022-06-06T09:35:10Z</time>
      </trkpt>
      <trkpt lat="44.77932" lon="4.10403">
        <ele>1028</ele>
        <time>2022-06-06T09:35:15Z</time>
      </trkpt>
      <trkpt lat="44.77937" lon="4.10429">
        <ele>1029</ele>
        <time>2022-06-06T09:35:18Z</time>
      </trkpt>
      <trkpt lat="44.77956" lon="4.10477">
        <ele>1027</ele>
        <time>2022-06-06T09:35:25Z</time>
      </trkpt>
      <trkpt lat="44.77982" lon="4.10523">
        <ele>1021</ele>
        <time>2022-06-06T09:35:33Z</time>
      </trkpt>
      <trkpt lat="44.77988" lon="4.10539">
        <ele>1019</ele>
        <time>2022-06-06T09:35:35Z</time>
      </trkpt>
      <trkpt lat="44.77982" lon="4.10597">
        <ele>1021</ele>
        <time>2022-06-06T09:35:42Z</time>
      </trkpt>
      <trkpt lat="44.77972" lon="4.10627">
        <ele>1022</ele>
        <time>2022-06-06T09:35:46Z</time>
      </trkpt>
      <trkpt lat="44.77946" lon="4.10654">
        <ele>1027</ele>
        <time>2022-06-06T09:35:52Z</time>
      </trkpt>
      <trkpt lat="44.77932" lon="4.10676">
        <ele>1029</ele>
        <time>2022-06-06T09:35:56Z</time>
      </trkpt>
      <trkpt lat="44.77912" lon="4.10736">
        <ele>1027</ele>
        <time>2022-06-06T09:36:04Z</time>
      </trkpt>
      <trkpt lat="44.77902" lon="4.10772">
        <ele>1027</ele>
        <time>2022-06-06T09:36:09Z</time>
      </trkpt>
      <trkpt lat="44.77898" lon="4.10844">
        <ele>1025</ele>
        <time>2022-06-06T09:36:18Z</time>
      </trkpt>
      <trkpt lat="44.77886" lon="4.10881">
        <ele>1029</ele>
        <time>2022-06-06T09:36:23Z</time>
      </trkpt>
      <trkpt lat="44.77873" lon="4.1093">
        <ele>1034</ele>
        <time>2022-06-06T09:36:30Z</time>
      </trkpt>
      <trkpt lat="44.7787" lon="4.1096">
        <ele>1035</ele>
        <time>2022-06-06T09:36:34Z</time>
      </trkpt>
      <trkpt lat="44.77885" lon="4.11014">
        <ele>1034</ele>
        <time>2022-06-06T09:36:41Z</time>
      </trkpt>
      <trkpt lat="44.77893" lon="4.11066">
        <ele>1034</ele>
        <time>2022-06-06T09:36:48Z</time>
      </trkpt>
      <trkpt lat="44.77893" lon="4.11101">
        <ele>1035</ele>
        <time>2022-06-06T09:36:52Z</time>
      </trkpt>
      <trkpt lat="44.77884" lon="4.11152">
        <ele>1038</ele>
        <time>2022-06-06T09:36:59Z</time>
      </trkpt>
      <trkpt lat="44.77882" lon="4.11207">
        <ele>1042</ele>
        <time>2022-06-06T09:37:06Z</time>
      </trkpt>
      <trkpt lat="44.77884" lon="4.11285">
        <ele>1044</ele>
        <time>2022-06-06T09:37:16Z</time>
      </trkpt>
      <trkpt lat="44.7786" lon="4.11435">
        <ele>1044</ele>
        <time>2022-06-06T09:37:35Z</time>
      </trkpt>
      <trkpt lat="44.77844" lon="4.11516">
        <ele>1043</ele>
        <time>2022-06-06T09:37:46Z</time>
      </trkpt>
      <trkpt lat="44.77836" lon="4.11576">
        <ele>1044</ele>
        <time>2022-06-06T09:37:53Z</time>
      </trkpt>
      <trkpt lat="44.7782" lon="4.11732">
        <ele>1047</ele>
        <time>2022-06-06T09:38:13Z</time>
      </trkpt>
      <trkpt lat="44.77818" lon="4.1178">
        <ele>1049</ele>
        <time>2022-06-06T09:38:19Z</time>
      </trkpt>
      <trkpt lat="44.77841" lon="4.11897">
        <ele>1050</ele>
        <time>2022-06-06T09:38:35Z</time>
      </trkpt>
      <trkpt lat="44.77868" lon="4.12052">
        <ele>1055</ele>
        <time>2022-06-06T09:38:55Z</time>
      </trkpt>
      <trkpt lat="44.7787" lon="4.12079">
        <ele>1057</ele>
        <time>2022-06-06T09:38:58Z</time>
      </trkpt>
      <trkpt lat="44.77869" lon="4.12108">
        <ele>1060</ele>
        <time>2022-06-06T09:39:02Z</time>
      </trkpt>
      <trkpt lat="44.77874" lon="4.12133">
        <ele>1062</ele>
        <time>2022-06-06T09:39:05Z</time>
      </trkpt>
      <trkpt lat="44.77877" lon="4.12159">
        <ele>1064</ele>
        <time>2022-06-06T09:39:09Z</time>
      </trkpt>
      <trkpt lat="44.7787" lon="4.12226">
        <ele>1065</ele>
        <time>2022-06-06T09:39:17Z</time>
      </trkpt>
      <trkpt lat="44.77871" lon="4.12251">
        <ele>1065</ele>
        <time>2022-06-06T09:39:20Z</time>
      </trkpt>
      <trkpt lat="44.77858" lon="4.12305">
        <ele>1065</ele>
        <time>2022-06-06T09:39:28Z</time>
      </trkpt>
      <trkpt lat="44.77857" lon="4.12332">
        <ele>1066</ele>
        <time>2022-06-06T09:39:31Z</time>
      </trkpt>
      <trkpt lat="44.77854" lon="4.12351">
        <ele>1066</ele>
        <time>2022-06-06T09:39:33Z</time>
      </trkpt>
      <trkpt lat="44.77779" lon="4.12566">
        <ele>1069</ele>
        <time>2022-06-06T09:40:04Z</time>
      </trkpt>
      <trkpt lat="44.77758" lon="4.12683">
        <ele>1072</ele>
        <time>2022-06-06T09:40:19Z</time>
      </trkpt>
      <trkpt lat="44.77718" lon="4.12766">
        <ele>1079</ele>
        <time>2022-06-06T09:40:32Z</time>
      </trkpt>
      <trkpt lat="44.777" lon="4.12791">
        <ele>1080</ele>
        <time>2022-06-06T09:40:36Z</time>
      </trkpt>
      <trkpt lat="44.77678" lon="4.12808">
        <ele>1080</ele>
        <time>2022-06-06T09:40:41Z</time>
      </trkpt>
      <trkpt lat="44.77601" lon="4.12822">
        <ele>1084</ele>
        <time>2022-06-06T09:40:54Z</time>
      </trkpt>
      <trkpt lat="44.77569" lon="4.12831">
        <ele>1085</ele>
        <time>2022-06-06T09:41:00Z</time>
      </trkpt>
      <trkpt lat="44.77521" lon="4.1286">
        <ele>1088</ele>
        <time>2022-06-06T09:41:09Z</time>
      </trkpt>
      <trkpt lat="44.77415" lon="4.12955">
        <ele>1094</ele>
        <time>2022-06-06T09:41:32Z</time>
      </trkpt>
      <trkpt lat="44.77377" lon="4.13027">
        <ele>1092</ele>
        <time>2022-06-06T09:41:43Z</time>
      </trkpt>
      <trkpt lat="44.77343" lon="4.13081">
        <ele>1094</ele>
        <time>2022-06-06T09:41:52Z</time>
      </trkpt>
      <trkpt lat="44.77266" lon="4.13148">
        <ele>1092</ele>
        <time>2022-06-06T09:42:08Z</time>
      </trkpt>
      <trkpt lat="44.77228" lon="4.13184">
        <ele>1092</ele>
        <time>2022-06-06T09:42:17Z</time>
      </trkpt>
      <trkpt lat="44.7718" lon="4.13272">
        <ele>1094</ele>
        <time>2022-06-06T09:42:31Z</time>
      </trkpt>
      <trkpt lat="44.77106" lon="4.13348">
        <ele>1098</ele>
        <time>2022-06-06T09:42:47Z</time>
      </trkpt>
      <trkpt lat="44.77075" lon="4.13395">
        <ele>1103</ele>
        <time>2022-06-06T09:42:55Z</time>
      </trkpt>
      <trkpt lat="44.77022" lon="4.13448">
        <ele>1104</ele>
        <time>2022-06-06T09:43:07Z</time>
      </trkpt>
      <trkpt lat="44.77002" lon="4.13474">
        <ele>1104</ele>
        <time>2022-06-06T09:43:11Z</time>
      </trkpt>
      <trkpt lat="44.76969" lon="4.13573">
        <ele>1111</ele>
        <time>2022-06-06T09:43:25Z</time>
      </trkpt>
      <trkpt lat="44.76918" lon="4.13657">
        <ele>1113</ele>
        <time>2022-06-06T09:43:39Z</time>
      </trkpt>
      <trkpt lat="44.76892" lon="4.13703">
        <ele>1122</ele>
        <time>2022-06-06T09:43:47Z</time>
      </trkpt>
      <trkpt lat="44.76865" lon="4.13767">
        <ele>1127</ele>
        <time>2022-06-06T09:43:56Z</time>
      </trkpt>
      <trkpt lat="44.76766" lon="4.14024">
        <ele>1127</ele>
        <time>2022-06-06T09:44:33Z</time>
      </trkpt>
      <trkpt lat="44.76733" lon="4.14115">
        <ele>1132</ele>
        <time>2022-06-06T09:44:46Z</time>
      </trkpt>
      <trkpt lat="44.76694" lon="4.14244">
        <ele>1137</ele>
        <time>2022-06-06T09:45:04Z</time>
      </trkpt>
      <trkpt lat="44.76654" lon="4.14395">
        <ele>1137</ele>
        <time>2022-06-06T09:45:24Z</time>
      </trkpt>
      <trkpt lat="44.76652" lon="4.14411">
        <ele>1137</ele>
        <time>2022-06-06T09:45:26Z</time>
      </trkpt>
      <trkpt lat="44.76655" lon="4.14433">
        <ele>1137</ele>
        <time>2022-06-06T09:45:29Z</time>
      </trkpt>
      <trkpt lat="44.76685" lon="4.14501">
        <ele>1141</ele>
        <time>2022-06-06T09:45:39Z</time>
      </trkpt>
      <trkpt lat="44.76695" lon="4.14519">
        <ele>1142</ele>
        <time>2022-06-06T09:45:42Z</time>
      </trkpt>
      <trkpt lat="44.76708" lon="4.14585">
        <ele>1144</ele>
        <time>2022-06-06T09:45:50Z</time>
      </trkpt>
      <trkpt lat="44.76711" lon="4.14611">
        <ele>1144</ele>
        <time>2022-06-06T09:45:54Z</time>
      </trkpt>
      <trkpt lat="44.76643" lon="4.14901">
        <ele>1150</ele>
        <time>2022-06-06T09:46:32Z</time>
      </trkpt>
      <trkpt lat="44.76634" lon="4.14922">
        <ele>1150</ele>
        <time>2022-06-06T09:46:35Z</time>
      </trkpt>
      <trkpt lat="44.76618" lon="4.14937">
        <ele>1151</ele>
        <time>2022-06-06T09:46:39Z</time>
      </trkpt>
      <trkpt lat="44.76594" lon="4.14936">
        <ele>1152</ele>
        <time>2022-06-06T09:46:43Z</time>
      </trkpt>
      <trkpt lat="44.76575" lon="4.14933">
        <ele>1153</ele>
        <time>2022-06-06T09:46:47Z</time>
      </trkpt>
      <trkpt lat="44.76532" lon="4.14914">
        <ele>1154</ele>
        <time>2022-06-06T09:46:55Z</time>
      </trkpt>
      <trkpt lat="44.76487" lon="4.14918">
        <ele>1155</ele>
        <time>2022-06-06T09:47:03Z</time>
      </trkpt>
      <trkpt lat="44.76459" lon="4.14925">
        <ele>1154</ele>
        <time>2022-06-06T09:47:08Z</time>
      </trkpt>
      <trkpt lat="44.76446" lon="4.14933">
        <ele>1154</ele>
        <time>2022-06-06T09:47:10Z</time>
      </trkpt>
      <trkpt lat="44.76424" lon="4.14962">
        <ele>1152</ele>
        <time>2022-06-06T09:47:16Z</time>
      </trkpt>
      <trkpt lat="44.76395" lon="4.14979">
        <ele>1152</ele>
        <time>2022-06-06T09:47:21Z</time>
      </trkpt>
      <trkpt lat="44.76386" lon="4.14999">
        <ele>1152</ele>
        <time>2022-06-06T09:47:24Z</time>
      </trkpt>
      <trkpt lat="44.76376" lon="4.15016">
        <ele>1151</ele>
        <time>2022-06-06T09:47:27Z</time>
      </trkpt>
      <trkpt lat="44.76347" lon="4.15039">
        <ele>1151</ele>
        <time>2022-06-06T09:47:33Z</time>
      </trkpt>
      <trkpt lat="44.76291" lon="4.15069">
        <ele>1153</ele>
        <time>2022-06-06T09:47:43Z</time>
      </trkpt>
      <trkpt lat="44.76277" lon="4.15081">
        <ele>1153</ele>
        <time>2022-06-06T09:47:46Z</time>
      </trkpt>
      <trkpt lat="44.7626" lon="4.15109">
        <ele>1154</ele>
        <time>2022-06-06T09:47:51Z</time>
      </trkpt>
      <trkpt lat="44.76249" lon="4.15136">
        <ele>1155</ele>
        <time>2022-06-06T09:47:55Z</time>
      </trkpt>
      <trkpt lat="44.76248" lon="4.15147">
        <ele>1155</ele>
        <time>2022-06-06T09:47:56Z</time>
      </trkpt>
      <trkpt lat="44.76257" lon="4.15195">
        <ele>1154</ele>
        <time>2022-06-06T09:48:03Z</time>
      </trkpt>
      <trkpt lat="44.76283" lon="4.15257">
        <ele>1149</ele>
        <time>2022-06-06T09:48:12Z</time>
      </trkpt>
      <trkpt lat="44.76293" lon="4.15287">
        <ele>1146</ele>
        <time>2022-06-06T09:48:16Z</time>
      </trkpt>
      <trkpt lat="44.76301" lon="4.15328">
        <ele>1143</ele>
        <time>2022-06-06T09:48:21Z</time>
      </trkpt>
      <trkpt lat="44.763" lon="4.15344">
        <ele>1143</ele>
        <time>2022-06-06T09:48:23Z</time>
      </trkpt>
      <trkpt lat="44.76297" lon="4.15353">
        <ele>1143</ele>
        <time>2022-06-06T09:48:25Z</time>
      </trkpt>
      <trkpt lat="44.76262" lon="4.15405">
        <ele>1146</ele>
        <time>2022-06-06T09:48:34Z</time>
      </trkpt>
      <trkpt lat="44.76213" lon="4.15441">
        <ele>1152</ele>
        <time>2022-06-06T09:48:43Z</time>
      </trkpt>
      <trkpt lat="44.76174" lon="4.15465">
        <ele>1156</ele>
        <time>2022-06-06T09:48:51Z</time>
      </trkpt>
      <trkpt lat="44.76147" lon="4.15498">
        <ele>1156</ele>
        <time>2022-06-06T09:48:57Z</time>
      </trkpt>
      <trkpt lat="44.7614" lon="4.15499">
        <ele>1157</ele>
        <time>2022-06-06T09:48:59Z</time>
      </trkpt>
      <trkpt lat="44.76132" lon="4.15494">
        <ele>1159</ele>
        <time>2022-06-06T09:49:00Z</time>
      </trkpt>
      <trkpt lat="44.76121" lon="4.15507">
        <ele>1159</ele>
        <time>2022-06-06T09:49:03Z</time>
      </trkpt>
      <trkpt lat="44.76068" lon="4.15556">
        <ele>1157</ele>
        <time>2022-06-06T09:49:14Z</time>
      </trkpt>
      <trkpt lat="44.75978" lon="4.1562">
        <ele>1155</ele>
        <time>2022-06-06T09:49:32Z</time>
      </trkpt>
      <trkpt lat="44.75919" lon="4.15627">
        <ele>1160</ele>
        <time>2022-06-06T09:49:43Z</time>
      </trkpt>
      <trkpt lat="44.7589" lon="4.15644">
        <ele>1162</ele>
        <time>2022-06-06T09:49:48Z</time>
      </trkpt>
      <trkpt lat="44.75886" lon="4.15662">
        <ele>1160</ele>
        <time>2022-06-06T09:49:50Z</time>
      </trkpt>
      <trkpt lat="44.759" lon="4.15684">
        <ele>1158</ele>
        <time>2022-06-06T09:49:54Z</time>
      </trkpt>
      <trkpt lat="44.75939" lon="4.15725">
        <ele>1150</ele>
        <time>2022-06-06T09:50:03Z</time>
      </trkpt>
      <trkpt lat="44.7601" lon="4.15875">
        <ele>1135</ele>
        <time>2022-06-06T09:50:26Z</time>
      </trkpt>
      <trkpt lat="44.76014" lon="4.15898">
        <ele>1135</ele>
        <time>2022-06-06T09:50:29Z</time>
      </trkpt>
      <trkpt lat="44.76016" lon="4.15933">
        <ele>1135</ele>
        <time>2022-06-06T09:50:33Z</time>
      </trkpt>
      <trkpt lat="44.76015" lon="4.15967">
        <ele>1137</ele>
        <time>2022-06-06T09:50:37Z</time>
      </trkpt>
      <trkpt lat="44.76018" lon="4.15985">
        <ele>1137</ele>
        <time>2022-06-06T09:50:40Z</time>
      </trkpt>
      <trkpt lat="44.76028" lon="4.16003">
        <ele>1135</ele>
        <time>2022-06-06T09:50:43Z</time>
      </trkpt>
      <trkpt lat="44.76069" lon="4.16048">
        <ele>1134</ele>
        <time>2022-06-06T09:50:52Z</time>
      </trkpt>
      <trkpt lat="44.76081" lon="4.16054">
        <ele>1132</ele>
        <time>2022-06-06T09:50:54Z</time>
      </trkpt>
      <trkpt lat="44.76111" lon="4.1606">
        <ele>1129</ele>
        <time>2022-06-06T09:51:00Z</time>
      </trkpt>
      <trkpt lat="44.7612" lon="4.16064">
        <ele>1128</ele>
        <time>2022-06-06T09:51:01Z</time>
      </trkpt>
      <trkpt lat="44.76128" lon="4.16071">
        <ele>1128</ele>
        <time>2022-06-06T09:51:03Z</time>
      </trkpt>
      <trkpt lat="44.76134" lon="4.16081">
        <ele>1128</ele>
        <time>2022-06-06T09:51:05Z</time>
      </trkpt>
      <trkpt lat="44.76147" lon="4.16132">
        <ele>1126</ele>
        <time>2022-06-06T09:51:11Z</time>
      </trkpt>
      <trkpt lat="44.76193" lon="4.16202">
        <ele>1123</ele>
        <time>2022-06-06T09:51:23Z</time>
      </trkpt>
      <trkpt lat="44.76212" lon="4.16224">
        <ele>1123</ele>
        <time>2022-06-06T09:51:28Z</time>
      </trkpt>
      <trkpt lat="44.76214" lon="4.16227">
        <ele>1123</ele>
        <time>2022-06-06T09:51:28Z</time>
      </trkpt>
      <trkpt lat="44.76229" lon="4.16247">
        <ele>1124</ele>
        <time>2022-06-06T09:51:32Z</time>
      </trkpt>
      <trkpt lat="44.76245" lon="4.16252">
        <ele>1124</ele>
        <time>2022-06-06T09:51:35Z</time>
      </trkpt>
      <trkpt lat="44.76253" lon="4.1625">
        <ele>1124</ele>
        <time>2022-06-06T09:51:36Z</time>
      </trkpt>
      <trkpt lat="44.76254" lon="4.1625">
        <ele>1124</ele>
        <time>2022-06-06T09:51:37Z</time>
      </trkpt>
      <trkpt lat="44.7627" lon="4.16246">
        <ele>1124</ele>
        <time>2022-06-06T09:51:39Z</time>
      </trkpt>
      <trkpt lat="44.76333" lon="4.16234">
        <ele>1124</ele>
        <time>2022-06-06T09:51:51Z</time>
      </trkpt>
      <trkpt lat="44.76357" lon="4.16228">
        <ele>1124</ele>
        <time>2022-06-06T09:51:55Z</time>
      </trkpt>
      <trkpt lat="44.7639" lon="4.16225">
        <ele>1123</ele>
        <time>2022-06-06T09:52:01Z</time>
      </trkpt>
      <trkpt lat="44.76444" lon="4.1623">
        <ele>1124</ele>
        <time>2022-06-06T09:52:11Z</time>
      </trkpt>
      <trkpt lat="44.76474" lon="4.16239">
        <ele>1125</ele>
        <time>2022-06-06T09:52:16Z</time>
      </trkpt>
      <trkpt lat="44.76514" lon="4.16257">
        <ele>1126</ele>
        <time>2022-06-06T09:52:24Z</time>
      </trkpt>
      <trkpt lat="44.76551" lon="4.16277">
        <ele>1128</ele>
        <time>2022-06-06T09:52:31Z</time>
      </trkpt>
      <trkpt lat="44.76597" lon="4.16308">
        <ele>1130</ele>
        <time>2022-06-06T09:52:40Z</time>
      </trkpt>
      <trkpt lat="44.76652" lon="4.1636">
        <ele>1131</ele>
        <time>2022-06-06T09:52:51Z</time>
      </trkpt>
      <trkpt lat="44.76659" lon="4.16371">
        <ele>1131</ele>
        <time>2022-06-06T09:52:53Z</time>
      </trkpt>
      <trkpt lat="44.76666" lon="4.16384">
        <ele>1132</ele>
        <time>2022-06-06T09:52:55Z</time>
      </trkpt>
      <trkpt lat="44.76687" lon="4.1644">
        <ele>1136</ele>
        <time>2022-06-06T09:53:03Z</time>
      </trkpt>
      <trkpt lat="44.76699" lon="4.16464">
        <ele>1137</ele>
        <time>2022-06-06T09:53:07Z</time>
      </trkpt>
      <trkpt lat="44.76727" lon="4.16487">
        <ele>1132</ele>
        <time>2022-06-06T09:53:13Z</time>
      </trkpt>
      <trkpt lat="44.76778" lon="4.16529">
        <ele>1131</ele>
        <time>2022-06-06T09:53:23Z</time>
      </trkpt>
      <trkpt lat="44.76801" lon="4.16554">
        <ele>1131</ele>
        <time>2022-06-06T09:53:29Z</time>
      </trkpt>
      <trkpt lat="44.76821" lon="4.16584">
        <ele>1128</ele>
        <time>2022-06-06T09:53:34Z</time>
      </trkpt>
      <trkpt lat="44.76827" lon="4.16594">
        <ele>1129</ele>
        <time>2022-06-06T09:53:35Z</time>
      </trkpt>
      <trkpt lat="44.76836" lon="4.16609">
        <ele>1129</ele>
        <time>2022-06-06T09:53:38Z</time>
      </trkpt>
      <trkpt lat="44.76847" lon="4.16632">
        <ele>1132</ele>
        <time>2022-06-06T09:53:41Z</time>
      </trkpt>
      <trkpt lat="44.76861" lon="4.16666">
        <ele>1134</ele>
        <time>2022-06-06T09:53:46Z</time>
      </trkpt>
      <trkpt lat="44.76872" lon="4.16703">
        <ele>1135</ele>
        <time>2022-06-06T09:53:51Z</time>
      </trkpt>
      <trkpt lat="44.76876" lon="4.16728">
        <ele>1136</ele>
        <time>2022-06-06T09:53:55Z</time>
      </trkpt>
      <trkpt lat="44.76876" lon="4.16783">
        <ele>1140</ele>
        <time>2022-06-06T09:54:02Z</time>
      </trkpt>
      <trkpt lat="44.76887" lon="4.16819">
        <ele>1139</ele>
        <time>2022-06-06T09:54:07Z</time>
      </trkpt>
      <trkpt lat="44.76902" lon="4.16835">
        <ele>1134</ele>
        <time>2022-06-06T09:54:10Z</time>
      </trkpt>
      <trkpt lat="44.76905" lon="4.16849">
        <ele>1133</ele>
        <time>2022-06-06T09:54:12Z</time>
      </trkpt>
      <trkpt lat="44.76947" lon="4.16881">
        <ele>1129</ele>
        <time>2022-06-06T09:54:20Z</time>
      </trkpt>
      <trkpt lat="44.76963" lon="4.16889">
        <ele>1129</ele>
        <time>2022-06-06T09:54:23Z</time>
      </trkpt>
      <trkpt lat="44.76989" lon="4.16889">
        <ele>1128</ele>
        <time>2022-06-06T09:54:28Z</time>
      </trkpt>
      <trkpt lat="44.77008" lon="4.16896">
        <ele>1128</ele>
        <time>2022-06-06T09:54:31Z</time>
      </trkpt>
      <trkpt lat="44.77023" lon="4.16914">
        <ele>1128</ele>
        <time>2022-06-06T09:54:35Z</time>
      </trkpt>
      <trkpt lat="44.77032" lon="4.16931">
        <ele>1128</ele>
        <time>2022-06-06T09:54:38Z</time>
      </trkpt>
      <trkpt lat="44.77064" lon="4.17018">
        <ele>1131</ele>
        <time>2022-06-06T09:54:50Z</time>
      </trkpt>
      <trkpt lat="44.77076" lon="4.17075">
        <ele>1133</ele>
        <time>2022-06-06T09:54:57Z</time>
      </trkpt>
      <trkpt lat="44.77099" lon="4.17141">
        <ele>1140</ele>
        <time>2022-06-06T09:55:07Z</time>
      </trkpt>
      <trkpt lat="44.77106" lon="4.17196">
        <ele>1144</ele>
        <time>2022-06-06T09:55:14Z</time>
      </trkpt>
      <trkpt lat="44.77106" lon="4.17245">
        <ele>1147</ele>
        <time>2022-06-06T09:55:20Z</time>
      </trkpt>
      <trkpt lat="44.77102" lon="4.1734">
        <ele>1146</ele>
        <time>2022-06-06T09:55:32Z</time>
      </trkpt>
      <trkpt lat="44.77086" lon="4.17418">
        <ele>1143</ele>
        <time>2022-06-06T09:55:42Z</time>
      </trkpt>
      <trkpt lat="44.77011" lon="4.17536">
        <ele>1149</ele>
        <time>2022-06-06T09:56:02Z</time>
      </trkpt>
      <trkpt lat="44.77012" lon="4.17552">
        <ele>1150</ele>
        <time>2022-06-06T09:56:04Z</time>
      </trkpt>
      <trkpt lat="44.77027" lon="4.17581">
        <ele>1148</ele>
        <time>2022-06-06T09:56:09Z</time>
      </trkpt>
      <trkpt lat="44.77031" lon="4.17603">
        <ele>1149</ele>
        <time>2022-06-06T09:56:12Z</time>
      </trkpt>
      <trkpt lat="44.77028" lon="4.17661">
        <ele>1156</ele>
        <time>2022-06-06T09:56:19Z</time>
      </trkpt>
      <trkpt lat="44.77033" lon="4.17703">
        <ele>1156</ele>
        <time>2022-06-06T09:56:24Z</time>
      </trkpt>
      <trkpt lat="44.7703" lon="4.17746">
        <ele>1159</ele>
        <time>2022-06-06T09:56:30Z</time>
      </trkpt>
      <trkpt lat="44.77035" lon="4.17761">
        <ele>1157</ele>
        <time>2022-06-06T09:56:32Z</time>
      </trkpt>
      <trkpt lat="44.77055" lon="4.17792">
        <ele>1151</ele>
        <time>2022-06-06T09:56:37Z</time>
      </trkpt>
      <trkpt lat="44.77052" lon="4.17824">
        <ele>1153</ele>
        <time>2022-06-06T09:56:41Z</time>
      </trkpt>
      <trkpt lat="44.77057" lon="4.17855">
        <ele>1155</ele>
        <time>2022-06-06T09:56:45Z</time>
      </trkpt>
      <trkpt lat="44.77081" lon="4.17883">
        <ele>1154</ele>
        <time>2022-06-06T09:56:51Z</time>
      </trkpt>
      <trkpt lat="44.77098" lon="4.17896">
        <ele>1155</ele>
        <time>2022-06-06T09:56:54Z</time>
      </trkpt>
      <trkpt lat="44.7712" lon="4.179">
        <ele>1156</ele>
        <time>2022-06-06T09:56:58Z</time>
      </trkpt>
      <trkpt lat="44.77163" lon="4.17929">
        <ele>1161</ele>
        <time>2022-06-06T09:57:07Z</time>
      </trkpt>
      <trkpt lat="44.77241" lon="4.17997">
        <ele>1164</ele>
        <time>2022-06-06T09:57:23Z</time>
      </trkpt>
      <trkpt lat="44.77261" lon="4.18047">
        <ele>1167</ele>
        <time>2022-06-06T09:57:30Z</time>
      </trkpt>
      <trkpt lat="44.77268" lon="4.18108">
        <ele>1172</ele>
        <time>2022-06-06T09:57:38Z</time>
      </trkpt>
      <trkpt lat="44.77269" lon="4.18151">
        <ele>1174</ele>
        <time>2022-06-06T09:57:44Z</time>
      </trkpt>
      <trkpt lat="44.77251" lon="4.18311">
        <ele>1178</ele>
        <time>2022-06-06T09:58:04Z</time>
      </trkpt>
      <trkpt lat="44.77251" lon="4.18381">
        <ele>1178</ele>
        <time>2022-06-06T09:58:13Z</time>
      </trkpt>
      <trkpt lat="44.77263" lon="4.18572">
        <ele>1182</ele>
        <time>2022-06-06T09:58:37Z</time>
      </trkpt>
      <trkpt lat="44.77278" lon="4.18658">
        <ele>1181</ele>
        <time>2022-06-06T09:58:48Z</time>
      </trkpt>
      <trkpt lat="44.77312" lon="4.18711">
        <ele>1176</ele>
        <time>2022-06-06T09:58:57Z</time>
      </trkpt>
      <trkpt lat="44.77332" lon="4.18754">
        <ele>1175</ele>
        <time>2022-06-06T09:59:04Z</time>
      </trkpt>
      <trkpt lat="44.77335" lon="4.18784">
        <ele>1175</ele>
        <time>2022-06-06T09:59:08Z</time>
      </trkpt>
      <trkpt lat="44.77331" lon="4.18817">
        <ele>1178</ele>
        <time>2022-06-06T09:59:12Z</time>
      </trkpt>
      <trkpt lat="44.77308" lon="4.18911">
        <ele>1189</ele>
        <time>2022-06-06T09:59:24Z</time>
      </trkpt>
      <trkpt lat="44.77306" lon="4.1898">
        <ele>1191</ele>
        <time>2022-06-06T09:59:33Z</time>
      </trkpt>
      <trkpt lat="44.77313" lon="4.19052">
        <ele>1191</ele>
        <time>2022-06-06T09:59:42Z</time>
      </trkpt>
      <trkpt lat="44.77326" lon="4.19075">
        <ele>1187</ele>
        <time>2022-06-06T09:59:46Z</time>
      </trkpt>
      <trkpt lat="44.77345" lon="4.19087">
        <ele>1185</ele>
        <time>2022-06-06T09:59:50Z</time>
      </trkpt>
      <trkpt lat="44.77392" lon="4.19084">
        <ele>1180</ele>
        <time>2022-06-06T09:59:58Z</time>
      </trkpt>
      <trkpt lat="44.77543" lon="4.19091">
        <ele>1175</ele>
        <time>2022-06-06T10:00:25Z</time>
      </trkpt>
      <trkpt lat="44.77554" lon="4.19106">
        <ele>1175</ele>
        <time>2022-06-06T10:00:28Z</time>
      </trkpt>
      <trkpt lat="44.77562" lon="4.19173">
        <ele>1182</ele>
        <time>2022-06-06T10:00:36Z</time>
      </trkpt>
      <trkpt lat="44.77563" lon="4.19251">
        <ele>1186</ele>
        <time>2022-06-06T10:00:46Z</time>
      </trkpt>
      <trkpt lat="44.77557" lon="4.19417">
        <ele>1186</ele>
        <time>2022-06-06T10:01:07Z</time>
      </trkpt>
      <trkpt lat="44.77553" lon="4.19447">
        <ele>1186</ele>
        <time>2022-06-06T10:01:11Z</time>
      </trkpt>
      <trkpt lat="44.7753" lon="4.19558">
        <ele>1186</ele>
        <time>2022-06-06T10:01:26Z</time>
      </trkpt>
      <trkpt lat="44.77518" lon="4.19593">
        <ele>1186</ele>
        <time>2022-06-06T10:01:30Z</time>
      </trkpt>
      <trkpt lat="44.775" lon="4.19632">
        <ele>1185</ele>
        <time>2022-06-06T10:01:36Z</time>
      </trkpt>
      <trkpt lat="44.77457" lon="4.19702">
        <ele>1186</ele>
        <time>2022-06-06T10:01:48Z</time>
      </trkpt>
      <trkpt lat="44.77442" lon="4.19713">
        <ele>1189</ele>
        <time>2022-06-06T10:01:51Z</time>
      </trkpt>
      <trkpt lat="44.77438" lon="4.19729">
        <ele>1189</ele>
        <time>2022-06-06T10:01:53Z</time>
      </trkpt>
      <trkpt lat="44.77439" lon="4.1974">
        <ele>1188</ele>
        <time>2022-06-06T10:01:55Z</time>
      </trkpt>
      <trkpt lat="44.77448" lon="4.19765">
        <ele>1185</ele>
        <time>2022-06-06T10:01:58Z</time>
      </trkpt>
      <trkpt lat="44.7745" lon="4.1978">
        <ele>1185</ele>
        <time>2022-06-06T10:02:00Z</time>
      </trkpt>
      <trkpt lat="44.77442" lon="4.19814">
        <ele>1188</ele>
        <time>2022-06-06T10:02:05Z</time>
      </trkpt>
      <trkpt lat="44.77439" lon="4.19835">
        <ele>1189</ele>
        <time>2022-06-06T10:02:07Z</time>
      </trkpt>
      <trkpt lat="44.77447" lon="4.19892">
        <ele>1188</ele>
        <time>2022-06-06T10:02:15Z</time>
      </trkpt>
      <trkpt lat="44.77445" lon="4.19958">
        <ele>1187</ele>
        <time>2022-06-06T10:02:23Z</time>
      </trkpt>
      <trkpt lat="44.7744" lon="4.20001">
        <ele>1186</ele>
        <time>2022-06-06T10:02:28Z</time>
      </trkpt>
      <trkpt lat="44.7741" lon="4.2012">
        <ele>1179</ele>
        <time>2022-06-06T10:02:44Z</time>
      </trkpt>
      <trkpt lat="44.77394" lon="4.20196">
        <ele>1174</ele>
        <time>2022-06-06T10:02:54Z</time>
      </trkpt>
      <trkpt lat="44.77387" lon="4.20212">
        <ele>1174</ele>
        <time>2022-06-06T10:02:57Z</time>
      </trkpt>
      <trkpt lat="44.7738" lon="4.20217">
        <ele>1175</ele>
        <time>2022-06-06T10:02:58Z</time>
      </trkpt>
      <trkpt lat="44.77356" lon="4.20228">
        <ele>1179</ele>
        <time>2022-06-06T10:03:03Z</time>
      </trkpt>
      <trkpt lat="44.77336" lon="4.20234">
        <ele>1182</ele>
        <time>2022-06-06T10:03:06Z</time>
      </trkpt>
      <trkpt lat="44.77331" lon="4.20255">
        <ele>1183</ele>
        <time>2022-06-06T10:03:09Z</time>
      </trkpt>
      <trkpt lat="44.77337" lon="4.20267">
        <ele>1183</ele>
        <time>2022-06-06T10:03:11Z</time>
      </trkpt>
      <trkpt lat="44.7737" lon="4.20281">
        <ele>1176</ele>
        <time>2022-06-06T10:03:17Z</time>
      </trkpt>
      <trkpt lat="44.77384" lon="4.20296">
        <ele>1174</ele>
        <time>2022-06-06T10:03:20Z</time>
      </trkpt>
      <trkpt lat="44.77402" lon="4.20356">
        <ele>1171</ele>
        <time>2022-06-06T10:03:28Z</time>
      </trkpt>
      <trkpt lat="44.77407" lon="4.20357">
        <ele>1169</ele>
        <time>2022-06-06T10:03:29Z</time>
      </trkpt>
      <trkpt lat="44.77442" lon="4.20381">
        <ele>1166</ele>
        <time>2022-06-06T10:03:36Z</time>
      </trkpt>
      <trkpt lat="44.7748" lon="4.20399">
        <ele>1165</ele>
        <time>2022-06-06T10:03:43Z</time>
      </trkpt>
      <trkpt lat="44.77493" lon="4.20395">
        <ele>1164</ele>
        <time>2022-06-06T10:03:46Z</time>
      </trkpt>
      <trkpt lat="44.77501" lon="4.20386">
        <ele>1164</ele>
        <time>2022-06-06T10:03:48Z</time>
      </trkpt>
      <trkpt lat="44.77517" lon="4.20369">
        <ele>1164</ele>
        <time>2022-06-06T10:03:51Z</time>
      </trkpt>
      <trkpt lat="44.77538" lon="4.20354">
        <ele>1164</ele>
        <time>2022-06-06T10:03:55Z</time>
      </trkpt>
      <trkpt lat="44.7768" lon="4.20542">
        <ele>1171</ele>
        <time>2022-06-06T10:04:30Z</time>
      </trkpt>
      <trkpt lat="44.77689" lon="4.20586">
        <ele>1171</ele>
        <time>2022-06-06T10:04:36Z</time>
      </trkpt>
      <trkpt lat="44.77711" lon="4.2062">
        <ele>1173</ele>
        <time>2022-06-06T10:04:42Z</time>
      </trkpt>
      <trkpt lat="44.77724" lon="4.20627">
        <ele>1174</ele>
        <time>2022-06-06T10:04:44Z</time>
      </trkpt>
      <trkpt lat="44.77747" lon="4.2063">
        <ele>1176</ele>
        <time>2022-06-06T10:04:48Z</time>
      </trkpt>
      <trkpt lat="44.77764" lon="4.20642">
        <ele>1178</ele>
        <time>2022-06-06T10:04:52Z</time>
      </trkpt>
      <trkpt lat="44.77785" lon="4.2068">
        <ele>1178</ele>
        <time>2022-06-06T10:04:58Z</time>
      </trkpt>
      <trkpt lat="44.77791" lon="4.20691">
        <ele>1177</ele>
        <time>2022-06-06T10:04:59Z</time>
      </trkpt>
      <trkpt lat="44.77807" lon="4.20717">
        <ele>1176</ele>
        <time>2022-06-06T10:05:04Z</time>
      </trkpt>
      <trkpt lat="44.77828" lon="4.20733">
        <ele>1176</ele>
        <time>2022-06-06T10:05:08Z</time>
      </trkpt>
      <trkpt lat="44.77842" lon="4.20735">
        <ele>1177</ele>
        <time>2022-06-06T10:05:11Z</time>
      </trkpt>
      <trkpt lat="44.77863" lon="4.20727">
        <ele>1179</ele>
        <time>2022-06-06T10:05:14Z</time>
      </trkpt>
      <trkpt lat="44.77928" lon="4.2067">
        <ele>1185</ele>
        <time>2022-06-06T10:05:28Z</time>
      </trkpt>
      <trkpt lat="44.77966" lon="4.20616">
        <ele>1190</ele>
        <time>2022-06-06T10:05:38Z</time>
      </trkpt>
      <trkpt lat="44.77998" lon="4.20589">
        <ele>1187</ele>
        <time>2022-06-06T10:05:44Z</time>
      </trkpt>
      <trkpt lat="44.78019" lon="4.20556">
        <ele>1191</ele>
        <time>2022-06-06T10:05:50Z</time>
      </trkpt>
      <trkpt lat="44.78043" lon="4.2053">
        <ele>1195</ele>
        <time>2022-06-06T10:05:55Z</time>
      </trkpt>
      <trkpt lat="44.78085" lon="4.20521">
        <ele>1195</ele>
        <time>2022-06-06T10:06:03Z</time>
      </trkpt>
      <trkpt lat="44.78126" lon="4.20523">
        <ele>1203</ele>
        <time>2022-06-06T10:06:10Z</time>
      </trkpt>
      <trkpt lat="44.78142" lon="4.20543">
        <ele>1201</ele>
        <time>2022-06-06T10:06:14Z</time>
      </trkpt>
      <trkpt lat="44.78161" lon="4.20608">
        <ele>1191</ele>
        <time>2022-06-06T10:06:23Z</time>
      </trkpt>
      <trkpt lat="44.78163" lon="4.20652">
        <ele>1186</ele>
        <time>2022-06-06T10:06:28Z</time>
      </trkpt>
      <trkpt lat="44.7816" lon="4.20676">
        <ele>1184</ele>
        <time>2022-06-06T10:06:31Z</time>
      </trkpt>
      <trkpt lat="44.78164" lon="4.20692">
        <ele>1184</ele>
        <time>2022-06-06T10:06:34Z</time>
      </trkpt>
      <trkpt lat="44.78188" lon="4.20741">
        <ele>1188</ele>
        <time>2022-06-06T10:06:41Z</time>
      </trkpt>
      <trkpt lat="44.78218" lon="4.20824">
        <ele>1192</ele>
        <time>2022-06-06T10:06:53Z</time>
      </trkpt>
      <trkpt lat="44.78231" lon="4.20837">
        <ele>1193</ele>
        <time>2022-06-06T10:06:56Z</time>
      </trkpt>
      <trkpt lat="44.78284" lon="4.20852">
        <ele>1201</ele>
        <time>2022-06-06T10:07:05Z</time>
      </trkpt>
      <trkpt lat="44.78321" lon="4.20872">
        <ele>1203</ele>
        <time>2022-06-06T10:07:12Z</time>
      </trkpt>
      <trkpt lat="44.7838" lon="4.20914">
        <ele>1212</ele>
        <time>2022-06-06T10:07:24Z</time>
      </trkpt>
      <trkpt lat="44.78396" lon="4.20943">
        <ele>1214</ele>
        <time>2022-06-06T10:07:29Z</time>
      </trkpt>
      <trkpt lat="44.78404" lon="4.20979">
        <ele>1212</ele>
        <time>2022-06-06T10:07:34Z</time>
      </trkpt>
      <trkpt lat="44.78405" lon="4.21008">
        <ele>1210</ele>
        <time>2022-06-06T10:07:37Z</time>
      </trkpt>
      <trkpt lat="44.78403" lon="4.21043">
        <ele>1209</ele>
        <time>2022-06-06T10:07:42Z</time>
      </trkpt>
      <trkpt lat="44.78394" lon="4.21066">
        <ele>1207</ele>
        <time>2022-06-06T10:07:45Z</time>
      </trkpt>
      <trkpt lat="44.78328" lon="4.21163">
        <ele>1202</ele>
        <time>2022-06-06T10:08:02Z</time>
      </trkpt>
      <trkpt lat="44.78323" lon="4.21175">
        <ele>1203</ele>
        <time>2022-06-06T10:08:04Z</time>
      </trkpt>
      <trkpt lat="44.78323" lon="4.21207">
        <ele>1205</ele>
        <time>2022-06-06T10:08:08Z</time>
      </trkpt>
      <trkpt lat="44.78334" lon="4.21282">
        <ele>1207</ele>
        <time>2022-06-06T10:08:17Z</time>
      </trkpt>
      <trkpt lat="44.7834" lon="4.21319">
        <ele>1205</ele>
        <time>2022-06-06T10:08:22Z</time>
      </trkpt>
      <trkpt lat="44.78344" lon="4.21333">
        <ele>1204</ele>
        <time>2022-06-06T10:08:24Z</time>
      </trkpt>
      <trkpt lat="44.78367" lon="4.21355">
        <ele>1206</ele>
        <time>2022-06-06T10:08:29Z</time>
      </trkpt>
      <trkpt lat="44.7839" lon="4.21363">
        <ele>1208</ele>
        <time>2022-06-06T10:08:33Z</time>
      </trkpt>
      <trkpt lat="44.7842" lon="4.21354">
        <ele>1212</ele>
        <time>2022-06-06T10:08:39Z</time>
      </trkpt>
      <trkpt lat="44.78462" lon="4.21353">
        <ele>1211</ele>
        <time>2022-06-06T10:08:46Z</time>
      </trkpt>
      <trkpt lat="44.78473" lon="4.2136">
        <ele>1211</ele>
        <time>2022-06-06T10:08:48Z</time>
      </trkpt>
      <trkpt lat="44.78477" lon="4.21376">
        <ele>1210</ele>
        <time>2022-06-06T10:08:51Z</time>
      </trkpt>
      <trkpt lat="44.78472" lon="4.21387">
        <ele>1210</ele>
        <time>2022-06-06T10:08:52Z</time>
      </trkpt>
      <trkpt lat="44.78399" lon="4.21408">
        <ele>1207</ele>
        <time>2022-06-06T10:09:05Z</time>
      </trkpt>
      <trkpt lat="44.78372" lon="4.21426">
        <ele>1204</ele>
        <time>2022-06-06T10:09:11Z</time>
      </trkpt>
      <trkpt lat="44.78355" lon="4.21442">
        <ele>1202</ele>
        <time>2022-06-06T10:09:14Z</time>
      </trkpt>
      <trkpt lat="44.78345" lon="4.21464">
        <ele>1203</ele>
        <time>2022-06-06T10:09:18Z</time>
      </trkpt>
      <trkpt lat="44.78342" lon="4.21482">
        <ele>1205</ele>
        <time>2022-06-06T10:09:20Z</time>
      </trkpt>
      <trkpt lat="44.78339" lon="4.21499">
        <ele>1206</ele>
        <time>2022-06-06T10:09:22Z</time>
      </trkpt>
      <trkpt lat="44.78334" lon="4.21567">
        <ele>1209</ele>
        <time>2022-06-06T10:09:31Z</time>
      </trkpt>
      <trkpt lat="44.78335" lon="4.21596">
        <ele>1211</ele>
        <time>2022-06-06T10:09:35Z</time>
      </trkpt>
      <trkpt lat="44.78337" lon="4.21661">
        <ele>1213</ele>
        <time>2022-06-06T10:09:43Z</time>
      </trkpt>
      <trkpt lat="44.78329" lon="4.21694">
        <ele>1214</ele>
        <time>2022-06-06T10:09:47Z</time>
      </trkpt>
      <trkpt lat="44.78296" lon="4.21838">
        <ele>1215</ele>
        <time>2022-06-06T10:10:06Z</time>
      </trkpt>
      <trkpt lat="44.78288" lon="4.21908">
        <ele>1216</ele>
        <time>2022-06-06T10:10:15Z</time>
      </trkpt>
      <trkpt lat="44.7829" lon="4.2193">
        <ele>1215</ele>
        <time>2022-06-06T10:10:18Z</time>
      </trkpt>
      <trkpt lat="44.78294" lon="4.21942">
        <ele>1215</ele>
        <time>2022-06-06T10:10:20Z</time>
      </trkpt>
      <trkpt lat="44.783" lon="4.21954">
        <ele>1215</ele>
        <time>2022-06-06T10:10:22Z</time>
      </trkpt>
      <trkpt lat="44.78319" lon="4.21966">
        <ele>1217</ele>
        <time>2022-06-06T10:10:25Z</time>
      </trkpt>
      <trkpt lat="44.78355" lon="4.21976">
        <ele>1221</ele>
        <time>2022-06-06T10:10:32Z</time>
      </trkpt>
      <trkpt lat="44.78374" lon="4.21984">
        <ele>1223</ele>
        <time>2022-06-06T10:10:35Z</time>
      </trkpt>
      <trkpt lat="44.7839" lon="4.21999">
        <ele>1224</ele>
        <time>2022-06-06T10:10:39Z</time>
      </trkpt>
      <trkpt lat="44.78396" lon="4.22005">
        <ele>1224</ele>
        <time>2022-06-06T10:10:40Z</time>
      </trkpt>
      <trkpt lat="44.78429" lon="4.22039">
        <ele>1224</ele>
        <time>2022-06-06T10:10:47Z</time>
      </trkpt>
      <trkpt lat="44.78446" lon="4.22054">
        <ele>1225</ele>
        <time>2022-06-06T10:10:51Z</time>
      </trkpt>
      <trkpt lat="44.78469" lon="4.2206">
        <ele>1228</ele>
        <time>2022-06-06T10:10:55Z</time>
      </trkpt>
      <trkpt lat="44.78482" lon="4.22067">
        <ele>1229</ele>
        <time>2022-06-06T10:10:57Z</time>
      </trkpt>
      <trkpt lat="44.78516" lon="4.22108">
        <ele>1224</ele>
        <time>2022-06-06T10:11:05Z</time>
      </trkpt>
      <trkpt lat="44.78527" lon="4.22116">
        <ele>1222</ele>
        <time>2022-06-06T10:11:08Z</time>
      </trkpt>
      <trkpt lat="44.78625" lon="4.22142">
        <ele>1221</ele>
        <time>2022-06-06T10:11:25Z</time>
      </trkpt>
      <trkpt lat="44.78647" lon="4.22141">
        <ele>1223</ele>
        <time>2022-06-06T10:11:29Z</time>
      </trkpt>
      <trkpt lat="44.78653" lon="4.22142">
        <ele>1224</ele>
        <time>2022-06-06T10:11:30Z</time>
      </trkpt>
      <trkpt lat="44.78663" lon="4.22153">
        <ele>1223</ele>
        <time>2022-06-06T10:11:33Z</time>
      </trkpt>
      <trkpt lat="44.78685" lon="4.222">
        <ele>1219</ele>
        <time>2022-06-06T10:11:40Z</time>
      </trkpt>
      <trkpt lat="44.78705" lon="4.22225">
        <ele>1218</ele>
        <time>2022-06-06T10:11:45Z</time>
      </trkpt>
      <trkpt lat="44.78715" lon="4.22234">
        <ele>1219</ele>
        <time>2022-06-06T10:11:47Z</time>
      </trkpt>
      <trkpt lat="44.7873" lon="4.22239">
        <ele>1220</ele>
        <time>2022-06-06T10:11:49Z</time>
      </trkpt>
      <trkpt lat="44.78738" lon="4.22246">
        <ele>1221</ele>
        <time>2022-06-06T10:11:51Z</time>
      </trkpt>
      <trkpt lat="44.78778" lon="4.2229">
        <ele>1218</ele>
        <time>2022-06-06T10:12:00Z</time>
      </trkpt>
      <trkpt lat="44.78783" lon="4.22301">
        <ele>1216</ele>
        <time>2022-06-06T10:12:02Z</time>
      </trkpt>
      <trkpt lat="44.78784" lon="4.2231">
        <ele>1215</ele>
        <time>2022-06-06T10:12:03Z</time>
      </trkpt>
      <trkpt lat="44.78788" lon="4.22349">
        <ele>1211</ele>
        <time>2022-06-06T10:12:08Z</time>
      </trkpt>
      <trkpt lat="44.78791" lon="4.22379">
        <ele>1213</ele>
        <time>2022-06-06T10:12:12Z</time>
      </trkpt>
      <trkpt lat="44.78798" lon="4.22403">
        <ele>1214</ele>
        <time>2022-06-06T10:12:15Z</time>
      </trkpt>
      <trkpt lat="44.78811" lon="4.22413">
        <ele>1214</ele>
        <time>2022-06-06T10:12:18Z</time>
      </trkpt>
      <trkpt lat="44.78837" lon="4.22435">
        <ele>1216</ele>
        <time>2022-06-06T10:12:23Z</time>
      </trkpt>
      <trkpt lat="44.78866" lon="4.22463">
        <ele>1218</ele>
        <time>2022-06-06T10:12:29Z</time>
      </trkpt>
      <trkpt lat="44.78872" lon="4.22478">
        <ele>1219</ele>
        <time>2022-06-06T10:12:31Z</time>
      </trkpt>
      <trkpt lat="44.78884" lon="4.22527">
        <ele>1222</ele>
        <time>2022-06-06T10:12:38Z</time>
      </trkpt>
      <trkpt lat="44.78886" lon="4.22556">
        <ele>1223</ele>
        <time>2022-06-06T10:12:42Z</time>
      </trkpt>
      <trkpt lat="44.78892" lon="4.22568">
        <ele>1223</ele>
        <time>2022-06-06T10:12:43Z</time>
      </trkpt>
      <trkpt lat="44.7892" lon="4.2261">
        <ele>1222</ele>
        <time>2022-06-06T10:12:51Z</time>
      </trkpt>
      <trkpt lat="44.78935" lon="4.22637">
        <ele>1224</ele>
        <time>2022-06-06T10:12:55Z</time>
      </trkpt>
      <trkpt lat="44.7894" lon="4.22636">
        <ele>1224</ele>
        <time>2022-06-06T10:12:56Z</time>
      </trkpt>
      <trkpt lat="44.7895" lon="4.22631">
        <ele>1225</ele>
        <time>2022-06-06T10:12:58Z</time>
      </trkpt>
      <trkpt lat="44.78953" lon="4.22628">
        <ele>1226</ele>
        <time>2022-06-06T10:12:59Z</time>
      </trkpt>
      <trkpt lat="44.7896" lon="4.22601">
        <ele>1227</ele>
        <time>2022-06-06T10:13:02Z</time>
      </trkpt>
      <trkpt lat="44.78962" lon="4.22553">
        <ele>1226</ele>
        <time>2022-06-06T10:13:08Z</time>
      </trkpt>
      <trkpt lat="44.78972" lon="4.22527">
        <ele>1226</ele>
        <time>2022-06-06T10:13:12Z</time>
      </trkpt>
      <trkpt lat="44.78984" lon="4.22516">
        <ele>1227</ele>
        <time>2022-06-06T10:13:15Z</time>
      </trkpt>
      <trkpt lat="44.78989" lon="4.22517">
        <ele>1228</ele>
        <time>2022-06-06T10:13:15Z</time>
      </trkpt>
      <trkpt lat="44.78991" lon="4.22517">
        <ele>1228</ele>
        <time>2022-06-06T10:13:16Z</time>
      </trkpt>
      <trkpt lat="44.79001" lon="4.22526">
        <ele>1230</ele>
        <time>2022-06-06T10:13:18Z</time>
      </trkpt>
      <trkpt lat="44.79007" lon="4.22517">
        <ele>1230</ele>
        <time>2022-06-06T10:13:19Z</time>
      </trkpt>
      <trkpt lat="44.79014" lon="4.22512">
        <ele>1229</ele>
        <time>2022-06-06T10:13:21Z</time>
      </trkpt>
      <trkpt lat="44.79023" lon="4.2251">
        <ele>1229</ele>
        <time>2022-06-06T10:13:22Z</time>
      </trkpt>
      <trkpt lat="44.79042" lon="4.22515">
        <ele>1230</ele>
        <time>2022-06-06T10:13:26Z</time>
      </trkpt>
      <trkpt lat="44.79061" lon="4.22522">
        <ele>1231</ele>
        <time>2022-06-06T10:13:29Z</time>
      </trkpt>
      <trkpt lat="44.79073" lon="4.22533">
        <ele>1232</ele>
        <time>2022-06-06T10:13:32Z</time>
      </trkpt>
      <trkpt lat="44.791" lon="4.22566">
        <ele>1235</ele>
        <time>2022-06-06T10:13:38Z</time>
      </trkpt>
      <trkpt lat="44.7913" lon="4.2259">
        <ele>1234</ele>
        <time>2022-06-06T10:13:44Z</time>
      </trkpt>
      <trkpt lat="44.79138" lon="4.22601">
        <ele>1234</ele>
        <time>2022-06-06T10:13:46Z</time>
      </trkpt>
      <trkpt lat="44.79143" lon="4.22612">
        <ele>1234</ele>
        <time>2022-06-06T10:13:48Z</time>
      </trkpt>
      <trkpt lat="44.79146" lon="4.22628">
        <ele>1236</ele>
        <time>2022-06-06T10:13:50Z</time>
      </trkpt>
      <trkpt lat="44.79149" lon="4.22647">
        <ele>1238</ele>
        <time>2022-06-06T10:13:53Z</time>
      </trkpt>
      <trkpt lat="44.79154" lon="4.22664">
        <ele>1239</ele>
        <time>2022-06-06T10:13:55Z</time>
      </trkpt>
      <trkpt lat="44.79173" lon="4.22707">
        <ele>1240</ele>
        <time>2022-06-06T10:14:01Z</time>
      </trkpt>
      <trkpt lat="44.79183" lon="4.22722">
        <ele>1240</ele>
        <time>2022-06-06T10:14:04Z</time>
      </trkpt>
      <trkpt lat="44.79193" lon="4.22729">
        <ele>1240</ele>
        <time>2022-06-06T10:14:06Z</time>
      </trkpt>
      <trkpt lat="44.79203" lon="4.22733">
        <ele>1239</ele>
        <time>2022-06-06T10:14:08Z</time>
      </trkpt>
      <trkpt lat="44.79215" lon="4.22733">
        <ele>1239</ele>
        <time>2022-06-06T10:14:10Z</time>
      </trkpt>
      <trkpt lat="44.79244" lon="4.22729">
        <ele>1237</ele>
        <time>2022-06-06T10:14:15Z</time>
      </trkpt>
      <trkpt lat="44.79282" lon="4.22727">
        <ele>1237</ele>
        <time>2022-06-06T10:14:22Z</time>
      </trkpt>
      <trkpt lat="44.79292" lon="4.22723">
        <ele>1237</ele>
        <time>2022-06-06T10:14:24Z</time>
      </trkpt>
      <trkpt lat="44.79316" lon="4.22706">
        <ele>1235</ele>
        <time>2022-06-06T10:14:29Z</time>
      </trkpt>
      <trkpt lat="44.7934" lon="4.22698">
        <ele>1236</ele>
        <time>2022-06-06T10:14:33Z</time>
      </trkpt>
      <trkpt lat="44.7935" lon="4.22692">
        <ele>1236</ele>
        <time>2022-06-06T10:14:35Z</time>
      </trkpt>
      <trkpt lat="44.79356" lon="4.22685">
        <ele>1236</ele>
        <time>2022-06-06T10:14:36Z</time>
      </trkpt>
      <trkpt lat="44.79371" lon="4.22653">
        <ele>1234</ele>
        <time>2022-06-06T10:14:41Z</time>
      </trkpt>
      <trkpt lat="44.79381" lon="4.22637">
        <ele>1234</ele>
        <time>2022-06-06T10:14:44Z</time>
      </trkpt>
      <trkpt lat="44.79396" lon="4.22622">
        <ele>1234</ele>
        <time>2022-06-06T10:14:47Z</time>
      </trkpt>
      <trkpt lat="44.79412" lon="4.2261">
        <ele>1234</ele>
        <time>2022-06-06T10:14:50Z</time>
      </trkpt>
      <trkpt lat="44.79438" lon="4.22597">
        <ele>1234</ele>
        <time>2022-06-06T10:14:55Z</time>
      </trkpt>
      <trkpt lat="44.79497" lon="4.22561">
        <ele>1234</ele>
        <time>2022-06-06T10:15:07Z</time>
      </trkpt>
      <trkpt lat="44.79567" lon="4.22531">
        <ele>1232</ele>
        <time>2022-06-06T10:15:20Z</time>
      </trkpt>
      <trkpt lat="44.79588" lon="4.22523">
        <ele>1232</ele>
        <time>2022-06-06T10:15:23Z</time>
      </trkpt>
      <trkpt lat="44.79601" lon="4.22513">
        <ele>1230</ele>
        <time>2022-06-06T10:15:26Z</time>
      </trkpt>
      <trkpt lat="44.79607" lon="4.22507">
        <ele>1230</ele>
        <time>2022-06-06T10:15:27Z</time>
      </trkpt>
      <trkpt lat="44.79622" lon="4.22478">
        <ele>1230</ele>
        <time>2022-06-06T10:15:32Z</time>
      </trkpt>
      <trkpt lat="44.79626" lon="4.22461">
        <ele>1230</ele>
        <time>2022-06-06T10:15:34Z</time>
      </trkpt>
      <trkpt lat="44.79646" lon="4.22321">
        <ele>1234</ele>
        <time>2022-06-06T10:15:52Z</time>
      </trkpt>
      <trkpt lat="44.7966" lon="4.22272">
        <ele>1235</ele>
        <time>2022-06-06T10:15:59Z</time>
      </trkpt>
      <trkpt lat="44.79672" lon="4.22243">
        <ele>1235</ele>
        <time>2022-06-06T10:16:03Z</time>
      </trkpt>
      <trkpt lat="44.79682" lon="4.22217">
        <ele>1236</ele>
        <time>2022-06-06T10:16:07Z</time>
      </trkpt>
      <trkpt lat="44.79685" lon="4.22209">
        <ele>1236</ele>
        <time>2022-06-06T10:16:08Z</time>
      </trkpt>
      <trkpt lat="44.79701" lon="4.22173">
        <ele>1237</ele>
        <time>2022-06-06T10:16:13Z</time>
      </trkpt>
      <trkpt lat="44.79728" lon="4.22116">
        <ele>1240</ele>
        <time>2022-06-06T10:16:22Z</time>
      </trkpt>
      <trkpt lat="44.79734" lon="4.22098">
        <ele>1240</ele>
        <time>2022-06-06T10:16:25Z</time>
      </trkpt>
      <trkpt lat="44.79749" lon="4.2202">
        <ele>1243</ele>
        <time>2022-06-06T10:16:35Z</time>
      </trkpt>
      <trkpt lat="44.79752" lon="4.22008">
        <ele>1243</ele>
        <time>2022-06-06T10:16:36Z</time>
      </trkpt>
      <trkpt lat="44.79761" lon="4.21969">
        <ele>1243</ele>
        <time>2022-06-06T10:16:42Z</time>
      </trkpt>
      <trkpt lat="44.79768" lon="4.21951">
        <ele>1244</ele>
        <time>2022-06-06T10:16:44Z</time>
      </trkpt>
      <trkpt lat="44.79779" lon="4.21934">
        <ele>1245</ele>
        <time>2022-06-06T10:16:47Z</time>
      </trkpt>
      <trkpt lat="44.79816" lon="4.2189">
        <ele>1248</ele>
        <time>2022-06-06T10:16:56Z</time>
      </trkpt>
      <trkpt lat="44.79851" lon="4.21833">
        <ele>1249</ele>
        <time>2022-06-06T10:17:05Z</time>
      </trkpt>
      <trkpt lat="44.79894" lon="4.21754">
        <ele>1250</ele>
        <time>2022-06-06T10:17:18Z</time>
      </trkpt>
      <trkpt lat="44.79906" lon="4.21736">
        <ele>1251</ele>
        <time>2022-06-06T10:17:21Z</time>
      </trkpt>
      <trkpt lat="44.79919" lon="4.21719">
        <ele>1251</ele>
        <time>2022-06-06T10:17:24Z</time>
      </trkpt>
      <trkpt lat="44.79936" lon="4.21703">
        <ele>1251</ele>
        <time>2022-06-06T10:17:28Z</time>
      </trkpt>
      <trkpt lat="44.7995" lon="4.21694">
        <ele>1251</ele>
        <time>2022-06-06T10:17:30Z</time>
      </trkpt>
      <trkpt lat="44.79962" lon="4.21693">
        <ele>1252</ele>
        <time>2022-06-06T10:17:33Z</time>
      </trkpt>
      <trkpt lat="44.79996" lon="4.21703">
        <ele>1253</ele>
        <time>2022-06-06T10:17:39Z</time>
      </trkpt>
      <trkpt lat="44.8001" lon="4.21705">
        <ele>1254</ele>
        <time>2022-06-06T10:17:41Z</time>
      </trkpt>
      <trkpt lat="44.80062" lon="4.21697">
        <ele>1256</ele>
        <time>2022-06-06T10:17:51Z</time>
      </trkpt>
      <trkpt lat="44.80075" lon="4.21692">
        <ele>1257</ele>
        <time>2022-06-06T10:17:53Z</time>
      </trkpt>
      <trkpt lat="44.80081" lon="4.21687">
        <ele>1257</ele>
        <time>2022-06-06T10:17:54Z</time>
      </trkpt>
      <trkpt lat="44.80089" lon="4.21673">
        <ele>1256</ele>
        <time>2022-06-06T10:17:56Z</time>
      </trkpt>
      <trkpt lat="44.8012" lon="4.21573">
        <ele>1259</ele>
        <time>2022-06-06T10:18:10Z</time>
      </trkpt>
      <trkpt lat="44.8015" lon="4.21484">
        <ele>1264</ele>
        <time>2022-06-06T10:18:23Z</time>
      </trkpt>
      <trkpt lat="44.80154" lon="4.2148">
        <ele>1264</ele>
        <time>2022-06-06T10:18:24Z</time>
      </trkpt>
      <trkpt lat="44.80487" lon="4.2121">
        <ele>1276</ele>
        <time>2022-06-06T10:19:32Z</time>
      </trkpt>
      <trkpt lat="44.8058" lon="4.21133">
        <ele>1281</ele>
        <time>2022-06-06T10:19:51Z</time>
      </trkpt>
      <trkpt lat="44.80617" lon="4.21108">
        <ele>1282</ele>
        <time>2022-06-06T10:19:58Z</time>
      </trkpt>
      <trkpt lat="44.80743" lon="4.21062">
        <ele>1291</ele>
        <time>2022-06-06T10:20:22Z</time>
      </trkpt>
      <trkpt lat="44.80835" lon="4.21024">
        <ele>1296</ele>
        <time>2022-06-06T10:20:39Z</time>
      </trkpt>
      <trkpt lat="44.80846" lon="4.21024">
        <ele>1297</ele>
        <time>2022-06-06T10:20:41Z</time>
      </trkpt>
      <trkpt lat="44.80833" lon="4.21044">
        <ele>1297</ele>
        <time>2022-06-06T10:20:44Z</time>
      </trkpt>
      <trkpt lat="44.80802" lon="4.21114">
        <ele>1298</ele>
        <time>2022-06-06T10:20:54Z</time>
      </trkpt>
      <trkpt lat="44.8077" lon="4.21234">
        <ele>1300</ele>
        <time>2022-06-06T10:21:11Z</time>
      </trkpt>
      <trkpt lat="44.80708" lon="4.21475">
        <ele>1299</ele>
        <time>2022-06-06T10:21:43Z</time>
      </trkpt>
      <trkpt lat="44.80687" lon="4.21568">
        <ele>1300</ele>
        <time>2022-06-06T10:21:55Z</time>
      </trkpt>
      <trkpt lat="44.80686" lon="4.21698">
        <ele>1303</ele>
        <time>2022-06-06T10:22:12Z</time>
      </trkpt>
      <trkpt lat="44.80681" lon="4.21744">
        <ele>1304</ele>
        <time>2022-06-06T10:22:18Z</time>
      </trkpt>
      <trkpt lat="44.80619" lon="4.22113">
        <ele>1304</ele>
        <time>2022-06-06T10:23:05Z</time>
      </trkpt>
      <trkpt lat="44.80617" lon="4.22155">
        <ele>1304</ele>
        <time>2022-06-06T10:23:11Z</time>
      </trkpt>
      <trkpt lat="44.80622" lon="4.22185">
        <ele>1305</ele>
        <time>2022-06-06T10:23:15Z</time>
      </trkpt>
      <trkpt lat="44.80631" lon="4.2221">
        <ele>1305</ele>
        <time>2022-06-06T10:23:18Z</time>
      </trkpt>
      <trkpt lat="44.80649" lon="4.22236">
        <ele>1305</ele>
        <time>2022-06-06T10:23:23Z</time>
      </trkpt>
      <trkpt lat="44.80702" lon="4.22294">
        <ele>1308</ele>
        <time>2022-06-06T10:23:35Z</time>
      </trkpt>
      <trkpt lat="44.80739" lon="4.22322">
        <ele>1310</ele>
        <time>2022-06-06T10:23:42Z</time>
      </trkpt>
      <trkpt lat="44.80796" lon="4.2248">
        <ele>1312</ele>
        <time>2022-06-06T10:24:05Z</time>
      </trkpt>
      <trkpt lat="44.8085" lon="4.2256">
        <ele>1313</ele>
        <time>2022-06-06T10:24:18Z</time>
      </trkpt>
      <trkpt lat="44.80874" lon="4.22585">
        <ele>1313</ele>
        <time>2022-06-06T10:24:24Z</time>
      </trkpt>
      <trkpt lat="44.80888" lon="4.22598">
        <ele>1314</ele>
        <time>2022-06-06T10:24:27Z</time>
      </trkpt>
      <trkpt lat="44.80905" lon="4.22609">
        <ele>1315</ele>
        <time>2022-06-06T10:24:30Z</time>
      </trkpt>
      <trkpt lat="44.80919" lon="4.22617">
        <ele>1316</ele>
        <time>2022-06-06T10:24:33Z</time>
      </trkpt>
      <trkpt lat="44.80999" lon="4.2266">
        <ele>1322</ele>
        <time>2022-06-06T10:24:48Z</time>
      </trkpt>
      <trkpt lat="44.81084" lon="4.22774">
        <ele>1325</ele>
        <time>2022-06-06T10:25:09Z</time>
      </trkpt>
      <trkpt lat="44.81091" lon="4.22783">
        <ele>1325</ele>
        <time>2022-06-06T10:25:11Z</time>
      </trkpt>
      <trkpt lat="44.81143" lon="4.22843">
        <ele>1326</ele>
        <time>2022-06-06T10:25:23Z</time>
      </trkpt>
      <trkpt lat="44.81228" lon="4.22892">
        <ele>1330</ele>
        <time>2022-06-06T10:25:39Z</time>
      </trkpt>
      <trkpt lat="44.81233" lon="4.22895">
        <ele>1330</ele>
        <time>2022-06-06T10:25:40Z</time>
      </trkpt>
      <trkpt lat="44.81281" lon="4.22926">
        <ele>1333</ele>
        <time>2022-06-06T10:25:49Z</time>
      </trkpt>
      <trkpt lat="44.81322" lon="4.22964">
        <ele>1336</ele>
        <time>2022-06-06T10:25:58Z</time>
      </trkpt>
      <trkpt lat="44.81367" lon="4.23043">
        <ele>1337</ele>
        <time>2022-06-06T10:26:11Z</time>
      </trkpt>
      <trkpt lat="44.81378" lon="4.23058">
        <ele>1338</ele>
        <time>2022-06-06T10:26:13Z</time>
      </trkpt>
      <trkpt lat="44.81511" lon="4.23239">
        <ele>1343</ele>
        <time>2022-06-06T10:26:46Z</time>
      </trkpt>
      <trkpt lat="44.81654" lon="4.23394">
        <ele>1353</ele>
        <time>2022-06-06T10:27:18Z</time>
      </trkpt>
      <trkpt lat="44.81724" lon="4.23494">
        <ele>1353</ele>
        <time>2022-06-06T10:27:36Z</time>
      </trkpt>
      <trkpt lat="44.81782" lon="4.2361">
        <ele>1357</ele>
        <time>2022-06-06T10:27:54Z</time>
      </trkpt>
      <trkpt lat="44.81852" lon="4.23756">
        <ele>1359</ele>
        <time>2022-06-06T10:28:16Z</time>
      </trkpt>
      <trkpt lat="44.81872" lon="4.23807">
        <ele>1361</ele>
        <time>2022-06-06T10:28:24Z</time>
      </trkpt>
      <trkpt lat="44.81883" lon="4.23844">
        <ele>1363</ele>
        <time>2022-06-06T10:28:29Z</time>
      </trkpt>
      <trkpt lat="44.81888" lon="4.23889">
        <ele>1364</ele>
        <time>2022-06-06T10:28:35Z</time>
      </trkpt>
      <trkpt lat="44.819" lon="4.24059">
        <ele>1369</ele>
        <time>2022-06-06T10:28:56Z</time>
      </trkpt>
      <trkpt lat="44.81907" lon="4.24162">
        <ele>1372</ele>
        <time>2022-06-06T10:29:09Z</time>
      </trkpt>
      <trkpt lat="44.81929" lon="4.24148">
        <ele>1371</ele>
        <time>2022-06-06T10:29:13Z</time>
      </trkpt>
      <trkpt lat="44.81965" lon="4.24109">
        <ele>1371</ele>
        <time>2022-06-06T10:29:22Z</time>
      </trkpt>
      <trkpt lat="44.82006" lon="4.24068">
        <ele>1371</ele>
        <time>2022-06-06T10:29:30Z</time>
      </trkpt>
      <trkpt lat="44.82066" lon="4.23993">
        <ele>1372</ele>
        <time>2022-06-06T10:29:45Z</time>
      </trkpt>
      <trkpt lat="44.82092" lon="4.23955">
        <ele>1373</ele>
        <time>2022-06-06T10:29:51Z</time>
      </trkpt>
      <trkpt lat="44.82115" lon="4.23913">
        <ele>1374</ele>
        <time>2022-06-06T10:29:58Z</time>
      </trkpt>
      <trkpt lat="44.82135" lon="4.23874">
        <ele>1375</ele>
        <time>2022-06-06T10:30:04Z</time>
      </trkpt>
      <trkpt lat="44.82161" lon="4.23819">
        <ele>1378</ele>
        <time>2022-06-06T10:30:12Z</time>
      </trkpt>
      <trkpt lat="44.82171" lon="4.23794">
        <ele>1379</ele>
        <time>2022-06-06T10:30:16Z</time>
      </trkpt>
      <trkpt lat="44.82177" lon="4.23778">
        <ele>1379</ele>
        <time>2022-06-06T10:30:18Z</time>
      </trkpt>
      <trkpt lat="44.82203" lon="4.23701">
        <ele>1382</ele>
        <time>2022-06-06T10:30:29Z</time>
      </trkpt>
      <trkpt lat="44.82253" lon="4.23526">
        <ele>1394</ele>
        <time>2022-06-06T10:30:53Z</time>
      </trkpt>
      <trkpt lat="44.82262" lon="4.23502">
        <ele>1397</ele>
        <time>2022-06-06T10:30:56Z</time>
      </trkpt>
      <trkpt lat="44.82293" lon="4.2343">
        <ele>1403</ele>
        <time>2022-06-06T10:31:07Z</time>
      </trkpt>
      <trkpt lat="44.82297" lon="4.23414">
        <ele>1404</ele>
        <time>2022-06-06T10:31:09Z</time>
      </trkpt>
      <trkpt lat="44.82304" lon="4.23354">
        <ele>1408</ele>
        <time>2022-06-06T10:31:17Z</time>
      </trkpt>
      <trkpt lat="44.82311" lon="4.2332">
        <ele>1410</ele>
        <time>2022-06-06T10:31:21Z</time>
      </trkpt>
      <trkpt lat="44.82356" lon="4.2306">
        <ele>1421</ele>
        <time>2022-06-06T10:31:55Z</time>
      </trkpt>
      <trkpt lat="44.82362" lon="4.23036">
        <ele>1422</ele>
        <time>2022-06-06T10:31:58Z</time>
      </trkpt>
      <trkpt lat="44.82381" lon="4.23002">
        <ele>1424</ele>
        <time>2022-06-06T10:32:04Z</time>
      </trkpt>
      <trkpt lat="44.82393" lon="4.22987">
        <ele>1425</ele>
        <time>2022-06-06T10:32:07Z</time>
      </trkpt>
      <trkpt lat="44.82406" lon="4.22973">
        <ele>1425</ele>
        <time>2022-06-06T10:32:10Z</time>
      </trkpt>
      <trkpt lat="44.82428" lon="4.22957">
        <ele>1427</ele>
        <time>2022-06-06T10:32:14Z</time>
      </trkpt>
      <trkpt lat="44.82436" lon="4.22951">
        <ele>1427</ele>
        <time>2022-06-06T10:32:16Z</time>
      </trkpt>
      <trkpt lat="44.82454" lon="4.22944">
        <ele>1428</ele>
        <time>2022-06-06T10:32:19Z</time>
      </trkpt>
      <trkpt lat="44.82715" lon="4.22873">
        <ele>1441</ele>
        <time>2022-06-06T10:33:06Z</time>
      </trkpt>
      <trkpt lat="44.82734" lon="4.22866">
        <ele>1442</ele>
        <time>2022-06-06T10:33:10Z</time>
      </trkpt>
      <trkpt lat="44.82784" lon="4.22839">
        <ele>1444</ele>
        <time>2022-06-06T10:33:19Z</time>
      </trkpt>
      <trkpt lat="44.82887" lon="4.22758">
        <ele>1448</ele>
        <time>2022-06-06T10:33:40Z</time>
      </trkpt>
      <trkpt lat="44.82918" lon="4.22735">
        <ele>1449</ele>
        <time>2022-06-06T10:33:46Z</time>
      </trkpt>
      <trkpt lat="44.83068" lon="4.22619">
        <ele>1451</ele>
        <time>2022-06-06T10:34:17Z</time>
      </trkpt>
      <trkpt lat="44.83093" lon="4.22604">
        <ele>1451</ele>
        <time>2022-06-06T10:34:22Z</time>
      </trkpt>
      <trkpt lat="44.83165" lon="4.22579">
        <ele>1447</ele>
        <time>2022-06-06T10:34:35Z</time>
      </trkpt>
      <trkpt lat="44.83212" lon="4.22565">
        <ele>1445</ele>
        <time>2022-06-06T10:34:43Z</time>
      </trkpt>
      <trkpt lat="44.83237" lon="4.22558">
        <ele>1444</ele>
        <time>2022-06-06T10:34:48Z</time>
      </trkpt>
      <trkpt lat="44.83315" lon="4.22542">
        <ele>1439</ele>
        <time>2022-06-06T10:35:02Z</time>
      </trkpt>
      <trkpt lat="44.83352" lon="4.22542">
        <ele>1436</ele>
        <time>2022-06-06T10:35:09Z</time>
      </trkpt>
      <trkpt lat="44.83367" lon="4.22545">
        <ele>1434</ele>
        <time>2022-06-06T10:35:11Z</time>
      </trkpt>
      <trkpt lat="44.8338" lon="4.22549">
        <ele>1433</ele>
        <time>2022-06-06T10:35:14Z</time>
      </trkpt>
      <trkpt lat="44.83398" lon="4.22561">
        <ele>1432</ele>
        <time>2022-06-06T10:35:17Z</time>
      </trkpt>
      <trkpt lat="44.83415" lon="4.22574">
        <ele>1432</ele>
        <time>2022-06-06T10:35:21Z</time>
      </trkpt>
      <trkpt lat="44.83456" lon="4.22615">
        <ele>1430</ele>
        <time>2022-06-06T10:35:30Z</time>
      </trkpt>
      <trkpt lat="44.83473" lon="4.22628">
        <ele>1429</ele>
        <time>2022-06-06T10:35:33Z</time>
      </trkpt>
      <trkpt lat="44.83483" lon="4.22633">
        <ele>1428</ele>
        <time>2022-06-06T10:35:35Z</time>
      </trkpt>
      <trkpt lat="44.83768" lon="4.22677">
        <ele>1411</ele>
        <time>2022-06-06T10:36:26Z</time>
      </trkpt>
      <trkpt lat="44.83806" lon="4.22681">
        <ele>1411</ele>
        <time>2022-06-06T10:36:33Z</time>
      </trkpt>
      <trkpt lat="44.83826" lon="4.22681">
        <ele>1412</ele>
        <time>2022-06-06T10:36:36Z</time>
      </trkpt>
      <trkpt lat="44.83838" lon="4.22681">
        <ele>1412</ele>
        <time>2022-06-06T10:36:38Z</time>
      </trkpt>
      <trkpt lat="44.83916" lon="4.22675">
        <ele>1414</ele>
        <time>2022-06-06T10:36:52Z</time>
      </trkpt>
      <trkpt lat="44.83935" lon="4.22671">
        <ele>1415</ele>
        <time>2022-06-06T10:36:56Z</time>
      </trkpt>
      <trkpt lat="44.83955" lon="4.22658">
        <ele>1415</ele>
        <time>2022-06-06T10:37:00Z</time>
      </trkpt>
      <trkpt lat="44.8397" lon="4.22638">
        <ele>1415</ele>
        <time>2022-06-06T10:37:03Z</time>
      </trkpt>
      <trkpt lat="44.84011" lon="4.2256">
        <ele>1416</ele>
        <time>2022-06-06T10:37:16Z</time>
      </trkpt>
      <trkpt lat="44.84081" lon="4.22427">
        <ele>1413</ele>
        <time>2022-06-06T10:37:36Z</time>
      </trkpt>
      <trkpt lat="44.84088" lon="4.2241">
        <ele>1413</ele>
        <time>2022-06-06T10:37:39Z</time>
      </trkpt>
      <trkpt lat="44.84097" lon="4.22418">
        <ele>1413</ele>
        <time>2022-06-06T10:37:41Z</time>
      </trkpt>
      <trkpt lat="44.84113" lon="4.22436">
        <ele>1413</ele>
        <time>2022-06-06T10:37:44Z</time>
      </trkpt>
      <trkpt lat="44.84131" lon="4.22462">
        <ele>1413</ele>
        <time>2022-06-06T10:37:49Z</time>
      </trkpt>
      <trkpt lat="44.84142" lon="4.22486">
        <ele>1414</ele>
        <time>2022-06-06T10:37:53Z</time>
      </trkpt>
      <trkpt lat="44.84162" lon="4.22558">
        <ele>1413</ele>
        <time>2022-06-06T10:38:02Z</time>
      </trkpt>
      <trkpt lat="44.84168" lon="4.22574">
        <ele>1413</ele>
        <time>2022-06-06T10:38:05Z</time>
      </trkpt>
      <trkpt lat="44.84177" lon="4.22587">
        <ele>1411</ele>
        <time>2022-06-06T10:38:07Z</time>
      </trkpt>
      <trkpt lat="44.84187" lon="4.22597">
        <ele>1410</ele>
        <time>2022-06-06T10:38:09Z</time>
      </trkpt>
      <trkpt lat="44.84197" lon="4.22606">
        <ele>1409</ele>
        <time>2022-06-06T10:38:11Z</time>
      </trkpt>
      <trkpt lat="44.84214" lon="4.22625">
        <ele>1408</ele>
        <time>2022-06-06T10:38:15Z</time>
      </trkpt>
      <trkpt lat="44.84253" lon="4.22674">
        <ele>1407</ele>
        <time>2022-06-06T10:38:24Z</time>
      </trkpt>
      <trkpt lat="44.84285" lon="4.22708">
        <ele>1406</ele>
        <time>2022-06-06T10:38:32Z</time>
      </trkpt>
      <trkpt lat="44.84327" lon="4.22758">
        <ele>1404</ele>
        <time>2022-06-06T10:38:41Z</time>
      </trkpt>
      <trkpt lat="44.8434" lon="4.22771">
        <ele>1402</ele>
        <time>2022-06-06T10:38:44Z</time>
      </trkpt>
      <trkpt lat="44.84351" lon="4.22778">
        <ele>1401</ele>
        <time>2022-06-06T10:38:46Z</time>
      </trkpt>
      <trkpt lat="44.84373" lon="4.2279">
        <ele>1400</ele>
        <time>2022-06-06T10:38:50Z</time>
      </trkpt>
      <trkpt lat="44.84385" lon="4.22799">
        <ele>1401</ele>
        <time>2022-06-06T10:38:53Z</time>
      </trkpt>
      <trkpt lat="44.84395" lon="4.22811">
        <ele>1402</ele>
        <time>2022-06-06T10:38:55Z</time>
      </trkpt>
      <trkpt lat="44.84404" lon="4.22827">
        <ele>1403</ele>
        <time>2022-06-06T10:38:58Z</time>
      </trkpt>
      <trkpt lat="44.84409" lon="4.22843">
        <ele>1404</ele>
        <time>2022-06-06T10:39:00Z</time>
      </trkpt>
      <trkpt lat="44.84411" lon="4.22854">
        <ele>1403</ele>
        <time>2022-06-06T10:39:01Z</time>
      </trkpt>
      <trkpt lat="44.84412" lon="4.22861">
        <ele>1403</ele>
        <time>2022-06-06T10:39:02Z</time>
      </trkpt>
      <trkpt lat="44.84412" lon="4.22904">
        <ele>1401</ele>
        <time>2022-06-06T10:39:08Z</time>
      </trkpt>
      <trkpt lat="44.84413" lon="4.22918">
        <ele>1400</ele>
        <time>2022-06-06T10:39:10Z</time>
      </trkpt>
      <trkpt lat="44.84418" lon="4.22941">
        <ele>1398</ele>
        <time>2022-06-06T10:39:13Z</time>
      </trkpt>
      <trkpt lat="44.84449" lon="4.23025">
        <ele>1389</ele>
        <time>2022-06-06T10:39:25Z</time>
      </trkpt>
      <trkpt lat="44.84454" lon="4.23034">
        <ele>1387</ele>
        <time>2022-06-06T10:39:26Z</time>
      </trkpt>
      <trkpt lat="44.84464" lon="4.23046">
        <ele>1385</ele>
        <time>2022-06-06T10:39:28Z</time>
      </trkpt>
      <trkpt lat="44.84483" lon="4.23055">
        <ele>1385</ele>
        <time>2022-06-06T10:39:32Z</time>
      </trkpt>
      <trkpt lat="44.84499" lon="4.23053">
        <ele>1388</ele>
        <time>2022-06-06T10:39:35Z</time>
      </trkpt>
      <trkpt lat="44.84522" lon="4.23044">
        <ele>1389</ele>
        <time>2022-06-06T10:39:39Z</time>
      </trkpt>
      <trkpt lat="44.8454" lon="4.23046">
        <ele>1386</ele>
        <time>2022-06-06T10:39:42Z</time>
      </trkpt>
      <trkpt lat="44.84549" lon="4.2305">
        <ele>1384</ele>
        <time>2022-06-06T10:39:44Z</time>
      </trkpt>
      <trkpt lat="44.84598" lon="4.23087">
        <ele>1375</ele>
        <time>2022-06-06T10:39:54Z</time>
      </trkpt>
      <trkpt lat="44.8461" lon="4.23099">
        <ele>1372</ele>
        <time>2022-06-06T10:39:56Z</time>
      </trkpt>
      <trkpt lat="44.84626" lon="4.2312">
        <ele>1369</ele>
        <time>2022-06-06T10:40:00Z</time>
      </trkpt>
      <trkpt lat="44.84631" lon="4.23134">
        <ele>1368</ele>
        <time>2022-06-06T10:40:02Z</time>
      </trkpt>
      <trkpt lat="44.8466" lon="4.23238">
        <ele>1362</ele>
        <time>2022-06-06T10:40:16Z</time>
      </trkpt>
      <trkpt lat="44.84667" lon="4.23252">
        <ele>1362</ele>
        <time>2022-06-06T10:40:19Z</time>
      </trkpt>
      <trkpt lat="44.84688" lon="4.23276">
        <ele>1359</ele>
        <time>2022-06-06T10:40:23Z</time>
      </trkpt>
      <trkpt lat="44.84702" lon="4.23287">
        <ele>1359</ele>
        <time>2022-06-06T10:40:26Z</time>
      </trkpt>
      <trkpt lat="44.8473" lon="4.23297">
        <ele>1359</ele>
        <time>2022-06-06T10:40:31Z</time>
      </trkpt>
      <trkpt lat="44.84742" lon="4.23297">
        <ele>1360</ele>
        <time>2022-06-06T10:40:33Z</time>
      </trkpt>
      <trkpt lat="44.84802" lon="4.23278">
        <ele>1357</ele>
        <time>2022-06-06T10:40:44Z</time>
      </trkpt>
      <trkpt lat="44.84833" lon="4.23271">
        <ele>1354</ele>
        <time>2022-06-06T10:40:50Z</time>
      </trkpt>
      <trkpt lat="44.84883" lon="4.23262">
        <ele>1348</ele>
        <time>2022-06-06T10:40:59Z</time>
      </trkpt>
      <trkpt lat="44.84944" lon="4.23255">
        <ele>1340</ele>
        <time>2022-06-06T10:41:10Z</time>
      </trkpt>
      <trkpt lat="44.84956" lon="4.23252">
        <ele>1339</ele>
        <time>2022-06-06T10:41:12Z</time>
      </trkpt>
      <trkpt lat="44.84968" lon="4.23247">
        <ele>1338</ele>
        <time>2022-06-06T10:41:14Z</time>
      </trkpt>
      <trkpt lat="44.84977" lon="4.23239">
        <ele>1337</ele>
        <time>2022-06-06T10:41:16Z</time>
      </trkpt>
      <trkpt lat="44.84989" lon="4.23225">
        <ele>1336</ele>
        <time>2022-06-06T10:41:19Z</time>
      </trkpt>
      <trkpt lat="44.84998" lon="4.23211">
        <ele>1336</ele>
        <time>2022-06-06T10:41:21Z</time>
      </trkpt>
      <trkpt lat="44.85004" lon="4.23195">
        <ele>1336</ele>
        <time>2022-06-06T10:41:24Z</time>
      </trkpt>
      <trkpt lat="44.85008" lon="4.23176">
        <ele>1337</ele>
        <time>2022-06-06T10:41:26Z</time>
      </trkpt>
      <trkpt lat="44.85009" lon="4.23147">
        <ele>1337</ele>
        <time>2022-06-06T10:41:30Z</time>
      </trkpt>
      <trkpt lat="44.85009" lon="4.23118">
        <ele>1336</ele>
        <time>2022-06-06T10:41:33Z</time>
      </trkpt>
      <trkpt lat="44.85005" lon="4.23089">
        <ele>1337</ele>
        <time>2022-06-06T10:41:37Z</time>
      </trkpt>
      <trkpt lat="44.84991" lon="4.23046">
        <ele>1331</ele>
        <time>2022-06-06T10:41:43Z</time>
      </trkpt>
      <trkpt lat="44.8499" lon="4.23038">
        <ele>1330</ele>
        <time>2022-06-06T10:41:44Z</time>
      </trkpt>
      <trkpt lat="44.84992" lon="4.2303">
        <ele>1328</ele>
        <time>2022-06-06T10:41:45Z</time>
      </trkpt>
      <trkpt lat="44.84998" lon="4.23026">
        <ele>1328</ele>
        <time>2022-06-06T10:41:46Z</time>
      </trkpt>
      <trkpt lat="44.85004" lon="4.23028">
        <ele>1327</ele>
        <time>2022-06-06T10:41:47Z</time>
      </trkpt>
      <trkpt lat="44.85009" lon="4.23032">
        <ele>1326</ele>
        <time>2022-06-06T10:41:48Z</time>
      </trkpt>
      <trkpt lat="44.85012" lon="4.23039">
        <ele>1327</ele>
        <time>2022-06-06T10:41:49Z</time>
      </trkpt>
      <trkpt lat="44.85027" lon="4.23097">
        <ele>1330</ele>
        <time>2022-06-06T10:41:57Z</time>
      </trkpt>
      <trkpt lat="44.85034" lon="4.23118">
        <ele>1330</ele>
        <time>2022-06-06T10:42:00Z</time>
      </trkpt>
      <trkpt lat="44.85042" lon="4.23133">
        <ele>1329</ele>
        <time>2022-06-06T10:42:03Z</time>
      </trkpt>
      <trkpt lat="44.85065" lon="4.23163">
        <ele>1327</ele>
        <time>2022-06-06T10:42:08Z</time>
      </trkpt>
      <trkpt lat="44.85079" lon="4.23185">
        <ele>1324</ele>
        <time>2022-06-06T10:42:12Z</time>
      </trkpt>
      <trkpt lat="44.85085" lon="4.232">
        <ele>1322</ele>
        <time>2022-06-06T10:42:14Z</time>
      </trkpt>
      <trkpt lat="44.8509" lon="4.23224">
        <ele>1319</ele>
        <time>2022-06-06T10:42:17Z</time>
      </trkpt>
      <trkpt lat="44.85091" lon="4.23238">
        <ele>1318</ele>
        <time>2022-06-06T10:42:19Z</time>
      </trkpt>
      <trkpt lat="44.85089" lon="4.23251">
        <ele>1319</ele>
        <time>2022-06-06T10:42:21Z</time>
      </trkpt>
      <trkpt lat="44.85083" lon="4.23263">
        <ele>1318</ele>
        <time>2022-06-06T10:42:23Z</time>
      </trkpt>
      <trkpt lat="44.85059" lon="4.23289">
        <ele>1316</ele>
        <time>2022-06-06T10:42:28Z</time>
      </trkpt>
      <trkpt lat="44.85033" lon="4.23325">
        <ele>1312</ele>
        <time>2022-06-06T10:42:34Z</time>
      </trkpt>
      <trkpt lat="44.85025" lon="4.23333">
        <ele>1312</ele>
        <time>2022-06-06T10:42:36Z</time>
      </trkpt>
      <trkpt lat="44.84959" lon="4.23382">
        <ele>1310</ele>
        <time>2022-06-06T10:42:49Z</time>
      </trkpt>
      <trkpt lat="44.84916" lon="4.23417">
        <ele>1309</ele>
        <time>2022-06-06T10:42:58Z</time>
      </trkpt>
      <trkpt lat="44.84903" lon="4.23435">
        <ele>1310</ele>
        <time>2022-06-06T10:43:01Z</time>
      </trkpt>
      <trkpt lat="44.84891" lon="4.23456">
        <ele>1310</ele>
        <time>2022-06-06T10:43:05Z</time>
      </trkpt>
      <trkpt lat="44.84887" lon="4.23471">
        <ele>1309</ele>
        <time>2022-06-06T10:43:07Z</time>
      </trkpt>
      <trkpt lat="44.84884" lon="4.2349">
        <ele>1308</ele>
        <time>2022-06-06T10:43:09Z</time>
      </trkpt>
      <trkpt lat="44.84883" lon="4.23511">
        <ele>1306</ele>
        <time>2022-06-06T10:43:12Z</time>
      </trkpt>
      <trkpt lat="44.84884" lon="4.23525">
        <ele>1305</ele>
        <time>2022-06-06T10:43:14Z</time>
      </trkpt>
      <trkpt lat="44.84905" lon="4.23614">
        <ele>1297</ele>
        <time>2022-06-06T10:43:26Z</time>
      </trkpt>
      <trkpt lat="44.84911" lon="4.23659">
        <ele>1295</ele>
        <time>2022-06-06T10:43:31Z</time>
      </trkpt>
      <trkpt lat="44.84913" lon="4.23691">
        <ele>1294</ele>
        <time>2022-06-06T10:43:35Z</time>
      </trkpt>
      <trkpt lat="44.84936" lon="4.23804">
        <ele>1284</ele>
        <time>2022-06-06T10:43:50Z</time>
      </trkpt>
      <trkpt lat="44.84938" lon="4.23818">
        <ele>1283</ele>
        <time>2022-06-06T10:43:52Z</time>
      </trkpt>
      <trkpt lat="44.84937" lon="4.23833">
        <ele>1284</ele>
        <time>2022-06-06T10:43:54Z</time>
      </trkpt>
      <trkpt lat="44.84927" lon="4.23921">
        <ele>1280</ele>
        <time>2022-06-06T10:44:05Z</time>
      </trkpt>
      <trkpt lat="44.84925" lon="4.23949">
        <ele>1281</ele>
        <time>2022-06-06T10:44:09Z</time>
      </trkpt>
      <trkpt lat="44.84927" lon="4.2399">
        <ele>1279</ele>
        <time>2022-06-06T10:44:14Z</time>
      </trkpt>
      <trkpt lat="44.8493" lon="4.24007">
        <ele>1278</ele>
        <time>2022-06-06T10:44:16Z</time>
      </trkpt>
      <trkpt lat="44.84937" lon="4.24023">
        <ele>1278</ele>
        <time>2022-06-06T10:44:19Z</time>
      </trkpt>
      <trkpt lat="44.84955" lon="4.2406">
        <ele>1277</ele>
        <time>2022-06-06T10:44:24Z</time>
      </trkpt>
      <trkpt lat="44.84963" lon="4.24072">
        <ele>1277</ele>
        <time>2022-06-06T10:44:26Z</time>
      </trkpt>
      <trkpt lat="44.84971" lon="4.2408">
        <ele>1276</ele>
        <time>2022-06-06T10:44:28Z</time>
      </trkpt>
      <trkpt lat="44.84988" lon="4.24085">
        <ele>1274</ele>
        <time>2022-06-06T10:44:31Z</time>
      </trkpt>
      <trkpt lat="44.85019" lon="4.24096">
        <ele>1271</ele>
        <time>2022-06-06T10:44:37Z</time>
      </trkpt>
      <trkpt lat="44.85058" lon="4.24106">
        <ele>1268</ele>
        <time>2022-06-06T10:44:44Z</time>
      </trkpt>
      <trkpt lat="44.85078" lon="4.24105">
        <ele>1265</ele>
        <time>2022-06-06T10:44:47Z</time>
      </trkpt>
      <trkpt lat="44.85088" lon="4.24103">
        <ele>1264</ele>
        <time>2022-06-06T10:44:49Z</time>
      </trkpt>
      <trkpt lat="44.85093" lon="4.24102">
        <ele>1263</ele>
        <time>2022-06-06T10:44:50Z</time>
      </trkpt>
      <trkpt lat="44.85121" lon="4.24091">
        <ele>1260</ele>
        <time>2022-06-06T10:44:55Z</time>
      </trkpt>
      <trkpt lat="44.85176" lon="4.24082">
        <ele>1254</ele>
        <time>2022-06-06T10:45:05Z</time>
      </trkpt>
      <trkpt lat="44.85183" lon="4.24086">
        <ele>1253</ele>
        <time>2022-06-06T10:45:06Z</time>
      </trkpt>
      <trkpt lat="44.85188" lon="4.24091">
        <ele>1253</ele>
        <time>2022-06-06T10:45:08Z</time>
      </trkpt>
      <trkpt lat="44.85193" lon="4.24098">
        <ele>1253</ele>
        <time>2022-06-06T10:45:09Z</time>
      </trkpt>
      <trkpt lat="44.85195" lon="4.2411">
        <ele>1255</ele>
        <time>2022-06-06T10:45:10Z</time>
      </trkpt>
      <trkpt lat="44.85205" lon="4.24187">
        <ele>1260</ele>
        <time>2022-06-06T10:45:20Z</time>
      </trkpt>
      <trkpt lat="44.85209" lon="4.24198">
        <ele>1259</ele>
        <time>2022-06-06T10:45:22Z</time>
      </trkpt>
      <trkpt lat="44.85215" lon="4.24208">
        <ele>1258</ele>
        <time>2022-06-06T10:45:23Z</time>
      </trkpt>
      <trkpt lat="44.85223" lon="4.24217">
        <ele>1256</ele>
        <time>2022-06-06T10:45:25Z</time>
      </trkpt>
      <trkpt lat="44.85258" lon="4.24247">
        <ele>1253</ele>
        <time>2022-06-06T10:45:33Z</time>
      </trkpt>
      <trkpt lat="44.85268" lon="4.24261">
        <ele>1250</ele>
        <time>2022-06-06T10:45:35Z</time>
      </trkpt>
      <trkpt lat="44.85302" lon="4.24315">
        <ele>1241</ele>
        <time>2022-06-06T10:45:44Z</time>
      </trkpt>
      <trkpt lat="44.85312" lon="4.24327">
        <ele>1239</ele>
        <time>2022-06-06T10:45:47Z</time>
      </trkpt>
      <trkpt lat="44.8533" lon="4.24337">
        <ele>1238</ele>
        <time>2022-06-06T10:45:50Z</time>
      </trkpt>
      <trkpt lat="44.8534" lon="4.24338">
        <ele>1237</ele>
        <time>2022-06-06T10:45:52Z</time>
      </trkpt>
      <trkpt lat="44.85387" lon="4.24316">
        <ele>1237</ele>
        <time>2022-06-06T10:46:01Z</time>
      </trkpt>
      <trkpt lat="44.85418" lon="4.24309">
        <ele>1235</ele>
        <time>2022-06-06T10:46:06Z</time>
      </trkpt>
      <trkpt lat="44.85449" lon="4.24307">
        <ele>1233</ele>
        <time>2022-06-06T10:46:12Z</time>
      </trkpt>
      <trkpt lat="44.85471" lon="4.2431">
        <ele>1231</ele>
        <time>2022-06-06T10:46:16Z</time>
      </trkpt>
      <trkpt lat="44.85491" lon="4.24315">
        <ele>1229</ele>
        <time>2022-06-06T10:46:19Z</time>
      </trkpt>
      <trkpt lat="44.85498" lon="4.24319">
        <ele>1228</ele>
        <time>2022-06-06T10:46:21Z</time>
      </trkpt>
      <trkpt lat="44.85501" lon="4.24324">
        <ele>1227</ele>
        <time>2022-06-06T10:46:21Z</time>
      </trkpt>
      <trkpt lat="44.85502" lon="4.24332">
        <ele>1226</ele>
        <time>2022-06-06T10:46:22Z</time>
      </trkpt>
      <trkpt lat="44.855" lon="4.24338">
        <ele>1225</ele>
        <time>2022-06-06T10:46:23Z</time>
      </trkpt>
      <trkpt lat="44.85497" lon="4.24342">
        <ele>1224</ele>
        <time>2022-06-06T10:46:24Z</time>
      </trkpt>
      <trkpt lat="44.85493" lon="4.24343">
        <ele>1223</ele>
        <time>2022-06-06T10:46:25Z</time>
      </trkpt>
      <trkpt lat="44.85474" lon="4.24331">
        <ele>1228</ele>
        <time>2022-06-06T10:46:28Z</time>
      </trkpt>
      <trkpt lat="44.85457" lon="4.24326">
        <ele>1230</ele>
        <time>2022-06-06T10:46:31Z</time>
      </trkpt>
      <trkpt lat="44.85448" lon="4.24328">
        <ele>1230</ele>
        <time>2022-06-06T10:46:33Z</time>
      </trkpt>
      <trkpt lat="44.85415" lon="4.2435">
        <ele>1227</ele>
        <time>2022-06-06T10:46:40Z</time>
      </trkpt>
      <trkpt lat="44.85399" lon="4.24362">
        <ele>1225</ele>
        <time>2022-06-06T10:46:43Z</time>
      </trkpt>
      <trkpt lat="44.8539" lon="4.24371">
        <ele>1223</ele>
        <time>2022-06-06T10:46:45Z</time>
      </trkpt>
      <trkpt lat="44.85357" lon="4.24432">
        <ele>1208</ele>
        <time>2022-06-06T10:46:54Z</time>
      </trkpt>
      <trkpt lat="44.8535" lon="4.24439">
        <ele>1207</ele>
        <time>2022-06-06T10:46:56Z</time>
      </trkpt>
      <trkpt lat="44.85343" lon="4.24443">
        <ele>1206</ele>
        <time>2022-06-06T10:46:57Z</time>
      </trkpt>
      <trkpt lat="44.85325" lon="4.24439">
        <ele>1209</ele>
        <time>2022-06-06T10:47:01Z</time>
      </trkpt>
      <trkpt lat="44.85291" lon="4.24425">
        <ele>1215</ele>
        <time>2022-06-06T10:47:07Z</time>
      </trkpt>
      <trkpt lat="44.85271" lon="4.2442">
        <ele>1218</ele>
        <time>2022-06-06T10:47:11Z</time>
      </trkpt>
      <trkpt lat="44.85265" lon="4.24422">
        <ele>1217</ele>
        <time>2022-06-06T10:47:12Z</time>
      </trkpt>
      <trkpt lat="44.85258" lon="4.24429">
        <ele>1216</ele>
        <time>2022-06-06T10:47:13Z</time>
      </trkpt>
      <trkpt lat="44.85251" lon="4.24445">
        <ele>1214</ele>
        <time>2022-06-06T10:47:15Z</time>
      </trkpt>
      <trkpt lat="44.85242" lon="4.24472">
        <ele>1212</ele>
        <time>2022-06-06T10:47:19Z</time>
      </trkpt>
      <trkpt lat="44.8524" lon="4.24478">
        <ele>1211</ele>
        <time>2022-06-06T10:47:20Z</time>
      </trkpt>
      <trkpt lat="44.85224" lon="4.24525">
        <ele>1209</ele>
        <time>2022-06-06T10:47:27Z</time>
      </trkpt>
      <trkpt lat="44.8522" lon="4.24544">
        <ele>1208</ele>
        <time>2022-06-06T10:47:29Z</time>
      </trkpt>
      <trkpt lat="44.85218" lon="4.24566">
        <ele>1205</ele>
        <time>2022-06-06T10:47:32Z</time>
      </trkpt>
      <trkpt lat="44.85216" lon="4.24604">
        <ele>1201</ele>
        <time>2022-06-06T10:47:37Z</time>
      </trkpt>
      <trkpt lat="44.85218" lon="4.24638">
        <ele>1198</ele>
        <time>2022-06-06T10:47:41Z</time>
      </trkpt>
      <trkpt lat="44.8522" lon="4.24657">
        <ele>1196</ele>
        <time>2022-06-06T10:47:44Z</time>
      </trkpt>
      <trkpt lat="44.85224" lon="4.24671">
        <ele>1193</ele>
        <time>2022-06-06T10:47:45Z</time>
      </trkpt>
      <trkpt lat="44.85226" lon="4.24678">
        <ele>1191</ele>
        <time>2022-06-06T10:47:46Z</time>
      </trkpt>
      <trkpt lat="44.85238" lon="4.24708">
        <ele>1186</ele>
        <time>2022-06-06T10:47:51Z</time>
      </trkpt>
      <trkpt lat="44.85275" lon="4.24782">
        <ele>1172</ele>
        <time>2022-06-06T10:48:02Z</time>
      </trkpt>
      <trkpt lat="44.85283" lon="4.24818">
        <ele>1169</ele>
        <time>2022-06-06T10:48:07Z</time>
      </trkpt>
      <trkpt lat="44.85287" lon="4.2485">
        <ele>1165</ele>
        <time>2022-06-06T10:48:11Z</time>
      </trkpt>
      <trkpt lat="44.85293" lon="4.24873">
        <ele>1162</ele>
        <time>2022-06-06T10:48:14Z</time>
      </trkpt>
      <trkpt lat="44.85322" lon="4.2493">
        <ele>1160</ele>
        <time>2022-06-06T10:48:23Z</time>
      </trkpt>
      <trkpt lat="44.85351" lon="4.25001">
        <ele>1156</ele>
        <time>2022-06-06T10:48:33Z</time>
      </trkpt>
      <trkpt lat="44.85388" lon="4.2507">
        <ele>1155</ele>
        <time>2022-06-06T10:48:44Z</time>
      </trkpt>
      <trkpt lat="44.85399" lon="4.25095">
        <ele>1157</ele>
        <time>2022-06-06T10:48:48Z</time>
      </trkpt>
      <trkpt lat="44.85411" lon="4.25125">
        <ele>1159</ele>
        <time>2022-06-06T10:48:52Z</time>
      </trkpt>
      <trkpt lat="44.85427" lon="4.25178">
        <ele>1155</ele>
        <time>2022-06-06T10:48:59Z</time>
      </trkpt>
      <trkpt lat="44.85431" lon="4.25217">
        <ele>1150</ele>
        <time>2022-06-06T10:49:04Z</time>
      </trkpt>
      <trkpt lat="44.8543" lon="4.25253">
        <ele>1147</ele>
        <time>2022-06-06T10:49:09Z</time>
      </trkpt>
      <trkpt lat="44.85427" lon="4.25268">
        <ele>1148</ele>
        <time>2022-06-06T10:49:11Z</time>
      </trkpt>
      <trkpt lat="44.85409" lon="4.25305">
        <ele>1150</ele>
        <time>2022-06-06T10:49:17Z</time>
      </trkpt>
      <trkpt lat="44.85406" lon="4.25322">
        <ele>1149</ele>
        <time>2022-06-06T10:49:19Z</time>
      </trkpt>
      <trkpt lat="44.85402" lon="4.25355">
        <ele>1145</ele>
        <time>2022-06-06T10:49:23Z</time>
      </trkpt>
      <trkpt lat="44.85396" lon="4.25395">
        <ele>1137</ele>
        <time>2022-06-06T10:49:28Z</time>
      </trkpt>
      <trkpt lat="44.8539" lon="4.25405">
        <ele>1135</ele>
        <time>2022-06-06T10:49:30Z</time>
      </trkpt>
      <trkpt lat="44.85376" lon="4.25419">
        <ele>1132</ele>
        <time>2022-06-06T10:49:33Z</time>
      </trkpt>
      <trkpt lat="44.85369" lon="4.2543">
        <ele>1130</ele>
        <time>2022-06-06T10:49:35Z</time>
      </trkpt>
      <trkpt lat="44.85367" lon="4.25443">
        <ele>1128</ele>
        <time>2022-06-06T10:49:36Z</time>
      </trkpt>
      <trkpt lat="44.85369" lon="4.25451">
        <ele>1127</ele>
        <time>2022-06-06T10:49:38Z</time>
      </trkpt>
      <trkpt lat="44.85373" lon="4.25455">
        <ele>1127</ele>
        <time>2022-06-06T10:49:38Z</time>
      </trkpt>
      <trkpt lat="44.85379" lon="4.25457">
        <ele>1127</ele>
        <time>2022-06-06T10:49:40Z</time>
      </trkpt>
      <trkpt lat="44.85384" lon="4.25457">
        <ele>1128</ele>
        <time>2022-06-06T10:49:40Z</time>
      </trkpt>
      <trkpt lat="44.8539" lon="4.25451">
        <ele>1129</ele>
        <time>2022-06-06T10:49:42Z</time>
      </trkpt>
      <trkpt lat="44.85425" lon="4.25328">
        <ele>1144</ele>
        <time>2022-06-06T10:49:58Z</time>
      </trkpt>
      <trkpt lat="44.8543" lon="4.25316">
        <ele>1143</ele>
        <time>2022-06-06T10:50:00Z</time>
      </trkpt>
      <trkpt lat="44.85449" lon="4.25291">
        <ele>1135</ele>
        <time>2022-06-06T10:50:05Z</time>
      </trkpt>
      <trkpt lat="44.85458" lon="4.2527">
        <ele>1132</ele>
        <time>2022-06-06T10:50:08Z</time>
      </trkpt>
      <trkpt lat="44.85464" lon="4.2523">
        <ele>1132</ele>
        <time>2022-06-06T10:50:13Z</time>
      </trkpt>
      <trkpt lat="44.85468" lon="4.25151">
        <ele>1133</ele>
        <time>2022-06-06T10:50:23Z</time>
      </trkpt>
      <trkpt lat="44.85468" lon="4.25139">
        <ele>1132</ele>
        <time>2022-06-06T10:50:25Z</time>
      </trkpt>
      <trkpt lat="44.85458" lon="4.25071">
        <ele>1133</ele>
        <time>2022-06-06T10:50:33Z</time>
      </trkpt>
      <trkpt lat="44.85445" lon="4.24974">
        <ele>1127</ele>
        <time>2022-06-06T10:50:46Z</time>
      </trkpt>
      <trkpt lat="44.85431" lon="4.24904">
        <ele>1123</ele>
        <time>2022-06-06T10:50:55Z</time>
      </trkpt>
      <trkpt lat="44.85418" lon="4.24857">
        <ele>1124</ele>
        <time>2022-06-06T10:51:01Z</time>
      </trkpt>
      <trkpt lat="44.85414" lon="4.24835">
        <ele>1123</ele>
        <time>2022-06-06T10:51:04Z</time>
      </trkpt>
      <trkpt lat="44.85411" lon="4.24814">
        <ele>1123</ele>
        <time>2022-06-06T10:51:07Z</time>
      </trkpt>
      <trkpt lat="44.85411" lon="4.24791">
        <ele>1122</ele>
        <time>2022-06-06T10:51:10Z</time>
      </trkpt>
      <trkpt lat="44.85413" lon="4.2474">
        <ele>1119</ele>
        <time>2022-06-06T10:51:16Z</time>
      </trkpt>
      <trkpt lat="44.85413" lon="4.24726">
        <ele>1120</ele>
        <time>2022-06-06T10:51:18Z</time>
      </trkpt>
      <trkpt lat="44.85411" lon="4.24716">
        <ele>1121</ele>
        <time>2022-06-06T10:51:19Z</time>
      </trkpt>
      <trkpt lat="44.85399" lon="4.24696">
        <ele>1127</ele>
        <time>2022-06-06T10:51:23Z</time>
      </trkpt>
      <trkpt lat="44.85395" lon="4.24685">
        <ele>1129</ele>
        <time>2022-06-06T10:51:24Z</time>
      </trkpt>
      <trkpt lat="44.85394" lon="4.24675">
        <ele>1129</ele>
        <time>2022-06-06T10:51:25Z</time>
      </trkpt>
      <trkpt lat="44.85396" lon="4.24667">
        <ele>1129</ele>
        <time>2022-06-06T10:51:27Z</time>
      </trkpt>
      <trkpt lat="44.85399" lon="4.24662">
        <ele>1129</ele>
        <time>2022-06-06T10:51:27Z</time>
      </trkpt>
      <trkpt lat="44.85406" lon="4.24657">
        <ele>1129</ele>
        <time>2022-06-06T10:51:29Z</time>
      </trkpt>
      <trkpt lat="44.85415" lon="4.24655">
        <ele>1126</ele>
        <time>2022-06-06T10:51:30Z</time>
      </trkpt>
      <trkpt lat="44.85439" lon="4.24657">
        <ele>1124</ele>
        <time>2022-06-06T10:51:35Z</time>
      </trkpt>
      <trkpt lat="44.85448" lon="4.24656">
        <ele>1124</ele>
        <time>2022-06-06T10:51:36Z</time>
      </trkpt>
      <trkpt lat="44.85481" lon="4.24643">
        <ele>1126</ele>
        <time>2022-06-06T10:51:42Z</time>
      </trkpt>
      <trkpt lat="44.85489" lon="4.24643">
        <ele>1125</ele>
        <time>2022-06-06T10:51:44Z</time>
      </trkpt>
      <trkpt lat="44.85496" lon="4.24646">
        <ele>1124</ele>
        <time>2022-06-06T10:51:45Z</time>
      </trkpt>
      <trkpt lat="44.85503" lon="4.24653">
        <ele>1122</ele>
        <time>2022-06-06T10:51:47Z</time>
      </trkpt>
      <trkpt lat="44.85532" lon="4.24703">
        <ele>1114</ele>
        <time>2022-06-06T10:51:55Z</time>
      </trkpt>
      <trkpt lat="44.85552" lon="4.24727">
        <ele>1112</ele>
        <time>2022-06-06T10:51:59Z</time>
      </trkpt>
      <trkpt lat="44.85581" lon="4.24766">
        <ele>1106</ele>
        <time>2022-06-06T10:52:07Z</time>
      </trkpt>
      <trkpt lat="44.85594" lon="4.24781">
        <ele>1103</ele>
        <time>2022-06-06T10:52:10Z</time>
      </trkpt>
      <trkpt lat="44.85633" lon="4.24804">
        <ele>1099</ele>
        <time>2022-06-06T10:52:17Z</time>
      </trkpt>
      <trkpt lat="44.85668" lon="4.24816">
        <ele>1098</ele>
        <time>2022-06-06T10:52:23Z</time>
      </trkpt>
      <trkpt lat="44.85763" lon="4.24844">
        <ele>1083</ele>
        <time>2022-06-06T10:52:41Z</time>
      </trkpt>
      <trkpt lat="44.85778" lon="4.24851">
        <ele>1081</ele>
        <time>2022-06-06T10:52:44Z</time>
      </trkpt>
      <trkpt lat="44.85788" lon="4.24859">
        <ele>1078</ele>
        <time>2022-06-06T10:52:46Z</time>
      </trkpt>
      <trkpt lat="44.85795" lon="4.24867">
        <ele>1077</ele>
        <time>2022-06-06T10:52:47Z</time>
      </trkpt>
      <trkpt lat="44.85802" lon="4.2488">
        <ele>1075</ele>
        <time>2022-06-06T10:52:49Z</time>
      </trkpt>
      <trkpt lat="44.85814" lon="4.24907">
        <ele>1072</ele>
        <time>2022-06-06T10:52:53Z</time>
      </trkpt>
      <trkpt lat="44.85848" lon="4.24972">
        <ele>1065</ele>
        <time>2022-06-06T10:53:03Z</time>
      </trkpt>
      <trkpt lat="44.85872" lon="4.25006">
        <ele>1064</ele>
        <time>2022-06-06T10:53:09Z</time>
      </trkpt>
      <trkpt lat="44.85877" lon="4.25018">
        <ele>1062</ele>
        <time>2022-06-06T10:53:11Z</time>
      </trkpt>
      <trkpt lat="44.85881" lon="4.25031">
        <ele>1061</ele>
        <time>2022-06-06T10:53:13Z</time>
      </trkpt>
      <trkpt lat="44.85888" lon="4.25068">
        <ele>1058</ele>
        <time>2022-06-06T10:53:18Z</time>
      </trkpt>
      <trkpt lat="44.8591" lon="4.25131">
        <ele>1061</ele>
        <time>2022-06-06T10:53:27Z</time>
      </trkpt>
      <trkpt lat="44.85912" lon="4.25142">
        <ele>1061</ele>
        <time>2022-06-06T10:53:28Z</time>
      </trkpt>
      <trkpt lat="44.85908" lon="4.25169">
        <ele>1057</ele>
        <time>2022-06-06T10:53:32Z</time>
      </trkpt>
      <trkpt lat="44.85904" lon="4.25243">
        <ele>1047</ele>
        <time>2022-06-06T10:53:41Z</time>
      </trkpt>
      <trkpt lat="44.85904" lon="4.25254">
        <ele>1045</ele>
        <time>2022-06-06T10:53:42Z</time>
      </trkpt>
      <trkpt lat="44.85907" lon="4.25264">
        <ele>1045</ele>
        <time>2022-06-06T10:53:44Z</time>
      </trkpt>
      <trkpt lat="44.85912" lon="4.25273">
        <ele>1045</ele>
        <time>2022-06-06T10:53:45Z</time>
      </trkpt>
      <trkpt lat="44.85919" lon="4.2528">
        <ele>1047</ele>
        <time>2022-06-06T10:53:47Z</time>
      </trkpt>
      <trkpt lat="44.85947" lon="4.25299">
        <ele>1050</ele>
        <time>2022-06-06T10:53:52Z</time>
      </trkpt>
      <trkpt lat="44.85961" lon="4.25311">
        <ele>1052</ele>
        <time>2022-06-06T10:53:55Z</time>
      </trkpt>
      <trkpt lat="44.8597" lon="4.25322">
        <ele>1053</ele>
        <time>2022-06-06T10:53:57Z</time>
      </trkpt>
      <trkpt lat="44.85978" lon="4.25339">
        <ele>1052</ele>
        <time>2022-06-06T10:54:00Z</time>
      </trkpt>
      <trkpt lat="44.85984" lon="4.25358">
        <ele>1051</ele>
        <time>2022-06-06T10:54:02Z</time>
      </trkpt>
      <trkpt lat="44.85989" lon="4.25382">
        <ele>1048</ele>
        <time>2022-06-06T10:54:06Z</time>
      </trkpt>
      <trkpt lat="44.85997" lon="4.25447">
        <ele>1040</ele>
        <time>2022-06-06T10:54:14Z</time>
      </trkpt>
      <trkpt lat="44.86019" lon="4.25551">
        <ele>1025</ele>
        <time>2022-06-06T10:54:28Z</time>
      </trkpt>
      <trkpt lat="44.86026" lon="4.25577">
        <ele>1022</ele>
        <time>2022-06-06T10:54:31Z</time>
      </trkpt>
      <trkpt lat="44.86054" lon="4.25662">
        <ele>1015</ele>
        <time>2022-06-06T10:54:43Z</time>
      </trkpt>
      <trkpt lat="44.86059" lon="4.25671">
        <ele>1015</ele>
        <time>2022-06-06T10:54:44Z</time>
      </trkpt>
      <trkpt lat="44.86066" lon="4.25676">
        <ele>1017</ele>
        <time>2022-06-06T10:54:46Z</time>
      </trkpt>
      <trkpt lat="44.86075" lon="4.25679">
        <ele>1019</ele>
        <time>2022-06-06T10:54:47Z</time>
      </trkpt>
      <trkpt lat="44.86084" lon="4.25677">
        <ele>1022</ele>
        <time>2022-06-06T10:54:49Z</time>
      </trkpt>
      <trkpt lat="44.86101" lon="4.25669">
        <ele>1019</ele>
        <time>2022-06-06T10:54:52Z</time>
      </trkpt>
      <trkpt lat="44.86116" lon="4.25656">
        <ele>1017</ele>
        <time>2022-06-06T10:54:55Z</time>
      </trkpt>
      <trkpt lat="44.86127" lon="4.25639">
        <ele>1017</ele>
        <time>2022-06-06T10:54:58Z</time>
      </trkpt>
      <trkpt lat="44.86139" lon="4.25577">
        <ele>1023</ele>
        <time>2022-06-06T10:55:06Z</time>
      </trkpt>
      <trkpt lat="44.86144" lon="4.25564">
        <ele>1023</ele>
        <time>2022-06-06T10:55:08Z</time>
      </trkpt>
      <trkpt lat="44.86158" lon="4.25524">
        <ele>1023</ele>
        <time>2022-06-06T10:55:14Z</time>
      </trkpt>
      <trkpt lat="44.86165" lon="4.25494">
        <ele>1024</ele>
        <time>2022-06-06T10:55:18Z</time>
      </trkpt>
      <trkpt lat="44.86167" lon="4.25452">
        <ele>1027</ele>
        <time>2022-06-06T10:55:23Z</time>
      </trkpt>
      <trkpt lat="44.86168" lon="4.25441">
        <ele>1027</ele>
        <time>2022-06-06T10:55:25Z</time>
      </trkpt>
      <trkpt lat="44.86173" lon="4.25433">
        <ele>1026</ele>
        <time>2022-06-06T10:55:26Z</time>
      </trkpt>
      <trkpt lat="44.86178" lon="4.2543">
        <ele>1025</ele>
        <time>2022-06-06T10:55:27Z</time>
      </trkpt>
      <trkpt lat="44.86183" lon="4.25432">
        <ele>1022</ele>
        <time>2022-06-06T10:55:28Z</time>
      </trkpt>
      <trkpt lat="44.86187" lon="4.25439">
        <ele>1020</ele>
        <time>2022-06-06T10:55:29Z</time>
      </trkpt>
      <trkpt lat="44.86189" lon="4.25447">
        <ele>1019</ele>
        <time>2022-06-06T10:55:30Z</time>
      </trkpt>
      <trkpt lat="44.86182" lon="4.25476">
        <ele>1019</ele>
        <time>2022-06-06T10:55:34Z</time>
      </trkpt>
      <trkpt lat="44.86165" lon="4.25533">
        <ele>1020</ele>
        <time>2022-06-06T10:55:42Z</time>
      </trkpt>
      <trkpt lat="44.86157" lon="4.25598">
        <ele>1015</ele>
        <time>2022-06-06T10:55:50Z</time>
      </trkpt>
      <trkpt lat="44.86151" lon="4.25683">
        <ele>1005</ele>
        <time>2022-06-06T10:56:01Z</time>
      </trkpt>
      <trkpt lat="44.86146" lon="4.25718">
        <ele>1003</ele>
        <time>2022-06-06T10:56:05Z</time>
      </trkpt>
      <trkpt lat="44.86138" lon="4.2576">
        <ele>1002</ele>
        <time>2022-06-06T10:56:11Z</time>
      </trkpt>
      <trkpt lat="44.86133" lon="4.25785">
        <ele>1001</ele>
        <time>2022-06-06T10:56:14Z</time>
      </trkpt>
      <trkpt lat="44.86132" lon="4.25793">
        <ele>1001</ele>
        <time>2022-06-06T10:56:15Z</time>
      </trkpt>
      <trkpt lat="44.8613" lon="4.25809">
        <ele>1001</ele>
        <time>2022-06-06T10:56:17Z</time>
      </trkpt>
      <trkpt lat="44.86119" lon="4.25864">
        <ele>1000</ele>
        <time>2022-06-06T10:56:24Z</time>
      </trkpt>
      <trkpt lat="44.86112" lon="4.2589">
        <ele>999</ele>
        <time>2022-06-06T10:56:28Z</time>
      </trkpt>
      <trkpt lat="44.86108" lon="4.25913">
        <ele>998</ele>
        <time>2022-06-06T10:56:31Z</time>
      </trkpt>
      <trkpt lat="44.86098" lon="4.25954">
        <ele>996</ele>
        <time>2022-06-06T10:56:36Z</time>
      </trkpt>
      <trkpt lat="44.86081" lon="4.25997">
        <ele>990</ele>
        <time>2022-06-06T10:56:43Z</time>
      </trkpt>
      <trkpt lat="44.86078" lon="4.26012">
        <ele>988</ele>
        <time>2022-06-06T10:56:44Z</time>
      </trkpt>
      <trkpt lat="44.86077" lon="4.26028">
        <ele>985</ele>
        <time>2022-06-06T10:56:47Z</time>
      </trkpt>
      <trkpt lat="44.86078" lon="4.26043">
        <ele>984</ele>
        <time>2022-06-06T10:56:48Z</time>
      </trkpt>
      <trkpt lat="44.86081" lon="4.26059">
        <ele>984</ele>
        <time>2022-06-06T10:56:50Z</time>
      </trkpt>
      <trkpt lat="44.86087" lon="4.26073">
        <ele>985</ele>
        <time>2022-06-06T10:56:53Z</time>
      </trkpt>
      <trkpt lat="44.86112" lon="4.26115">
        <ele>990</ele>
        <time>2022-06-06T10:56:59Z</time>
      </trkpt>
      <trkpt lat="44.86118" lon="4.26129">
        <ele>991</ele>
        <time>2022-06-06T10:57:02Z</time>
      </trkpt>
      <trkpt lat="44.86121" lon="4.26152">
        <ele>989</ele>
        <time>2022-06-06T10:57:04Z</time>
      </trkpt>
      <trkpt lat="44.86119" lon="4.26164">
        <ele>986</ele>
        <time>2022-06-06T10:57:06Z</time>
      </trkpt>
      <trkpt lat="44.86114" lon="4.26178">
        <ele>984</ele>
        <time>2022-06-06T10:57:08Z</time>
      </trkpt>
      <trkpt lat="44.86106" lon="4.26195">
        <ele>981</ele>
        <time>2022-06-06T10:57:11Z</time>
      </trkpt>
      <trkpt lat="44.86086" lon="4.26228">
        <ele>974</ele>
        <time>2022-06-06T10:57:16Z</time>
      </trkpt>
      <trkpt lat="44.86079" lon="4.26241">
        <ele>971</ele>
        <time>2022-06-06T10:57:18Z</time>
      </trkpt>
      <trkpt lat="44.86074" lon="4.26258">
        <ele>970</ele>
        <time>2022-06-06T10:57:20Z</time>
      </trkpt>
      <trkpt lat="44.86065" lon="4.26294">
        <ele>968</ele>
        <time>2022-06-06T10:57:25Z</time>
      </trkpt>
      <trkpt lat="44.86062" lon="4.26316">
        <ele>968</ele>
        <time>2022-06-06T10:57:28Z</time>
      </trkpt>
      <trkpt lat="44.8606" lon="4.26332">
        <ele>968</ele>
        <time>2022-06-06T10:57:30Z</time>
      </trkpt>
      <trkpt lat="44.86061" lon="4.26364">
        <ele>966</ele>
        <time>2022-06-06T10:57:34Z</time>
      </trkpt>
      <trkpt lat="44.86063" lon="4.26378">
        <ele>966</ele>
        <time>2022-06-06T10:57:36Z</time>
      </trkpt>
      <trkpt lat="44.86067" lon="4.26387">
        <ele>967</ele>
        <time>2022-06-06T10:57:37Z</time>
      </trkpt>
      <trkpt lat="44.86074" lon="4.26396">
        <ele>969</ele>
        <time>2022-06-06T10:57:39Z</time>
      </trkpt>
      <trkpt lat="44.86091" lon="4.26411">
        <ele>972</ele>
        <time>2022-06-06T10:57:43Z</time>
      </trkpt>
      <trkpt lat="44.86109" lon="4.26421">
        <ele>972</ele>
        <time>2022-06-06T10:57:46Z</time>
      </trkpt>
      <trkpt lat="44.86137" lon="4.26423">
        <ele>974</ele>
        <time>2022-06-06T10:57:51Z</time>
      </trkpt>
      <trkpt lat="44.86179" lon="4.26421">
        <ele>978</ele>
        <time>2022-06-06T10:57:58Z</time>
      </trkpt>
      <trkpt lat="44.86207" lon="4.26433">
        <ele>979</ele>
        <time>2022-06-06T10:58:04Z</time>
      </trkpt>
      <trkpt lat="44.86231" lon="4.26455">
        <ele>978</ele>
        <time>2022-06-06T10:58:09Z</time>
      </trkpt>
      <trkpt lat="44.86238" lon="4.26463">
        <ele>977</ele>
        <time>2022-06-06T10:58:10Z</time>
      </trkpt>
      <trkpt lat="44.86243" lon="4.26477">
        <ele>976</ele>
        <time>2022-06-06T10:58:12Z</time>
      </trkpt>
      <trkpt lat="44.86252" lon="4.26528">
        <ele>970</ele>
        <time>2022-06-06T10:58:19Z</time>
      </trkpt>
      <trkpt lat="44.86258" lon="4.26573">
        <ele>967</ele>
        <time>2022-06-06T10:58:25Z</time>
      </trkpt>
      <trkpt lat="44.86269" lon="4.26605">
        <ele>968</ele>
        <time>2022-06-06T10:58:29Z</time>
      </trkpt>
      <trkpt lat="44.86271" lon="4.26616">
        <ele>968</ele>
        <time>2022-06-06T10:58:31Z</time>
      </trkpt>
      <trkpt lat="44.86269" lon="4.26629">
        <ele>966</ele>
        <time>2022-06-06T10:58:32Z</time>
      </trkpt>
      <trkpt lat="44.86265" lon="4.26641">
        <ele>964</ele>
        <time>2022-06-06T10:58:34Z</time>
      </trkpt>
      <trkpt lat="44.86243" lon="4.26688">
        <ele>956</ele>
        <time>2022-06-06T10:58:41Z</time>
      </trkpt>
      <trkpt lat="44.86239" lon="4.26702">
        <ele>956</ele>
        <time>2022-06-06T10:58:43Z</time>
      </trkpt>
      <trkpt lat="44.86236" lon="4.26747">
        <ele>959</ele>
        <time>2022-06-06T10:58:49Z</time>
      </trkpt>
      <trkpt lat="44.86233" lon="4.2676">
        <ele>960</ele>
        <time>2022-06-06T10:58:50Z</time>
      </trkpt>
      <trkpt lat="44.86223" lon="4.26767">
        <ele>959</ele>
        <time>2022-06-06T10:58:52Z</time>
      </trkpt>
      <trkpt lat="44.86192" lon="4.26784">
        <ele>953</ele>
        <time>2022-06-06T10:58:58Z</time>
      </trkpt>
      <trkpt lat="44.86178" lon="4.26799">
        <ele>952</ele>
        <time>2022-06-06T10:59:01Z</time>
      </trkpt>
      <trkpt lat="44.86129" lon="4.26867">
        <ele>950</ele>
        <time>2022-06-06T10:59:14Z</time>
      </trkpt>
      <trkpt lat="44.86087" lon="4.26933">
        <ele>948</ele>
        <time>2022-06-06T10:59:25Z</time>
      </trkpt>
      <trkpt lat="44.86047" lon="4.27002">
        <ele>940</ele>
        <time>2022-06-06T10:59:36Z</time>
      </trkpt>
      <trkpt lat="44.86045" lon="4.27018">
        <ele>937</ele>
        <time>2022-06-06T10:59:38Z</time>
      </trkpt>
      <trkpt lat="44.86047" lon="4.27028">
        <ele>936</ele>
        <time>2022-06-06T10:59:40Z</time>
      </trkpt>
      <trkpt lat="44.86052" lon="4.27037">
        <ele>937</ele>
        <time>2022-06-06T10:59:41Z</time>
      </trkpt>
      <trkpt lat="44.86069" lon="4.27053">
        <ele>940</ele>
        <time>2022-06-06T10:59:45Z</time>
      </trkpt>
      <trkpt lat="44.86075" lon="4.27064">
        <ele>940</ele>
        <time>2022-06-06T10:59:46Z</time>
      </trkpt>
      <trkpt lat="44.86082" lon="4.2708">
        <ele>940</ele>
        <time>2022-06-06T10:59:49Z</time>
      </trkpt>
      <trkpt lat="44.86089" lon="4.27104">
        <ele>940</ele>
        <time>2022-06-06T10:59:52Z</time>
      </trkpt>
      <trkpt lat="44.86092" lon="4.27121">
        <ele>939</ele>
        <time>2022-06-06T10:59:54Z</time>
      </trkpt>
      <trkpt lat="44.86093" lon="4.27153">
        <ele>934</ele>
        <time>2022-06-06T10:59:58Z</time>
      </trkpt>
      <trkpt lat="44.86099" lon="4.2722">
        <ele>932</ele>
        <time>2022-06-06T11:00:07Z</time>
      </trkpt>
      <trkpt lat="44.86093" lon="4.2731">
        <ele>925</ele>
        <time>2022-06-06T11:00:18Z</time>
      </trkpt>
      <trkpt lat="44.86096" lon="4.27361">
        <ele>921</ele>
        <time>2022-06-06T11:00:25Z</time>
      </trkpt>
      <trkpt lat="44.86098" lon="4.27373">
        <ele>920</ele>
        <time>2022-06-06T11:00:26Z</time>
      </trkpt>
      <trkpt lat="44.86102" lon="4.27379">
        <ele>919</ele>
        <time>2022-06-06T11:00:27Z</time>
      </trkpt>
      <trkpt lat="44.8611" lon="4.27383">
        <ele>920</ele>
        <time>2022-06-06T11:00:29Z</time>
      </trkpt>
      <trkpt lat="44.86165" lon="4.27377">
        <ele>928</ele>
        <time>2022-06-06T11:00:39Z</time>
      </trkpt>
      <trkpt lat="44.862" lon="4.27383">
        <ele>930</ele>
        <time>2022-06-06T11:00:45Z</time>
      </trkpt>
      <trkpt lat="44.86209" lon="4.27387">
        <ele>930</ele>
        <time>2022-06-06T11:00:46Z</time>
      </trkpt>
      <trkpt lat="44.86213" lon="4.27398">
        <ele>927</ele>
        <time>2022-06-06T11:00:48Z</time>
      </trkpt>
      <trkpt lat="44.86215" lon="4.27413">
        <ele>923</ele>
        <time>2022-06-06T11:00:50Z</time>
      </trkpt>
      <trkpt lat="44.86213" lon="4.27437">
        <ele>919</ele>
        <time>2022-06-06T11:00:53Z</time>
      </trkpt>
      <trkpt lat="44.8621" lon="4.27453">
        <ele>916</ele>
        <time>2022-06-06T11:00:55Z</time>
      </trkpt>
      <trkpt lat="44.8621" lon="4.27464">
        <ele>914</ele>
        <time>2022-06-06T11:00:56Z</time>
      </trkpt>
      <trkpt lat="44.86221" lon="4.27506">
        <ele>911</ele>
        <time>2022-06-06T11:01:02Z</time>
      </trkpt>
      <trkpt lat="44.86222" lon="4.27528">
        <ele>909</ele>
        <time>2022-06-06T11:01:05Z</time>
      </trkpt>
      <trkpt lat="44.86217" lon="4.27603">
        <ele>896</ele>
        <time>2022-06-06T11:01:14Z</time>
      </trkpt>
      <trkpt lat="44.86221" lon="4.27624">
        <ele>894</ele>
        <time>2022-06-06T11:01:17Z</time>
      </trkpt>
      <trkpt lat="44.86229" lon="4.27635">
        <ele>894</ele>
        <time>2022-06-06T11:01:19Z</time>
      </trkpt>
      <trkpt lat="44.86237" lon="4.27642">
        <ele>895</ele>
        <time>2022-06-06T11:01:21Z</time>
      </trkpt>
      <trkpt lat="44.86276" lon="4.27654">
        <ele>894</ele>
        <time>2022-06-06T11:01:28Z</time>
      </trkpt>
      <trkpt lat="44.86287" lon="4.27655">
        <ele>893</ele>
        <time>2022-06-06T11:01:30Z</time>
      </trkpt>
      <trkpt lat="44.86306" lon="4.27652">
        <ele>892</ele>
        <time>2022-06-06T11:01:33Z</time>
      </trkpt>
      <trkpt lat="44.86317" lon="4.27646">
        <ele>892</ele>
        <time>2022-06-06T11:01:35Z</time>
      </trkpt>
      <trkpt lat="44.86327" lon="4.27638">
        <ele>893</ele>
        <time>2022-06-06T11:01:37Z</time>
      </trkpt>
      <trkpt lat="44.86341" lon="4.27621">
        <ele>893</ele>
        <time>2022-06-06T11:01:41Z</time>
      </trkpt>
      <trkpt lat="44.86355" lon="4.27599">
        <ele>894</ele>
        <time>2022-06-06T11:01:44Z</time>
      </trkpt>
      <trkpt lat="44.86375" lon="4.2758">
        <ele>893</ele>
        <time>2022-06-06T11:01:49Z</time>
      </trkpt>
      <trkpt lat="44.86387" lon="4.27571">
        <ele>891</ele>
        <time>2022-06-06T11:01:51Z</time>
      </trkpt>
      <trkpt lat="44.86404" lon="4.27551">
        <ele>890</ele>
        <time>2022-06-06T11:01:55Z</time>
      </trkpt>
      <trkpt lat="44.86416" lon="4.2754">
        <ele>888</ele>
        <time>2022-06-06T11:01:58Z</time>
      </trkpt>
      <trkpt lat="44.86435" lon="4.27533">
        <ele>888</ele>
        <time>2022-06-06T11:02:01Z</time>
      </trkpt>
      <trkpt lat="44.86469" lon="4.27522">
        <ele>887</ele>
        <time>2022-06-06T11:02:07Z</time>
      </trkpt>
      <trkpt lat="44.86494" lon="4.27504">
        <ele>888</ele>
        <time>2022-06-06T11:02:12Z</time>
      </trkpt>
      <trkpt lat="44.86497" lon="4.27508">
        <ele>887</ele>
        <time>2022-06-06T11:02:13Z</time>
      </trkpt>
      <trkpt lat="44.86542" lon="4.27496">
        <ele>886</ele>
        <time>2022-06-06T11:02:21Z</time>
      </trkpt>
      <trkpt lat="44.86601" lon="4.27487">
        <ele>884</ele>
        <time>2022-06-06T11:02:32Z</time>
      </trkpt>
      <trkpt lat="44.86623" lon="4.27486">
        <ele>883</ele>
        <time>2022-06-06T11:02:36Z</time>
      </trkpt>
      <trkpt lat="44.86692" lon="4.27474">
        <ele>883</ele>
        <time>2022-06-06T11:02:48Z</time>
      </trkpt>
      <trkpt lat="44.86772" lon="4.27466">
        <ele>884</ele>
        <time>2022-06-06T11:03:02Z</time>
      </trkpt>
      <trkpt lat="44.86833" lon="4.27474">
        <ele>880</ele>
        <time>2022-06-06T11:03:13Z</time>
      </trkpt>
      <trkpt lat="44.86853" lon="4.2747">
        <ele>882</ele>
        <time>2022-06-06T11:03:17Z</time>
      </trkpt>
      <trkpt lat="44.86873" lon="4.27459">
        <ele>887</ele>
        <time>2022-06-06T11:03:21Z</time>
      </trkpt>
      <trkpt lat="44.86884" lon="4.27455">
        <ele>889</ele>
        <time>2022-06-06T11:03:23Z</time>
      </trkpt>
      <trkpt lat="44.86902" lon="4.27456">
        <ele>889</ele>
        <time>2022-06-06T11:03:26Z</time>
      </trkpt>
      <trkpt lat="44.86947" lon="4.27475">
        <ele>883</ele>
        <time>2022-06-06T11:03:34Z</time>
      </trkpt>
      <trkpt lat="44.86992" lon="4.27486">
        <ele>881</ele>
        <time>2022-06-06T11:03:42Z</time>
      </trkpt>
      <trkpt lat="44.87001" lon="4.27491">
        <ele>881</ele>
        <time>2022-06-06T11:03:44Z</time>
      </trkpt>
      <trkpt lat="44.87064" lon="4.27542">
        <ele>879</ele>
        <time>2022-06-06T11:03:57Z</time>
      </trkpt>
      <trkpt lat="44.87073" lon="4.27547">
        <ele>880</ele>
        <time>2022-06-06T11:03:59Z</time>
      </trkpt>
      <trkpt lat="44.87108" lon="4.27556">
        <ele>882</ele>
        <time>2022-06-06T11:04:05Z</time>
      </trkpt>
      <trkpt lat="44.87118" lon="4.27561">
        <ele>882</ele>
        <time>2022-06-06T11:04:07Z</time>
      </trkpt>
      <trkpt lat="44.87137" lon="4.27575">
        <ele>881</ele>
        <time>2022-06-06T11:04:11Z</time>
      </trkpt>
      <trkpt lat="44.87158" lon="4.27584">
        <ele>882</ele>
        <time>2022-06-06T11:04:15Z</time>
      </trkpt>
      <trkpt lat="44.87169" lon="4.27594">
        <ele>881</ele>
        <time>2022-06-06T11:04:17Z</time>
      </trkpt>
      <trkpt lat="44.87182" lon="4.27613">
        <ele>879</ele>
        <time>2022-06-06T11:04:20Z</time>
      </trkpt>
      <trkpt lat="44.87214" lon="4.27673">
        <ele>873</ele>
        <time>2022-06-06T11:04:30Z</time>
      </trkpt>
      <trkpt lat="44.87229" lon="4.27709">
        <ele>873</ele>
        <time>2022-06-06T11:04:35Z</time>
      </trkpt>
      <trkpt lat="44.87237" lon="4.27725">
        <ele>873</ele>
        <time>2022-06-06T11:04:38Z</time>
      </trkpt>
      <trkpt lat="44.87241" lon="4.27731">
        <ele>874</ele>
        <time>2022-06-06T11:04:39Z</time>
      </trkpt>
      <trkpt lat="44.87249" lon="4.27732">
        <ele>875</ele>
        <time>2022-06-06T11:04:40Z</time>
      </trkpt>
      <trkpt lat="44.87257" lon="4.27727">
        <ele>875</ele>
        <time>2022-06-06T11:04:42Z</time>
      </trkpt>
      <trkpt lat="44.87263" lon="4.2772">
        <ele>875</ele>
        <time>2022-06-06T11:04:43Z</time>
      </trkpt>
      <trkpt lat="44.87266" lon="4.27709">
        <ele>875</ele>
        <time>2022-06-06T11:04:44Z</time>
      </trkpt>
      <trkpt lat="44.87272" lon="4.27668">
        <ele>875</ele>
        <time>2022-06-06T11:04:50Z</time>
      </trkpt>
      <trkpt lat="44.87283" lon="4.27645">
        <ele>877</ele>
        <time>2022-06-06T11:04:53Z</time>
      </trkpt>
      <trkpt lat="44.87291" lon="4.27636">
        <ele>878</ele>
        <time>2022-06-06T11:04:55Z</time>
      </trkpt>
      <trkpt lat="44.87306" lon="4.27627">
        <ele>877</ele>
        <time>2022-06-06T11:04:58Z</time>
      </trkpt>
      <trkpt lat="44.87335" lon="4.27614">
        <ele>873</ele>
        <time>2022-06-06T11:05:03Z</time>
      </trkpt>
      <trkpt lat="44.87345" lon="4.27608">
        <ele>871</ele>
        <time>2022-06-06T11:05:05Z</time>
      </trkpt>
      <trkpt lat="44.8735" lon="4.27599">
        <ele>871</ele>
        <time>2022-06-06T11:05:07Z</time>
      </trkpt>
      <trkpt lat="44.87351" lon="4.2759">
        <ele>871</ele>
        <time>2022-06-06T11:05:08Z</time>
      </trkpt>
      <trkpt lat="44.87348" lon="4.2757">
        <ele>873</ele>
        <time>2022-06-06T11:05:10Z</time>
      </trkpt>
      <trkpt lat="44.8734" lon="4.27549">
        <ele>875</ele>
        <time>2022-06-06T11:05:13Z</time>
      </trkpt>
      <trkpt lat="44.87335" lon="4.2753">
        <ele>877</ele>
        <time>2022-06-06T11:05:16Z</time>
      </trkpt>
      <trkpt lat="44.87329" lon="4.27444">
        <ele>877</ele>
        <time>2022-06-06T11:05:27Z</time>
      </trkpt>
      <trkpt lat="44.87322" lon="4.27394">
        <ele>878</ele>
        <time>2022-06-06T11:05:33Z</time>
      </trkpt>
      <trkpt lat="44.87318" lon="4.27344">
        <ele>878</ele>
        <time>2022-06-06T11:05:40Z</time>
      </trkpt>
      <trkpt lat="44.87318" lon="4.27307">
        <ele>882</ele>
        <time>2022-06-06T11:05:44Z</time>
      </trkpt>
      <trkpt lat="44.87321" lon="4.27297">
        <ele>882</ele>
        <time>2022-06-06T11:05:46Z</time>
      </trkpt>
      <trkpt lat="44.8733" lon="4.27291">
        <ele>880</ele>
        <time>2022-06-06T11:05:47Z</time>
      </trkpt>
      <trkpt lat="44.87358" lon="4.2729">
        <ele>870</ele>
        <time>2022-06-06T11:05:52Z</time>
      </trkpt>
      <trkpt lat="44.87376" lon="4.27285">
        <ele>865</ele>
        <time>2022-06-06T11:05:56Z</time>
      </trkpt>
      <trkpt lat="44.87405" lon="4.27282">
        <ele>855</ele>
        <time>2022-06-06T11:06:01Z</time>
      </trkpt>
      <trkpt lat="44.87419" lon="4.27277">
        <ele>851</ele>
        <time>2022-06-06T11:06:03Z</time>
      </trkpt>
      <trkpt lat="44.87427" lon="4.27268">
        <ele>850</ele>
        <time>2022-06-06T11:06:05Z</time>
      </trkpt>
      <trkpt lat="44.87429" lon="4.27256">
        <ele>851</ele>
        <time>2022-06-06T11:06:07Z</time>
      </trkpt>
      <trkpt lat="44.87424" lon="4.27101">
        <ele>858</ele>
        <time>2022-06-06T11:06:26Z</time>
      </trkpt>
      <trkpt lat="44.87423" lon="4.26982">
        <ele>850</ele>
        <time>2022-06-06T11:06:41Z</time>
      </trkpt>
      <trkpt lat="44.87417" lon="4.2694">
        <ele>848</ele>
        <time>2022-06-06T11:06:47Z</time>
      </trkpt>
      <trkpt lat="44.8741" lon="4.26905">
        <ele>849</ele>
        <time>2022-06-06T11:06:51Z</time>
      </trkpt>
      <trkpt lat="44.87393" lon="4.26861">
        <ele>853</ele>
        <time>2022-06-06T11:06:58Z</time>
      </trkpt>
      <trkpt lat="44.87385" lon="4.26849">
        <ele>856</ele>
        <time>2022-06-06T11:07:00Z</time>
      </trkpt>
      <trkpt lat="44.87382" lon="4.26842">
        <ele>857</ele>
        <time>2022-06-06T11:07:01Z</time>
      </trkpt>
      <trkpt lat="44.87383" lon="4.26833">
        <ele>856</ele>
        <time>2022-06-06T11:07:02Z</time>
      </trkpt>
      <trkpt lat="44.87387" lon="4.26828">
        <ele>855</ele>
        <time>2022-06-06T11:07:03Z</time>
      </trkpt>
      <trkpt lat="44.87427" lon="4.26803">
        <ele>845</ele>
        <time>2022-06-06T11:07:11Z</time>
      </trkpt>
      <trkpt lat="44.87448" lon="4.26774">
        <ele>843</ele>
        <time>2022-06-06T11:07:16Z</time>
      </trkpt>
      <trkpt lat="44.87487" lon="4.26699">
        <ele>841</ele>
        <time>2022-06-06T11:07:28Z</time>
      </trkpt>
      <trkpt lat="44.8754" lon="4.2664">
        <ele>834</ele>
        <time>2022-06-06T11:07:40Z</time>
      </trkpt>
      <trkpt lat="44.87552" lon="4.26619">
        <ele>833</ele>
        <time>2022-06-06T11:07:43Z</time>
      </trkpt>
      <trkpt lat="44.87563" lon="4.26609">
        <ele>832</ele>
        <time>2022-06-06T11:07:45Z</time>
      </trkpt>
      <trkpt lat="44.87577" lon="4.26605">
        <ele>829</ele>
        <time>2022-06-06T11:07:48Z</time>
      </trkpt>
      <trkpt lat="44.87596" lon="4.26602">
        <ele>823</ele>
        <time>2022-06-06T11:07:51Z</time>
      </trkpt>
      <trkpt lat="44.87605" lon="4.26598">
        <ele>821</ele>
        <time>2022-06-06T11:07:53Z</time>
      </trkpt>
      <trkpt lat="44.87622" lon="4.26576">
        <ele>818</ele>
        <time>2022-06-06T11:07:57Z</time>
      </trkpt>
      <trkpt lat="44.87645" lon="4.26527">
        <ele>816</ele>
        <time>2022-06-06T11:08:05Z</time>
      </trkpt>
      <trkpt lat="44.87661" lon="4.26477">
        <ele>815</ele>
        <time>2022-06-06T11:08:11Z</time>
      </trkpt>
      <trkpt lat="44.87669" lon="4.26445">
        <ele>815</ele>
        <time>2022-06-06T11:08:16Z</time>
      </trkpt>
      <trkpt lat="44.87672" lon="4.26419">
        <ele>816</ele>
        <time>2022-06-06T11:08:19Z</time>
      </trkpt>
      <trkpt lat="44.87672" lon="4.26399">
        <ele>814</ele>
        <time>2022-06-06T11:08:22Z</time>
      </trkpt>
      <trkpt lat="44.87669" lon="4.26381">
        <ele>812</ele>
        <time>2022-06-06T11:08:24Z</time>
      </trkpt>
      <trkpt lat="44.87664" lon="4.26367">
        <ele>811</ele>
        <time>2022-06-06T11:08:26Z</time>
      </trkpt>
      <trkpt lat="44.87654" lon="4.26346">
        <ele>812</ele>
        <time>2022-06-06T11:08:29Z</time>
      </trkpt>
      <trkpt lat="44.87652" lon="4.26336">
        <ele>811</ele>
        <time>2022-06-06T11:08:30Z</time>
      </trkpt>
      <trkpt lat="44.8765" lon="4.26329">
        <ele>810</ele>
        <time>2022-06-06T11:08:31Z</time>
      </trkpt>
      <trkpt lat="44.87646" lon="4.26322">
        <ele>810</ele>
        <time>2022-06-06T11:08:32Z</time>
      </trkpt>
      <trkpt lat="44.87603" lon="4.26284">
        <ele>815</ele>
        <time>2022-06-06T11:08:41Z</time>
      </trkpt>
      <trkpt lat="44.87596" lon="4.26276">
        <ele>814</ele>
        <time>2022-06-06T11:08:43Z</time>
      </trkpt>
      <trkpt lat="44.87592" lon="4.26268">
        <ele>813</ele>
        <time>2022-06-06T11:08:44Z</time>
      </trkpt>
      <trkpt lat="44.87578" lon="4.26227">
        <ele>809</ele>
        <time>2022-06-06T11:08:50Z</time>
      </trkpt>
      <trkpt lat="44.87565" lon="4.26183">
        <ele>807</ele>
        <time>2022-06-06T11:08:56Z</time>
      </trkpt>
      <trkpt lat="44.87564" lon="4.26179">
        <ele>807</ele>
        <time>2022-06-06T11:08:57Z</time>
      </trkpt>
      <trkpt lat="44.87558" lon="4.26159">
        <ele>807</ele>
        <time>2022-06-06T11:08:59Z</time>
      </trkpt>
      <trkpt lat="44.87557" lon="4.26146">
        <ele>807</ele>
        <time>2022-06-06T11:09:01Z</time>
      </trkpt>
      <trkpt lat="44.87558" lon="4.26131">
        <ele>805</ele>
        <time>2022-06-06T11:09:03Z</time>
      </trkpt>
      <trkpt lat="44.87565" lon="4.26108">
        <ele>801</ele>
        <time>2022-06-06T11:09:06Z</time>
      </trkpt>
      <trkpt lat="44.87572" lon="4.26097">
        <ele>798</ele>
        <time>2022-06-06T11:09:08Z</time>
      </trkpt>
      <trkpt lat="44.876" lon="4.26064">
        <ele>793</ele>
        <time>2022-06-06T11:09:14Z</time>
      </trkpt>
      <trkpt lat="44.87624" lon="4.26038">
        <ele>797</ele>
        <time>2022-06-06T11:09:20Z</time>
      </trkpt>
      <trkpt lat="44.87628" lon="4.26025">
        <ele>799</ele>
        <time>2022-06-06T11:09:22Z</time>
      </trkpt>
      <trkpt lat="44.87624" lon="4.25987">
        <ele>802</ele>
        <time>2022-06-06T11:09:26Z</time>
      </trkpt>
      <trkpt lat="44.87623" lon="4.25948">
        <ele>805</ele>
        <time>2022-06-06T11:09:31Z</time>
      </trkpt>
      <trkpt lat="44.87626" lon="4.25921">
        <ele>808</ele>
        <time>2022-06-06T11:09:35Z</time>
      </trkpt>
      <trkpt lat="44.87629" lon="4.259">
        <ele>809</ele>
        <time>2022-06-06T11:09:37Z</time>
      </trkpt>
      <trkpt lat="44.87635" lon="4.25885">
        <ele>810</ele>
        <time>2022-06-06T11:09:40Z</time>
      </trkpt>
      <trkpt lat="44.87643" lon="4.25869">
        <ele>811</ele>
        <time>2022-06-06T11:09:42Z</time>
      </trkpt>
      <trkpt lat="44.87662" lon="4.25843">
        <ele>811</ele>
        <time>2022-06-06T11:09:47Z</time>
      </trkpt>
      <trkpt lat="44.87671" lon="4.2582">
        <ele>812</ele>
        <time>2022-06-06T11:09:50Z</time>
      </trkpt>
      <trkpt lat="44.87678" lon="4.25796">
        <ele>814</ele>
        <time>2022-06-06T11:09:53Z</time>
      </trkpt>
      <trkpt lat="44.87686" lon="4.25777">
        <ele>815</ele>
        <time>2022-06-06T11:09:56Z</time>
      </trkpt>
      <trkpt lat="44.87697" lon="4.25757">
        <ele>817</ele>
        <time>2022-06-06T11:09:59Z</time>
      </trkpt>
      <trkpt lat="44.8771" lon="4.25738">
        <ele>821</ele>
        <time>2022-06-06T11:10:03Z</time>
      </trkpt>
      <trkpt lat="44.87737" lon="4.25708">
        <ele>826</ele>
        <time>2022-06-06T11:10:09Z</time>
      </trkpt>
      <trkpt lat="44.87747" lon="4.25693">
        <ele>826</ele>
        <time>2022-06-06T11:10:11Z</time>
      </trkpt>
      <trkpt lat="44.87754" lon="4.25678">
        <ele>828</ele>
        <time>2022-06-06T11:10:14Z</time>
      </trkpt>
      <trkpt lat="44.87758" lon="4.25664">
        <ele>830</ele>
        <time>2022-06-06T11:10:16Z</time>
      </trkpt>
      <trkpt lat="44.8776" lon="4.25647">
        <ele>831</ele>
        <time>2022-06-06T11:10:18Z</time>
      </trkpt>
      <trkpt lat="44.87762" lon="4.25586">
        <ele>830</ele>
        <time>2022-06-06T11:10:25Z</time>
      </trkpt>
      <trkpt lat="44.87765" lon="4.25547">
        <ele>830</ele>
        <time>2022-06-06T11:10:30Z</time>
      </trkpt>
      <trkpt lat="44.87768" lon="4.25523">
        <ele>830</ele>
        <time>2022-06-06T11:10:33Z</time>
      </trkpt>
      <trkpt lat="44.87778" lon="4.25492">
        <ele>833</ele>
        <time>2022-06-06T11:10:38Z</time>
      </trkpt>
      <trkpt lat="44.87809" lon="4.25429">
        <ele>837</ele>
        <time>2022-06-06T11:10:47Z</time>
      </trkpt>
      <trkpt lat="44.87855" lon="4.25318">
        <ele>840</ele>
        <time>2022-06-06T11:11:04Z</time>
      </trkpt>
      <trkpt lat="44.87863" lon="4.25304">
        <ele>842</ele>
        <time>2022-06-06T11:11:06Z</time>
      </trkpt>
      <trkpt lat="44.8787" lon="4.25297">
        <ele>844</ele>
        <time>2022-06-06T11:11:07Z</time>
      </trkpt>
      <trkpt lat="44.87877" lon="4.25295">
        <ele>845</ele>
        <time>2022-06-06T11:11:09Z</time>
      </trkpt>
      <trkpt lat="44.87903" lon="4.25298">
        <ele>853</ele>
        <time>2022-06-06T11:11:13Z</time>
      </trkpt>
      <trkpt lat="44.87939" lon="4.25279">
        <ele>865</ele>
        <time>2022-06-06T11:11:20Z</time>
      </trkpt>
      <trkpt lat="44.87945" lon="4.25269">
        <ele>866</ele>
        <time>2022-06-06T11:11:22Z</time>
      </trkpt>
      <trkpt lat="44.87951" lon="4.25239">
        <ele>864</ele>
        <time>2022-06-06T11:11:26Z</time>
      </trkpt>
      <trkpt lat="44.87951" lon="4.25224">
        <ele>863</ele>
        <time>2022-06-06T11:11:28Z</time>
      </trkpt>
      <trkpt lat="44.87948" lon="4.25204">
        <ele>859</ele>
        <time>2022-06-06T11:11:30Z</time>
      </trkpt>
      <trkpt lat="44.87933" lon="4.25156">
        <ele>849</ele>
        <time>2022-06-06T11:11:37Z</time>
      </trkpt>
      <trkpt lat="44.87932" lon="4.25137">
        <ele>849</ele>
        <time>2022-06-06T11:11:39Z</time>
      </trkpt>
      <trkpt lat="44.87935" lon="4.25124">
        <ele>850</ele>
        <time>2022-06-06T11:11:41Z</time>
      </trkpt>
      <trkpt lat="44.87942" lon="4.25109">
        <ele>852</ele>
        <time>2022-06-06T11:11:43Z</time>
      </trkpt>
      <trkpt lat="44.87963" lon="4.25075">
        <ele>855</ele>
        <time>2022-06-06T11:11:49Z</time>
      </trkpt>
      <trkpt lat="44.8803" lon="4.24979">
        <ele>858</ele>
        <time>2022-06-06T11:12:06Z</time>
      </trkpt>
      <trkpt lat="44.88079" lon="4.2493">
        <ele>857</ele>
        <time>2022-06-06T11:12:17Z</time>
      </trkpt>
      <trkpt lat="44.88156" lon="4.24842">
        <ele>860</ele>
        <time>2022-06-06T11:12:34Z</time>
      </trkpt>
      <trkpt lat="44.882" lon="4.24777">
        <ele>864</ele>
        <time>2022-06-06T11:12:46Z</time>
      </trkpt>
      <trkpt lat="44.88221" lon="4.24741">
        <ele>865</ele>
        <time>2022-06-06T11:12:51Z</time>
      </trkpt>
      <trkpt lat="44.88232" lon="4.24728">
        <ele>867</ele>
        <time>2022-06-06T11:12:54Z</time>
      </trkpt>
      <trkpt lat="44.88246" lon="4.24719">
        <ele>869</ele>
        <time>2022-06-06T11:12:57Z</time>
      </trkpt>
      <trkpt lat="44.88278" lon="4.24706">
        <ele>873</ele>
        <time>2022-06-06T11:13:03Z</time>
      </trkpt>
      <trkpt lat="44.88282" lon="4.24697">
        <ele>873</ele>
        <time>2022-06-06T11:13:04Z</time>
      </trkpt>
      <trkpt lat="44.88282" lon="4.24693">
        <ele>872</ele>
        <time>2022-06-06T11:13:05Z</time>
      </trkpt>
      <trkpt lat="44.88276" lon="4.24667">
        <ele>868</ele>
        <time>2022-06-06T11:13:08Z</time>
      </trkpt>
      <trkpt lat="44.8827" lon="4.24647">
        <ele>868</ele>
        <time>2022-06-06T11:13:11Z</time>
      </trkpt>
      <trkpt lat="44.88266" lon="4.24616">
        <ele>869</ele>
        <time>2022-06-06T11:13:15Z</time>
      </trkpt>
      <trkpt lat="44.88267" lon="4.24602">
        <ele>870</ele>
        <time>2022-06-06T11:13:16Z</time>
      </trkpt>
      <trkpt lat="44.8827" lon="4.24587">
        <ele>871</ele>
        <time>2022-06-06T11:13:18Z</time>
      </trkpt>
      <trkpt lat="44.88294" lon="4.24507">
        <ele>878</ele>
        <time>2022-06-06T11:13:29Z</time>
      </trkpt>
      <trkpt lat="44.88309" lon="4.24443">
        <ele>886</ele>
        <time>2022-06-06T11:13:38Z</time>
      </trkpt>
      <trkpt lat="44.88312" lon="4.24419">
        <ele>887</ele>
        <time>2022-06-06T11:13:41Z</time>
      </trkpt>
      <trkpt lat="44.88313" lon="4.2438">
        <ele>887</ele>
        <time>2022-06-06T11:13:46Z</time>
      </trkpt>
      <trkpt lat="44.88318" lon="4.2435">
        <ele>887</ele>
        <time>2022-06-06T11:13:50Z</time>
      </trkpt>
      <trkpt lat="44.88358" lon="4.24263">
        <ele>895</ele>
        <time>2022-06-06T11:14:03Z</time>
      </trkpt>
      <trkpt lat="44.88382" lon="4.24204">
        <ele>901</ele>
        <time>2022-06-06T11:14:11Z</time>
      </trkpt>
      <trkpt lat="44.8839" lon="4.24175">
        <ele>903</ele>
        <time>2022-06-06T11:14:15Z</time>
      </trkpt>
      <trkpt lat="44.88411" lon="4.24071">
        <ele>902</ele>
        <time>2022-06-06T11:14:29Z</time>
      </trkpt>
      <trkpt lat="44.88418" lon="4.24049">
        <ele>902</ele>
        <time>2022-06-06T11:14:32Z</time>
      </trkpt>
      <trkpt lat="44.88426" lon="4.24031">
        <ele>902</ele>
        <time>2022-06-06T11:14:35Z</time>
      </trkpt>
      <trkpt lat="44.88446" lon="4.24005">
        <ele>904</ele>
        <time>2022-06-06T11:14:40Z</time>
      </trkpt>
      <trkpt lat="44.88465" lon="4.23989">
        <ele>907</ele>
        <time>2022-06-06T11:14:43Z</time>
      </trkpt>
      <trkpt lat="44.88545" lon="4.23931">
        <ele>915</ele>
        <time>2022-06-06T11:14:59Z</time>
      </trkpt>
      <trkpt lat="44.8864" lon="4.23827">
        <ele>926</ele>
        <time>2022-06-06T11:15:21Z</time>
      </trkpt>
      <trkpt lat="44.88663" lon="4.23793">
        <ele>929</ele>
        <time>2022-06-06T11:15:27Z</time>
      </trkpt>
      <trkpt lat="44.8868" lon="4.23745">
        <ele>929</ele>
        <time>2022-06-06T11:15:34Z</time>
      </trkpt>
      <trkpt lat="44.8869" lon="4.23731">
        <ele>929</ele>
        <time>2022-06-06T11:15:36Z</time>
      </trkpt>
      <trkpt lat="44.887" lon="4.23721">
        <ele>929</ele>
        <time>2022-06-06T11:15:38Z</time>
      </trkpt>
      <trkpt lat="44.88715" lon="4.23712">
        <ele>930</ele>
        <time>2022-06-06T11:15:41Z</time>
      </trkpt>
      <trkpt lat="44.88725" lon="4.23708">
        <ele>931</ele>
        <time>2022-06-06T11:15:43Z</time>
      </trkpt>
      <trkpt lat="44.88736" lon="4.23708">
        <ele>933</ele>
        <time>2022-06-06T11:15:45Z</time>
      </trkpt>
      <trkpt lat="44.88744" lon="4.23711">
        <ele>934</ele>
        <time>2022-06-06T11:15:46Z</time>
      </trkpt>
      <trkpt lat="44.88759" lon="4.23727">
        <ele>938</ele>
        <time>2022-06-06T11:15:50Z</time>
      </trkpt>
      <trkpt lat="44.88776" lon="4.23757">
        <ele>943</ele>
        <time>2022-06-06T11:15:55Z</time>
      </trkpt>
      <trkpt lat="44.88796" lon="4.23774">
        <ele>948</ele>
        <time>2022-06-06T11:15:59Z</time>
      </trkpt>
      <trkpt lat="44.8881" lon="4.23777">
        <ele>950</ele>
        <time>2022-06-06T11:16:01Z</time>
      </trkpt>
      <trkpt lat="44.88815" lon="4.23775">
        <ele>950</ele>
        <time>2022-06-06T11:16:02Z</time>
      </trkpt>
      <trkpt lat="44.88824" lon="4.2376">
        <ele>947</ele>
        <time>2022-06-06T11:16:05Z</time>
      </trkpt>
      <trkpt lat="44.88834" lon="4.23739">
        <ele>946</ele>
        <time>2022-06-06T11:16:08Z</time>
      </trkpt>
      <trkpt lat="44.88853" lon="4.23704">
        <ele>949</ele>
        <time>2022-06-06T11:16:13Z</time>
      </trkpt>
      <trkpt lat="44.88858" lon="4.23693">
        <ele>950</ele>
        <time>2022-06-06T11:16:15Z</time>
      </trkpt>
      <trkpt lat="44.88861" lon="4.23679">
        <ele>951</ele>
        <time>2022-06-06T11:16:17Z</time>
      </trkpt>
      <trkpt lat="44.88864" lon="4.23633">
        <ele>952</ele>
        <time>2022-06-06T11:16:23Z</time>
      </trkpt>
      <trkpt lat="44.88868" lon="4.23603">
        <ele>953</ele>
        <time>2022-06-06T11:16:27Z</time>
      </trkpt>
      <trkpt lat="44.88873" lon="4.23591">
        <ele>955</ele>
        <time>2022-06-06T11:16:28Z</time>
      </trkpt>
      <trkpt lat="44.88896" lon="4.23549">
        <ele>961</ele>
        <time>2022-06-06T11:16:35Z</time>
      </trkpt>
      <trkpt lat="44.88903" lon="4.23531">
        <ele>962</ele>
        <time>2022-06-06T11:16:38Z</time>
      </trkpt>
      <trkpt lat="44.88912" lon="4.23485">
        <ele>964</ele>
        <time>2022-06-06T11:16:44Z</time>
      </trkpt>
      <trkpt lat="44.88913" lon="4.23472">
        <ele>965</ele>
        <time>2022-06-06T11:16:45Z</time>
      </trkpt>
      <trkpt lat="44.8891" lon="4.23448">
        <ele>967</ele>
        <time>2022-06-06T11:16:48Z</time>
      </trkpt>
      <trkpt lat="44.88905" lon="4.23436">
        <ele>967</ele>
        <time>2022-06-06T11:16:50Z</time>
      </trkpt>
      <trkpt lat="44.88888" lon="4.23409">
        <ele>966</ele>
        <time>2022-06-06T11:16:55Z</time>
      </trkpt>
      <trkpt lat="44.88884" lon="4.23399">
        <ele>966</ele>
        <time>2022-06-06T11:16:56Z</time>
      </trkpt>
      <trkpt lat="44.88881" lon="4.23388">
        <ele>966</ele>
        <time>2022-06-06T11:16:58Z</time>
      </trkpt>
      <trkpt lat="44.88881" lon="4.23375">
        <ele>966</ele>
        <time>2022-06-06T11:16:59Z</time>
      </trkpt>
      <trkpt lat="44.88884" lon="4.23358">
        <ele>967</ele>
        <time>2022-06-06T11:17:01Z</time>
      </trkpt>
      <trkpt lat="44.88925" lon="4.23215">
        <ele>977</ele>
        <time>2022-06-06T11:17:21Z</time>
      </trkpt>
      <trkpt lat="44.88929" lon="4.23193">
        <ele>979</ele>
        <time>2022-06-06T11:17:24Z</time>
      </trkpt>
      <trkpt lat="44.88932" lon="4.23151">
        <ele>982</ele>
        <time>2022-06-06T11:17:29Z</time>
      </trkpt>
      <trkpt lat="44.88931" lon="4.23108">
        <ele>984</ele>
        <time>2022-06-06T11:17:35Z</time>
      </trkpt>
      <trkpt lat="44.88912" lon="4.22961">
        <ele>993</ele>
        <time>2022-06-06T11:17:53Z</time>
      </trkpt>
      <trkpt lat="44.88898" lon="4.22912">
        <ele>995</ele>
        <time>2022-06-06T11:18:00Z</time>
      </trkpt>
      <trkpt lat="44.88883" lon="4.22845">
        <ele>998</ele>
        <time>2022-06-06T11:18:09Z</time>
      </trkpt>
      <trkpt lat="44.88866" lon="4.22791">
        <ele>999</ele>
        <time>2022-06-06T11:18:16Z</time>
      </trkpt>
      <trkpt lat="44.88865" lon="4.22776">
        <ele>1000</ele>
        <time>2022-06-06T11:18:18Z</time>
      </trkpt>
      <trkpt lat="44.88863" lon="4.22754">
        <ele>1002</ele>
        <time>2022-06-06T11:18:21Z</time>
      </trkpt>
      <trkpt lat="44.88853" lon="4.22655">
        <ele>1013</ele>
        <time>2022-06-06T11:18:34Z</time>
      </trkpt>
      <trkpt lat="44.88849" lon="4.22637">
        <ele>1015</ele>
        <time>2022-06-06T11:18:36Z</time>
      </trkpt>
      <trkpt lat="44.88841" lon="4.22612">
        <ele>1016</ele>
        <time>2022-06-06T11:18:39Z</time>
      </trkpt>
      <trkpt lat="44.88831" lon="4.22592">
        <ele>1017</ele>
        <time>2022-06-06T11:18:43Z</time>
      </trkpt>
      <trkpt lat="44.8882" lon="4.22576">
        <ele>1017</ele>
        <time>2022-06-06T11:18:45Z</time>
      </trkpt>
      <trkpt lat="44.88814" lon="4.22568">
        <ele>1017</ele>
        <time>2022-06-06T11:18:47Z</time>
      </trkpt>
      <trkpt lat="44.88806" lon="4.22564">
        <ele>1016</ele>
        <time>2022-06-06T11:18:48Z</time>
      </trkpt>
      <trkpt lat="44.88775" lon="4.22553">
        <ele>1011</ele>
        <time>2022-06-06T11:18:54Z</time>
      </trkpt>
      <trkpt lat="44.88768" lon="4.22546">
        <ele>1011</ele>
        <time>2022-06-06T11:18:56Z</time>
      </trkpt>
      <trkpt lat="44.88764" lon="4.22537">
        <ele>1012</ele>
        <time>2022-06-06T11:18:57Z</time>
      </trkpt>
      <trkpt lat="44.88763" lon="4.22527">
        <ele>1014</ele>
        <time>2022-06-06T11:18:58Z</time>
      </trkpt>
      <trkpt lat="44.88765" lon="4.22518">
        <ele>1017</ele>
        <time>2022-06-06T11:18:59Z</time>
      </trkpt>
      <trkpt lat="44.88769" lon="4.22509">
        <ele>1020</ele>
        <time>2022-06-06T11:19:01Z</time>
      </trkpt>
      <trkpt lat="44.88776" lon="4.22504">
        <ele>1022</ele>
        <time>2022-06-06T11:19:02Z</time>
      </trkpt>
      <trkpt lat="44.88784" lon="4.22503">
        <ele>1024</ele>
        <time>2022-06-06T11:19:04Z</time>
      </trkpt>
      <trkpt lat="44.88796" lon="4.22508">
        <ele>1026</ele>
        <time>2022-06-06T11:19:06Z</time>
      </trkpt>
      <trkpt lat="44.88868" lon="4.22564">
        <ele>1033</ele>
        <time>2022-06-06T11:19:20Z</time>
      </trkpt>
      <trkpt lat="44.88877" lon="4.22572">
        <ele>1034</ele>
        <time>2022-06-06T11:19:22Z</time>
      </trkpt>
      <trkpt lat="44.88927" lon="4.22659">
        <ele>1036</ele>
        <time>2022-06-06T11:19:36Z</time>
      </trkpt>
      <trkpt lat="44.8894" lon="4.22696">
        <ele>1035</ele>
        <time>2022-06-06T11:19:42Z</time>
      </trkpt>
      <trkpt lat="44.88947" lon="4.22726">
        <ele>1033</ele>
        <time>2022-06-06T11:19:46Z</time>
      </trkpt>
      <trkpt lat="44.88951" lon="4.22738">
        <ele>1032</ele>
        <time>2022-06-06T11:19:47Z</time>
      </trkpt>
      <trkpt lat="44.88958" lon="4.22746">
        <ele>1032</ele>
        <time>2022-06-06T11:19:49Z</time>
      </trkpt>
      <trkpt lat="44.88967" lon="4.22751">
        <ele>1034</ele>
        <time>2022-06-06T11:19:51Z</time>
      </trkpt>
      <trkpt lat="44.8899" lon="4.22752">
        <ele>1039</ele>
        <time>2022-06-06T11:19:55Z</time>
      </trkpt>
      <trkpt lat="44.89023" lon="4.22761">
        <ele>1044</ele>
        <time>2022-06-06T11:20:01Z</time>
      </trkpt>
      <trkpt lat="44.89034" lon="4.22762">
        <ele>1046</ele>
        <time>2022-06-06T11:20:03Z</time>
      </trkpt>
      <trkpt lat="44.89045" lon="4.2276">
        <ele>1048</ele>
        <time>2022-06-06T11:20:05Z</time>
      </trkpt>
      <trkpt lat="44.89058" lon="4.22756">
        <ele>1050</ele>
        <time>2022-06-06T11:20:07Z</time>
      </trkpt>
      <trkpt lat="44.89067" lon="4.22757">
        <ele>1051</ele>
        <time>2022-06-06T11:20:09Z</time>
      </trkpt>
      <trkpt lat="44.89078" lon="4.22761">
        <ele>1053</ele>
        <time>2022-06-06T11:20:11Z</time>
      </trkpt>
      <trkpt lat="44.89093" lon="4.2277">
        <ele>1054</ele>
        <time>2022-06-06T11:20:13Z</time>
      </trkpt>
      <trkpt lat="44.89124" lon="4.22795">
        <ele>1057</ele>
        <time>2022-06-06T11:20:20Z</time>
      </trkpt>
      <trkpt lat="44.89155" lon="4.22825">
        <ele>1059</ele>
        <time>2022-06-06T11:20:26Z</time>
      </trkpt>
      <trkpt lat="44.89212" lon="4.22895">
        <ele>1064</ele>
        <time>2022-06-06T11:20:40Z</time>
      </trkpt>
      <trkpt lat="44.89239" lon="4.22922">
        <ele>1068</ele>
        <time>2022-06-06T11:20:46Z</time>
      </trkpt>
      <trkpt lat="44.89249" lon="4.22938">
        <ele>1069</ele>
        <time>2022-06-06T11:20:49Z</time>
      </trkpt>
      <trkpt lat="44.89259" lon="4.22956">
        <ele>1070</ele>
        <time>2022-06-06T11:20:51Z</time>
      </trkpt>
      <trkpt lat="44.89289" lon="4.23024">
        <ele>1076</ele>
        <time>2022-06-06T11:21:01Z</time>
      </trkpt>
      <trkpt lat="44.89295" lon="4.23041">
        <ele>1077</ele>
        <time>2022-06-06T11:21:04Z</time>
      </trkpt>
      <trkpt lat="44.89298" lon="4.23057">
        <ele>1078</ele>
        <time>2022-06-06T11:21:06Z</time>
      </trkpt>
      <trkpt lat="44.89305" lon="4.23125">
        <ele>1082</ele>
        <time>2022-06-06T11:21:15Z</time>
      </trkpt>
      <trkpt lat="44.89308" lon="4.23173">
        <ele>1085</ele>
        <time>2022-06-06T11:21:21Z</time>
      </trkpt>
      <trkpt lat="44.89306" lon="4.23191">
        <ele>1085</ele>
        <time>2022-06-06T11:21:23Z</time>
      </trkpt>
      <trkpt lat="44.89305" lon="4.23198">
        <ele>1085</ele>
        <time>2022-06-06T11:21:24Z</time>
      </trkpt>
      <trkpt lat="44.89303" lon="4.23207">
        <ele>1085</ele>
        <time>2022-06-06T11:21:25Z</time>
      </trkpt>
      <trkpt lat="44.89299" lon="4.23224">
        <ele>1084</ele>
        <time>2022-06-06T11:21:27Z</time>
      </trkpt>
      <trkpt lat="44.89297" lon="4.2323">
        <ele>1084</ele>
        <time>2022-06-06T11:21:28Z</time>
      </trkpt>
      <trkpt lat="44.89296" lon="4.23243">
        <ele>1085</ele>
        <time>2022-06-06T11:21:30Z</time>
      </trkpt>
      <trkpt lat="44.89298" lon="4.23256">
        <ele>1085</ele>
        <time>2022-06-06T11:21:32Z</time>
      </trkpt>
      <trkpt lat="44.8931" lon="4.23288">
        <ele>1088</ele>
        <time>2022-06-06T11:21:36Z</time>
      </trkpt>
      <trkpt lat="44.89354" lon="4.23375">
        <ele>1097</ele>
        <time>2022-06-06T11:21:50Z</time>
      </trkpt>
      <trkpt lat="44.89365" lon="4.23402">
        <ele>1099</ele>
        <time>2022-06-06T11:21:53Z</time>
      </trkpt>
      <trkpt lat="44.89373" lon="4.23445">
        <ele>1101</ele>
        <time>2022-06-06T11:21:59Z</time>
      </trkpt>
      <trkpt lat="44.89379" lon="4.23501">
        <ele>1102</ele>
        <time>2022-06-06T11:22:06Z</time>
      </trkpt>
      <trkpt lat="44.89391" lon="4.23563">
        <ele>1106</ele>
        <time>2022-06-06T11:22:14Z</time>
      </trkpt>
      <trkpt lat="44.89407" lon="4.23635">
        <ele>1110</ele>
        <time>2022-06-06T11:22:24Z</time>
      </trkpt>
      <trkpt lat="44.89436" lon="4.23738">
        <ele>1118</ele>
        <time>2022-06-06T11:22:38Z</time>
      </trkpt>
      <trkpt lat="44.89448" lon="4.23772">
        <ele>1120</ele>
        <time>2022-06-06T11:22:43Z</time>
      </trkpt>
      <trkpt lat="44.89464" lon="4.23811">
        <ele>1121</ele>
        <time>2022-06-06T11:22:48Z</time>
      </trkpt>
      <trkpt lat="44.895" lon="4.23866">
        <ele>1125</ele>
        <time>2022-06-06T11:22:58Z</time>
      </trkpt>
      <trkpt lat="44.8952" lon="4.2389">
        <ele>1126</ele>
        <time>2022-06-06T11:23:02Z</time>
      </trkpt>
      <trkpt lat="44.89537" lon="4.23906">
        <ele>1127</ele>
        <time>2022-06-06T11:23:06Z</time>
      </trkpt>
      <trkpt lat="44.89553" lon="4.2392">
        <ele>1128</ele>
        <time>2022-06-06T11:23:09Z</time>
      </trkpt>
      <trkpt lat="44.89664" lon="4.23997">
        <ele>1140</ele>
        <time>2022-06-06T11:23:31Z</time>
      </trkpt>
      <trkpt lat="44.89686" lon="4.24009">
        <ele>1141</ele>
        <time>2022-06-06T11:23:36Z</time>
      </trkpt>
      <trkpt lat="44.89701" lon="4.24015">
        <ele>1142</ele>
        <time>2022-06-06T11:23:38Z</time>
      </trkpt>
      <trkpt lat="44.89704" lon="4.24016">
        <ele>1143</ele>
        <time>2022-06-06T11:23:39Z</time>
      </trkpt>
      <trkpt lat="44.89737" lon="4.24022">
        <ele>1147</ele>
        <time>2022-06-06T11:23:45Z</time>
      </trkpt>
      <trkpt lat="44.89795" lon="4.24023">
        <ele>1152</ele>
        <time>2022-06-06T11:23:55Z</time>
      </trkpt>
      <trkpt lat="44.89809" lon="4.24021">
        <ele>1153</ele>
        <time>2022-06-06T11:23:58Z</time>
      </trkpt>
      <trkpt lat="44.89818" lon="4.24015">
        <ele>1154</ele>
        <time>2022-06-06T11:23:59Z</time>
      </trkpt>
      <trkpt lat="44.89831" lon="4.24003">
        <ele>1157</ele>
        <time>2022-06-06T11:24:02Z</time>
      </trkpt>
      <trkpt lat="44.89843" lon="4.23995">
        <ele>1158</ele>
        <time>2022-06-06T11:24:05Z</time>
      </trkpt>
      <trkpt lat="44.89845" lon="4.23983">
        <ele>1159</ele>
        <time>2022-06-06T11:24:06Z</time>
      </trkpt>
      <trkpt lat="44.89845" lon="4.23974">
        <ele>1160</ele>
        <time>2022-06-06T11:24:07Z</time>
      </trkpt>
      <trkpt lat="44.8985" lon="4.23964">
        <ele>1161</ele>
        <time>2022-06-06T11:24:09Z</time>
      </trkpt>
      <trkpt lat="44.8986" lon="4.23952">
        <ele>1163</ele>
        <time>2022-06-06T11:24:11Z</time>
      </trkpt>
      <trkpt lat="44.89868" lon="4.23947">
        <ele>1163</ele>
        <time>2022-06-06T11:24:13Z</time>
      </trkpt>
      <trkpt lat="44.89877" lon="4.23949">
        <ele>1163</ele>
        <time>2022-06-06T11:24:14Z</time>
      </trkpt>
      <trkpt lat="44.89916" lon="4.23988">
        <ele>1158</ele>
        <time>2022-06-06T11:24:23Z</time>
      </trkpt>
      <trkpt lat="44.89999" lon="4.2404">
        <ele>1150</ele>
        <time>2022-06-06T11:24:39Z</time>
      </trkpt>
      <trkpt lat="44.90015" lon="4.24046">
        <ele>1148</ele>
        <time>2022-06-06T11:24:42Z</time>
      </trkpt>
      <trkpt lat="44.90031" lon="4.24047">
        <ele>1146</ele>
        <time>2022-06-06T11:24:45Z</time>
      </trkpt>
      <trkpt lat="44.90045" lon="4.24044">
        <ele>1145</ele>
        <time>2022-06-06T11:24:47Z</time>
      </trkpt>
      <trkpt lat="44.90104" lon="4.24012">
        <ele>1139</ele>
        <time>2022-06-06T11:24:59Z</time>
      </trkpt>
      <trkpt lat="44.90113" lon="4.24002">
        <ele>1138</ele>
        <time>2022-06-06T11:25:01Z</time>
      </trkpt>
      <trkpt lat="44.90121" lon="4.2399">
        <ele>1138</ele>
        <time>2022-06-06T11:25:03Z</time>
      </trkpt>
      <trkpt lat="44.90148" lon="4.23937">
        <ele>1142</ele>
        <time>2022-06-06T11:25:11Z</time>
      </trkpt>
      <trkpt lat="44.9016" lon="4.23927">
        <ele>1140</ele>
        <time>2022-06-06T11:25:13Z</time>
      </trkpt>
      <trkpt lat="44.9017" lon="4.23916">
        <ele>1140</ele>
        <time>2022-06-06T11:25:16Z</time>
      </trkpt>
      <trkpt lat="44.90195" lon="4.23878">
        <ele>1134</ele>
        <time>2022-06-06T11:25:22Z</time>
      </trkpt>
      <trkpt lat="44.902" lon="4.23863">
        <ele>1133</ele>
        <time>2022-06-06T11:25:24Z</time>
      </trkpt>
      <trkpt lat="44.90205" lon="4.23833">
        <ele>1135</ele>
        <time>2022-06-06T11:25:28Z</time>
      </trkpt>
      <trkpt lat="44.90207" lon="4.23785">
        <ele>1136</ele>
        <time>2022-06-06T11:25:34Z</time>
      </trkpt>
      <trkpt lat="44.90207" lon="4.23746">
        <ele>1136</ele>
        <time>2022-06-06T11:25:39Z</time>
      </trkpt>
      <trkpt lat="44.90205" lon="4.23729">
        <ele>1136</ele>
        <time>2022-06-06T11:25:41Z</time>
      </trkpt>
      <trkpt lat="44.90195" lon="4.23693">
        <ele>1138</ele>
        <time>2022-06-06T11:25:46Z</time>
      </trkpt>
      <trkpt lat="44.90145" lon="4.23552">
        <ele>1133</ele>
        <time>2022-06-06T11:26:06Z</time>
      </trkpt>
      <trkpt lat="44.90139" lon="4.23523">
        <ele>1129</ele>
        <time>2022-06-06T11:26:10Z</time>
      </trkpt>
      <trkpt lat="44.90132" lon="4.23438">
        <ele>1119</ele>
        <time>2022-06-06T11:26:21Z</time>
      </trkpt>
      <trkpt lat="44.90123" lon="4.2338">
        <ele>1116</ele>
        <time>2022-06-06T11:26:28Z</time>
      </trkpt>
      <trkpt lat="44.90109" lon="4.23318">
        <ele>1115</ele>
        <time>2022-06-06T11:26:36Z</time>
      </trkpt>
      <trkpt lat="44.90086" lon="4.23246">
        <ele>1113</ele>
        <time>2022-06-06T11:26:46Z</time>
      </trkpt>
      <trkpt lat="44.9006" lon="4.23174">
        <ele>1106</ele>
        <time>2022-06-06T11:26:56Z</time>
      </trkpt>
      <trkpt lat="44.90033" lon="4.23121">
        <ele>1103</ele>
        <time>2022-06-06T11:27:05Z</time>
      </trkpt>
      <trkpt lat="44.89992" lon="4.23053">
        <ele>1101</ele>
        <time>2022-06-06T11:27:16Z</time>
      </trkpt>
      <trkpt lat="44.89962" lon="4.23012">
        <ele>1098</ele>
        <time>2022-06-06T11:27:23Z</time>
      </trkpt>
      <trkpt lat="44.89944" lon="4.22989">
        <ele>1097</ele>
        <time>2022-06-06T11:27:28Z</time>
      </trkpt>
      <trkpt lat="44.89941" lon="4.2298">
        <ele>1096</ele>
        <time>2022-06-06T11:27:29Z</time>
      </trkpt>
      <trkpt lat="44.89941" lon="4.22972">
        <ele>1095</ele>
        <time>2022-06-06T11:27:30Z</time>
      </trkpt>
      <trkpt lat="44.89944" lon="4.22965">
        <ele>1093</ele>
        <time>2022-06-06T11:27:31Z</time>
      </trkpt>
      <trkpt lat="44.89949" lon="4.22961">
        <ele>1091</ele>
        <time>2022-06-06T11:27:32Z</time>
      </trkpt>
      <trkpt lat="44.89955" lon="4.22963">
        <ele>1091</ele>
        <time>2022-06-06T11:27:33Z</time>
      </trkpt>
      <trkpt lat="44.89991" lon="4.22999">
        <ele>1090</ele>
        <time>2022-06-06T11:27:41Z</time>
      </trkpt>
      <trkpt lat="44.90007" lon="4.23011">
        <ele>1089</ele>
        <time>2022-06-06T11:27:44Z</time>
      </trkpt>
      <trkpt lat="44.90068" lon="4.23047">
        <ele>1079</ele>
        <time>2022-06-06T11:27:56Z</time>
      </trkpt>
      <trkpt lat="44.90078" lon="4.23054">
        <ele>1077</ele>
        <time>2022-06-06T11:27:58Z</time>
      </trkpt>
      <trkpt lat="44.90094" lon="4.23071">
        <ele>1075</ele>
        <time>2022-06-06T11:28:01Z</time>
      </trkpt>
      <trkpt lat="44.90115" lon="4.2312">
        <ele>1077</ele>
        <time>2022-06-06T11:28:09Z</time>
      </trkpt>
      <trkpt lat="44.90131" lon="4.23145">
        <ele>1076</ele>
        <time>2022-06-06T11:28:13Z</time>
      </trkpt>
      <trkpt lat="44.90166" lon="4.23191">
        <ele>1070</ele>
        <time>2022-06-06T11:28:21Z</time>
      </trkpt>
      <trkpt lat="44.9022" lon="4.23273">
        <ele>1066</ele>
        <time>2022-06-06T11:28:36Z</time>
      </trkpt>
      <trkpt lat="44.9026" lon="4.23319">
        <ele>1059</ele>
        <time>2022-06-06T11:28:45Z</time>
      </trkpt>
      <trkpt lat="44.90299" lon="4.23376">
        <ele>1055</ele>
        <time>2022-06-06T11:28:55Z</time>
      </trkpt>
      <trkpt lat="44.9031" lon="4.23389">
        <ele>1053</ele>
        <time>2022-06-06T11:28:57Z</time>
      </trkpt>
      <trkpt lat="44.9034" lon="4.23417">
        <ele>1047</ele>
        <time>2022-06-06T11:29:04Z</time>
      </trkpt>
      <trkpt lat="44.90351" lon="4.23431">
        <ele>1046</ele>
        <time>2022-06-06T11:29:06Z</time>
      </trkpt>
      <trkpt lat="44.90364" lon="4.23454">
        <ele>1045</ele>
        <time>2022-06-06T11:29:10Z</time>
      </trkpt>
      <trkpt lat="44.90372" lon="4.23478">
        <ele>1046</ele>
        <time>2022-06-06T11:29:13Z</time>
      </trkpt>
      <trkpt lat="44.90379" lon="4.23508">
        <ele>1047</ele>
        <time>2022-06-06T11:29:17Z</time>
      </trkpt>
      <trkpt lat="44.90383" lon="4.23514">
        <ele>1046</ele>
        <time>2022-06-06T11:29:18Z</time>
      </trkpt>
      <trkpt lat="44.9039" lon="4.23517">
        <ele>1044</ele>
        <time>2022-06-06T11:29:20Z</time>
      </trkpt>
      <trkpt lat="44.90395" lon="4.23516">
        <ele>1043</ele>
        <time>2022-06-06T11:29:21Z</time>
      </trkpt>
      <trkpt lat="44.90399" lon="4.2351">
        <ele>1041</ele>
        <time>2022-06-06T11:29:22Z</time>
      </trkpt>
      <trkpt lat="44.904" lon="4.23502">
        <ele>1041</ele>
        <time>2022-06-06T11:29:23Z</time>
      </trkpt>
      <trkpt lat="44.90399" lon="4.23493">
        <ele>1040</ele>
        <time>2022-06-06T11:29:24Z</time>
      </trkpt>
      <trkpt lat="44.9039" lon="4.23469">
        <ele>1041</ele>
        <time>2022-06-06T11:29:27Z</time>
      </trkpt>
      <trkpt lat="44.90386" lon="4.23454">
        <ele>1040</ele>
        <time>2022-06-06T11:29:29Z</time>
      </trkpt>
      <trkpt lat="44.90373" lon="4.23372">
        <ele>1037</ele>
        <time>2022-06-06T11:29:40Z</time>
      </trkpt>
      <trkpt lat="44.90372" lon="4.23363">
        <ele>1037</ele>
        <time>2022-06-06T11:29:41Z</time>
      </trkpt>
      <trkpt lat="44.90362" lon="4.23307">
        <ele>1036</ele>
        <time>2022-06-06T11:29:48Z</time>
      </trkpt>
      <trkpt lat="44.90353" lon="4.23255">
        <ele>1035</ele>
        <time>2022-06-06T11:29:55Z</time>
      </trkpt>
      <trkpt lat="44.90324" lon="4.23145">
        <ele>1028</ele>
        <time>2022-06-06T11:30:10Z</time>
      </trkpt>
      <trkpt lat="44.90275" lon="4.22949">
        <ele>1021</ele>
        <time>2022-06-06T11:30:36Z</time>
      </trkpt>
      <trkpt lat="44.9025" lon="4.22855">
        <ele>1018</ele>
        <time>2022-06-06T11:30:49Z</time>
      </trkpt>
      <trkpt lat="44.90248" lon="4.22841">
        <ele>1016</ele>
        <time>2022-06-06T11:30:50Z</time>
      </trkpt>
      <trkpt lat="44.90247" lon="4.22813">
        <ele>1015</ele>
        <time>2022-06-06T11:30:54Z</time>
      </trkpt>
      <trkpt lat="44.90247" lon="4.22767">
        <ele>1013</ele>
        <time>2022-06-06T11:31:00Z</time>
      </trkpt>
      <trkpt lat="44.90245" lon="4.22748">
        <ele>1013</ele>
        <time>2022-06-06T11:31:02Z</time>
      </trkpt>
      <trkpt lat="44.90232" lon="4.22709">
        <ele>1018</ele>
        <time>2022-06-06T11:31:08Z</time>
      </trkpt>
      <trkpt lat="44.90216" lon="4.22683">
        <ele>1020</ele>
        <time>2022-06-06T11:31:12Z</time>
      </trkpt>
      <trkpt lat="44.9019" lon="4.22651">
        <ele>1022</ele>
        <time>2022-06-06T11:31:18Z</time>
      </trkpt>
      <trkpt lat="44.90177" lon="4.22637">
        <ele>1023</ele>
        <time>2022-06-06T11:31:21Z</time>
      </trkpt>
      <trkpt lat="44.90151" lon="4.22617">
        <ele>1026</ele>
        <time>2022-06-06T11:31:26Z</time>
      </trkpt>
      <trkpt lat="44.90144" lon="4.22608">
        <ele>1027</ele>
        <time>2022-06-06T11:31:28Z</time>
      </trkpt>
      <trkpt lat="44.90141" lon="4.22599">
        <ele>1028</ele>
        <time>2022-06-06T11:31:29Z</time>
      </trkpt>
      <trkpt lat="44.9014" lon="4.2259">
        <ele>1028</ele>
        <time>2022-06-06T11:31:30Z</time>
      </trkpt>
      <trkpt lat="44.90142" lon="4.22576">
        <ele>1030</ele>
        <time>2022-06-06T11:31:32Z</time>
      </trkpt>
      <trkpt lat="44.90152" lon="4.22542">
        <ele>1033</ele>
        <time>2022-06-06T11:31:37Z</time>
      </trkpt>
      <trkpt lat="44.90152" lon="4.22529">
        <ele>1034</ele>
        <time>2022-06-06T11:31:38Z</time>
      </trkpt>
      <trkpt lat="44.90151" lon="4.2252">
        <ele>1035</ele>
        <time>2022-06-06T11:31:40Z</time>
      </trkpt>
      <trkpt lat="44.90147" lon="4.22512">
        <ele>1035</ele>
        <time>2022-06-06T11:31:41Z</time>
      </trkpt>
      <trkpt lat="44.90132" lon="4.22486">
        <ele>1035</ele>
        <time>2022-06-06T11:31:45Z</time>
      </trkpt>
      <trkpt lat="44.9013" lon="4.22476">
        <ele>1036</ele>
        <time>2022-06-06T11:31:46Z</time>
      </trkpt>
      <trkpt lat="44.90131" lon="4.22469">
        <ele>1037</ele>
        <time>2022-06-06T11:31:47Z</time>
      </trkpt>
      <trkpt lat="44.90135" lon="4.22463">
        <ele>1038</ele>
        <time>2022-06-06T11:31:48Z</time>
      </trkpt>
      <trkpt lat="44.90146" lon="4.2246">
        <ele>1040</ele>
        <time>2022-06-06T11:31:50Z</time>
      </trkpt>
      <trkpt lat="44.90153" lon="4.22464">
        <ele>1041</ele>
        <time>2022-06-06T11:31:52Z</time>
      </trkpt>
      <trkpt lat="44.90159" lon="4.22472">
        <ele>1041</ele>
        <time>2022-06-06T11:31:53Z</time>
      </trkpt>
      <trkpt lat="44.90193" lon="4.22547">
        <ele>1038</ele>
        <time>2022-06-06T11:32:04Z</time>
      </trkpt>
      <trkpt lat="44.90198" lon="4.22555">
        <ele>1038</ele>
        <time>2022-06-06T11:32:06Z</time>
      </trkpt>
      <trkpt lat="44.90204" lon="4.2256">
        <ele>1038</ele>
        <time>2022-06-06T11:32:07Z</time>
      </trkpt>
      <trkpt lat="44.9021" lon="4.22562">
        <ele>1039</ele>
        <time>2022-06-06T11:32:08Z</time>
      </trkpt>
      <trkpt lat="44.90235" lon="4.22561">
        <ele>1043</ele>
        <time>2022-06-06T11:32:12Z</time>
      </trkpt>
      <trkpt lat="44.90264" lon="4.22551">
        <ele>1048</ele>
        <time>2022-06-06T11:32:18Z</time>
      </trkpt>
      <trkpt lat="44.90314" lon="4.22539">
        <ele>1054</ele>
        <time>2022-06-06T11:32:27Z</time>
      </trkpt>
      <trkpt lat="44.90323" lon="4.22539">
        <ele>1054</ele>
        <time>2022-06-06T11:32:28Z</time>
      </trkpt>
      <trkpt lat="44.90332" lon="4.22543">
        <ele>1054</ele>
        <time>2022-06-06T11:32:30Z</time>
      </trkpt>
      <trkpt lat="44.90346" lon="4.22554">
        <ele>1055</ele>
        <time>2022-06-06T11:32:33Z</time>
      </trkpt>
      <trkpt lat="44.90398" lon="4.22625">
        <ele>1052</ele>
        <time>2022-06-06T11:32:46Z</time>
      </trkpt>
      <trkpt lat="44.90436" lon="4.22657">
        <ele>1055</ele>
        <time>2022-06-06T11:32:54Z</time>
      </trkpt>
      <trkpt lat="44.90466" lon="4.22729">
        <ele>1052</ele>
        <time>2022-06-06T11:33:04Z</time>
      </trkpt>
      <trkpt lat="44.90479" lon="4.22751">
        <ele>1052</ele>
        <time>2022-06-06T11:33:08Z</time>
      </trkpt>
      <trkpt lat="44.90507" lon="4.22793">
        <ele>1049</ele>
        <time>2022-06-06T11:33:15Z</time>
      </trkpt>
      <trkpt lat="44.90577" lon="4.22884">
        <ele>1044</ele>
        <time>2022-06-06T11:33:32Z</time>
      </trkpt>
      <trkpt lat="44.90622" lon="4.22947">
        <ele>1035</ele>
        <time>2022-06-06T11:33:43Z</time>
      </trkpt>
      <trkpt lat="44.90636" lon="4.2296">
        <ele>1035</ele>
        <time>2022-06-06T11:33:46Z</time>
      </trkpt>
      <trkpt lat="44.90653" lon="4.22971">
        <ele>1037</ele>
        <time>2022-06-06T11:33:50Z</time>
      </trkpt>
      <trkpt lat="44.90704" lon="4.22995">
        <ele>1035</ele>
        <time>2022-06-06T11:33:59Z</time>
      </trkpt>
      <trkpt lat="44.90719" lon="4.22998">
        <ele>1034</ele>
        <time>2022-06-06T11:34:02Z</time>
      </trkpt>
      <trkpt lat="44.90731" lon="4.22995">
        <ele>1034</ele>
        <time>2022-06-06T11:34:04Z</time>
      </trkpt>
      <trkpt lat="44.90743" lon="4.22989">
        <ele>1036</ele>
        <time>2022-06-06T11:34:06Z</time>
      </trkpt>
      <trkpt lat="44.90755" lon="4.2298">
        <ele>1036</ele>
        <time>2022-06-06T11:34:09Z</time>
      </trkpt>
      <trkpt lat="44.90763" lon="4.22967">
        <ele>1037</ele>
        <time>2022-06-06T11:34:11Z</time>
      </trkpt>
      <trkpt lat="44.90826" lon="4.22839">
        <ele>1038</ele>
        <time>2022-06-06T11:34:30Z</time>
      </trkpt>
      <trkpt lat="44.90834" lon="4.22827">
        <ele>1037</ele>
        <time>2022-06-06T11:34:33Z</time>
      </trkpt>
      <trkpt lat="44.90843" lon="4.2282">
        <ele>1037</ele>
        <time>2022-06-06T11:34:34Z</time>
      </trkpt>
      <trkpt lat="44.90856" lon="4.22817">
        <ele>1036</ele>
        <time>2022-06-06T11:34:37Z</time>
      </trkpt>
      <trkpt lat="44.90876" lon="4.22821">
        <ele>1033</ele>
        <time>2022-06-06T11:34:40Z</time>
      </trkpt>
      <trkpt lat="44.90884" lon="4.22828">
        <ele>1031</ele>
        <time>2022-06-06T11:34:42Z</time>
      </trkpt>
      <trkpt lat="44.90891" lon="4.22837">
        <ele>1029</ele>
        <time>2022-06-06T11:34:44Z</time>
      </trkpt>
      <trkpt lat="44.90904" lon="4.22862">
        <ele>1026</ele>
        <time>2022-06-06T11:34:48Z</time>
      </trkpt>
      <trkpt lat="44.90906" lon="4.22876">
        <ele>1025</ele>
        <time>2022-06-06T11:34:49Z</time>
      </trkpt>
      <trkpt lat="44.90912" lon="4.22912">
        <ele>1023</ele>
        <time>2022-06-06T11:34:54Z</time>
      </trkpt>
      <trkpt lat="44.90921" lon="4.22932">
        <ele>1022</ele>
        <time>2022-06-06T11:34:57Z</time>
      </trkpt>
      <trkpt lat="44.90979" lon="4.22987">
        <ele>1025</ele>
        <time>2022-06-06T11:35:09Z</time>
      </trkpt>
      <trkpt lat="44.90989" lon="4.23">
        <ele>1025</ele>
        <time>2022-06-06T11:35:12Z</time>
      </trkpt>
      <trkpt lat="44.90996" lon="4.2302">
        <ele>1026</ele>
        <time>2022-06-06T11:35:15Z</time>
      </trkpt>
      <trkpt lat="44.90996" lon="4.23034">
        <ele>1025</ele>
        <time>2022-06-06T11:35:16Z</time>
      </trkpt>
      <trkpt lat="44.90993" lon="4.23053">
        <ele>1024</ele>
        <time>2022-06-06T11:35:19Z</time>
      </trkpt>
      <trkpt lat="44.90989" lon="4.23076">
        <ele>1022</ele>
        <time>2022-06-06T11:35:22Z</time>
      </trkpt>
      <trkpt lat="44.90993" lon="4.23081">
        <ele>1023</ele>
        <time>2022-06-06T11:35:23Z</time>
      </trkpt>
      <trkpt lat="44.90995" lon="4.23087">
        <ele>1024</ele>
        <time>2022-06-06T11:35:24Z</time>
      </trkpt>
      <trkpt lat="44.90995" lon="4.23122">
        <ele>1024</ele>
        <time>2022-06-06T11:35:28Z</time>
      </trkpt>
      <trkpt lat="44.90996" lon="4.23153">
        <ele>1024</ele>
        <time>2022-06-06T11:35:32Z</time>
      </trkpt>
      <trkpt lat="44.91006" lon="4.2322">
        <ele>1025</ele>
        <time>2022-06-06T11:35:41Z</time>
      </trkpt>
      <trkpt lat="44.91009" lon="4.23252">
        <ele>1025</ele>
        <time>2022-06-06T11:35:45Z</time>
      </trkpt>
      <trkpt lat="44.91012" lon="4.23267">
        <ele>1024</ele>
        <time>2022-06-06T11:35:47Z</time>
      </trkpt>
      <trkpt lat="44.91017" lon="4.23276">
        <ele>1024</ele>
        <time>2022-06-06T11:35:48Z</time>
      </trkpt>
      <trkpt lat="44.91024" lon="4.23282">
        <ele>1024</ele>
        <time>2022-06-06T11:35:50Z</time>
      </trkpt>
      <trkpt lat="44.91033" lon="4.23285">
        <ele>1024</ele>
        <time>2022-06-06T11:35:51Z</time>
      </trkpt>
      <trkpt lat="44.91044" lon="4.23284">
        <ele>1025</ele>
        <time>2022-06-06T11:35:53Z</time>
      </trkpt>
      <trkpt lat="44.91053" lon="4.23281">
        <ele>1026</ele>
        <time>2022-06-06T11:35:55Z</time>
      </trkpt>
      <trkpt lat="44.91076" lon="4.2326">
        <ele>1031</ele>
        <time>2022-06-06T11:36:00Z</time>
      </trkpt>
      <trkpt lat="44.91096" lon="4.23247">
        <ele>1036</ele>
        <time>2022-06-06T11:36:04Z</time>
      </trkpt>
      <trkpt lat="44.91099" lon="4.23241">
        <ele>1037</ele>
        <time>2022-06-06T11:36:05Z</time>
      </trkpt>
      <trkpt lat="44.91099" lon="4.23235">
        <ele>1038</ele>
        <time>2022-06-06T11:36:05Z</time>
      </trkpt>
      <trkpt lat="44.91098" lon="4.23229">
        <ele>1039</ele>
        <time>2022-06-06T11:36:06Z</time>
      </trkpt>
      <trkpt lat="44.91095" lon="4.23225">
        <ele>1039</ele>
        <time>2022-06-06T11:36:07Z</time>
      </trkpt>
      <trkpt lat="44.91091" lon="4.23224">
        <ele>1039</ele>
        <time>2022-06-06T11:36:08Z</time>
      </trkpt>
      <trkpt lat="44.91087" lon="4.23226">
        <ele>1038</ele>
        <time>2022-06-06T11:36:08Z</time>
      </trkpt>
      <trkpt lat="44.91068" lon="4.23245">
        <ele>1033</ele>
        <time>2022-06-06T11:36:12Z</time>
      </trkpt>
      <trkpt lat="44.9106" lon="4.23248">
        <ele>1031</ele>
        <time>2022-06-06T11:36:14Z</time>
      </trkpt>
      <trkpt lat="44.91054" lon="4.23247">
        <ele>1031</ele>
        <time>2022-06-06T11:36:15Z</time>
      </trkpt>
      <trkpt lat="44.91047" lon="4.2324">
        <ele>1031</ele>
        <time>2022-06-06T11:36:16Z</time>
      </trkpt>
      <trkpt lat="44.91042" lon="4.23229">
        <ele>1031</ele>
        <time>2022-06-06T11:36:18Z</time>
      </trkpt>
      <trkpt lat="44.91038" lon="4.2321">
        <ele>1032</ele>
        <time>2022-06-06T11:36:21Z</time>
      </trkpt>
      <trkpt lat="44.91038" lon="4.23191">
        <ele>1033</ele>
        <time>2022-06-06T11:36:23Z</time>
      </trkpt>
      <trkpt lat="44.91047" lon="4.23137">
        <ele>1039</ele>
        <time>2022-06-06T11:36:30Z</time>
      </trkpt>
      <trkpt lat="44.91056" lon="4.23105">
        <ele>1044</ele>
        <time>2022-06-06T11:36:34Z</time>
      </trkpt>
      <trkpt lat="44.91068" lon="4.23075">
        <ele>1049</ele>
        <time>2022-06-06T11:36:39Z</time>
      </trkpt>
      <trkpt lat="44.91085" lon="4.23038">
        <ele>1052</ele>
        <time>2022-06-06T11:36:44Z</time>
      </trkpt>
      <trkpt lat="44.91135" lon="4.22952">
        <ele>1065</ele>
        <time>2022-06-06T11:36:58Z</time>
      </trkpt>
      <trkpt lat="44.91141" lon="4.22933">
        <ele>1066</ele>
        <time>2022-06-06T11:37:01Z</time>
      </trkpt>
      <trkpt lat="44.91146" lon="4.22899">
        <ele>1069</ele>
        <time>2022-06-06T11:37:05Z</time>
      </trkpt>
      <trkpt lat="44.91146" lon="4.22862">
        <ele>1071</ele>
        <time>2022-06-06T11:37:10Z</time>
      </trkpt>
      <trkpt lat="44.91133" lon="4.22795">
        <ele>1072</ele>
        <time>2022-06-06T11:37:19Z</time>
      </trkpt>
      <trkpt lat="44.91132" lon="4.22772">
        <ele>1073</ele>
        <time>2022-06-06T11:37:22Z</time>
      </trkpt>
      <trkpt lat="44.91138" lon="4.22693">
        <ele>1080</ele>
        <time>2022-06-06T11:37:32Z</time>
      </trkpt>
      <trkpt lat="44.91137" lon="4.22668">
        <ele>1081</ele>
        <time>2022-06-06T11:37:35Z</time>
      </trkpt>
      <trkpt lat="44.91123" lon="4.22612">
        <ele>1082</ele>
        <time>2022-06-06T11:37:42Z</time>
      </trkpt>
      <trkpt lat="44.91102" lon="4.22512">
        <ele>1087</ele>
        <time>2022-06-06T11:37:55Z</time>
      </trkpt>
      <trkpt lat="44.91083" lon="4.22465">
        <ele>1087</ele>
        <time>2022-06-06T11:38:02Z</time>
      </trkpt>
      <trkpt lat="44.91057" lon="4.22368">
        <ele>1094</ele>
        <time>2022-06-06T11:38:15Z</time>
      </trkpt>
      <trkpt lat="44.91051" lon="4.22357">
        <ele>1094</ele>
        <time>2022-06-06T11:38:17Z</time>
      </trkpt>
      <trkpt lat="44.91029" lon="4.22328">
        <ele>1093</ele>
        <time>2022-06-06T11:38:22Z</time>
      </trkpt>
      <trkpt lat="44.91026" lon="4.22321">
        <ele>1093</ele>
        <time>2022-06-06T11:38:23Z</time>
      </trkpt>
      <trkpt lat="44.91025" lon="4.22312">
        <ele>1094</ele>
        <time>2022-06-06T11:38:25Z</time>
      </trkpt>
      <trkpt lat="44.91026" lon="4.22305">
        <ele>1095</ele>
        <time>2022-06-06T11:38:25Z</time>
      </trkpt>
      <trkpt lat="44.91029" lon="4.22301">
        <ele>1097</ele>
        <time>2022-06-06T11:38:26Z</time>
      </trkpt>
      <trkpt lat="44.91034" lon="4.22299">
        <ele>1098</ele>
        <time>2022-06-06T11:38:27Z</time>
      </trkpt>
      <trkpt lat="44.9104" lon="4.22302">
        <ele>1099</ele>
        <time>2022-06-06T11:38:28Z</time>
      </trkpt>
      <trkpt lat="44.91061" lon="4.22322">
        <ele>1100</ele>
        <time>2022-06-06T11:38:33Z</time>
      </trkpt>
      <trkpt lat="44.91069" lon="4.22333">
        <ele>1099</ele>
        <time>2022-06-06T11:38:35Z</time>
      </trkpt>
      <trkpt lat="44.91081" lon="4.22355">
        <ele>1099</ele>
        <time>2022-06-06T11:38:38Z</time>
      </trkpt>
      <trkpt lat="44.911" lon="4.22377">
        <ele>1102</ele>
        <time>2022-06-06T11:38:43Z</time>
      </trkpt>
      <trkpt lat="44.91108" lon="4.22393">
        <ele>1103</ele>
        <time>2022-06-06T11:38:45Z</time>
      </trkpt>
      <trkpt lat="44.91114" lon="4.22418">
        <ele>1102</ele>
        <time>2022-06-06T11:38:48Z</time>
      </trkpt>
      <trkpt lat="44.91121" lon="4.22432">
        <ele>1102</ele>
        <time>2022-06-06T11:38:51Z</time>
      </trkpt>
      <trkpt lat="44.91127" lon="4.22439">
        <ele>1103</ele>
        <time>2022-06-06T11:38:52Z</time>
      </trkpt>
      <trkpt lat="44.91147" lon="4.22448">
        <ele>1107</ele>
        <time>2022-06-06T11:38:56Z</time>
      </trkpt>
      <trkpt lat="44.91167" lon="4.22461">
        <ele>1111</ele>
        <time>2022-06-06T11:39:00Z</time>
      </trkpt>
      <trkpt lat="44.91188" lon="4.22484">
        <ele>1113</ele>
        <time>2022-06-06T11:39:04Z</time>
      </trkpt>
      <trkpt lat="44.91225" lon="4.22521">
        <ele>1116</ele>
        <time>2022-06-06T11:39:12Z</time>
      </trkpt>
      <trkpt lat="44.91236" lon="4.2254">
        <ele>1117</ele>
        <time>2022-06-06T11:39:15Z</time>
      </trkpt>
      <trkpt lat="44.91242" lon="4.22556">
        <ele>1117</ele>
        <time>2022-06-06T11:39:18Z</time>
      </trkpt>
      <trkpt lat="44.91254" lon="4.22607">
        <ele>1115</ele>
        <time>2022-06-06T11:39:25Z</time>
      </trkpt>
      <trkpt lat="44.91264" lon="4.2264">
        <ele>1116</ele>
        <time>2022-06-06T11:39:29Z</time>
      </trkpt>
      <trkpt lat="44.91274" lon="4.22682">
        <ele>1117</ele>
        <time>2022-06-06T11:39:35Z</time>
      </trkpt>
      <trkpt lat="44.91279" lon="4.22708">
        <ele>1118</ele>
        <time>2022-06-06T11:39:38Z</time>
      </trkpt>
      <trkpt lat="44.91279" lon="4.22736">
        <ele>1118</ele>
        <time>2022-06-06T11:39:42Z</time>
      </trkpt>
      <trkpt lat="44.91269" lon="4.22776">
        <ele>1115</ele>
        <time>2022-06-06T11:39:47Z</time>
      </trkpt>
      <trkpt lat="44.91269" lon="4.2279">
        <ele>1115</ele>
        <time>2022-06-06T11:39:49Z</time>
      </trkpt>
      <trkpt lat="44.91273" lon="4.22861">
        <ele>1115</ele>
        <time>2022-06-06T11:39:58Z</time>
      </trkpt>
      <trkpt lat="44.91277" lon="4.22891">
        <ele>1114</ele>
        <time>2022-06-06T11:40:01Z</time>
      </trkpt>
      <trkpt lat="44.9128" lon="4.22899">
        <ele>1114</ele>
        <time>2022-06-06T11:40:03Z</time>
      </trkpt>
      <trkpt lat="44.91283" lon="4.22903">
        <ele>1115</ele>
        <time>2022-06-06T11:40:03Z</time>
      </trkpt>
      <trkpt lat="44.91288" lon="4.22904">
        <ele>1115</ele>
        <time>2022-06-06T11:40:04Z</time>
      </trkpt>
      <trkpt lat="44.91296" lon="4.229">
        <ele>1117</ele>
        <time>2022-06-06T11:40:06Z</time>
      </trkpt>
      <trkpt lat="44.91308" lon="4.22863">
        <ele>1121</ele>
        <time>2022-06-06T11:40:11Z</time>
      </trkpt>
      <trkpt lat="44.91321" lon="4.2283">
        <ele>1126</ele>
        <time>2022-06-06T11:40:16Z</time>
      </trkpt>
      <trkpt lat="44.91346" lon="4.22775">
        <ele>1130</ele>
        <time>2022-06-06T11:40:24Z</time>
      </trkpt>
      <trkpt lat="44.91352" lon="4.22759">
        <ele>1131</ele>
        <time>2022-06-06T11:40:26Z</time>
      </trkpt>
      <trkpt lat="44.91355" lon="4.22743">
        <ele>1132</ele>
        <time>2022-06-06T11:40:28Z</time>
      </trkpt>
      <trkpt lat="44.91357" lon="4.22726">
        <ele>1134</ele>
        <time>2022-06-06T11:40:30Z</time>
      </trkpt>
      <trkpt lat="44.91359" lon="4.2267">
        <ele>1139</ele>
        <time>2022-06-06T11:40:38Z</time>
      </trkpt>
      <trkpt lat="44.91359" lon="4.22651">
        <ele>1141</ele>
        <time>2022-06-06T11:40:40Z</time>
      </trkpt>
      <trkpt lat="44.91357" lon="4.22634">
        <ele>1143</ele>
        <time>2022-06-06T11:40:42Z</time>
      </trkpt>
      <trkpt lat="44.91352" lon="4.22608">
        <ele>1145</ele>
        <time>2022-06-06T11:40:45Z</time>
      </trkpt>
      <trkpt lat="44.91321" lon="4.22471">
        <ele>1158</ele>
        <time>2022-06-06T11:41:04Z</time>
      </trkpt>
      <trkpt lat="44.91287" lon="4.22366">
        <ele>1161</ele>
        <time>2022-06-06T11:41:18Z</time>
      </trkpt>
      <trkpt lat="44.91284" lon="4.22353">
        <ele>1162</ele>
        <time>2022-06-06T11:41:20Z</time>
      </trkpt>
      <trkpt lat="44.91283" lon="4.22339">
        <ele>1163</ele>
        <time>2022-06-06T11:41:22Z</time>
      </trkpt>
      <trkpt lat="44.91289" lon="4.22286">
        <ele>1171</ele>
        <time>2022-06-06T11:41:28Z</time>
      </trkpt>
      <trkpt lat="44.91286" lon="4.22268">
        <ele>1171</ele>
        <time>2022-06-06T11:41:31Z</time>
      </trkpt>
      <trkpt lat="44.91279" lon="4.22244">
        <ele>1171</ele>
        <time>2022-06-06T11:41:34Z</time>
      </trkpt>
      <trkpt lat="44.91266" lon="4.22218">
        <ele>1172</ele>
        <time>2022-06-06T11:41:38Z</time>
      </trkpt>
      <trkpt lat="44.91246" lon="4.22197">
        <ele>1171</ele>
        <time>2022-06-06T11:41:42Z</time>
      </trkpt>
      <trkpt lat="44.91217" lon="4.22174">
        <ele>1168</ele>
        <time>2022-06-06T11:41:48Z</time>
      </trkpt>
      <trkpt lat="44.91206" lon="4.22162">
        <ele>1167</ele>
        <time>2022-06-06T11:41:51Z</time>
      </trkpt>
      <trkpt lat="44.912" lon="4.22147">
        <ele>1166</ele>
        <time>2022-06-06T11:41:53Z</time>
      </trkpt>
      <trkpt lat="44.91198" lon="4.22132">
        <ele>1167</ele>
        <time>2022-06-06T11:41:55Z</time>
      </trkpt>
      <trkpt lat="44.91198" lon="4.22115">
        <ele>1168</ele>
        <time>2022-06-06T11:41:57Z</time>
      </trkpt>
      <trkpt lat="44.91202" lon="4.22093">
        <ele>1170</ele>
        <time>2022-06-06T11:42:00Z</time>
      </trkpt>
      <trkpt lat="44.91217" lon="4.2204">
        <ele>1176</ele>
        <time>2022-06-06T11:42:07Z</time>
      </trkpt>
      <trkpt lat="44.91226" lon="4.22014">
        <ele>1179</ele>
        <time>2022-06-06T11:42:11Z</time>
      </trkpt>
      <trkpt lat="44.91264" lon="4.21928">
        <ele>1189</ele>
        <time>2022-06-06T11:42:24Z</time>
      </trkpt>
      <trkpt lat="44.91268" lon="4.21916">
        <ele>1190</ele>
        <time>2022-06-06T11:42:25Z</time>
      </trkpt>
      <trkpt lat="44.9129" lon="4.2181">
        <ele>1193</ele>
        <time>2022-06-06T11:42:39Z</time>
      </trkpt>
      <trkpt lat="44.91309" lon="4.21755">
        <ele>1199</ele>
        <time>2022-06-06T11:42:47Z</time>
      </trkpt>
      <trkpt lat="44.91312" lon="4.21741">
        <ele>1200</ele>
        <time>2022-06-06T11:42:49Z</time>
      </trkpt>
      <trkpt lat="44.91313" lon="4.21717">
        <ele>1200</ele>
        <time>2022-06-06T11:42:52Z</time>
      </trkpt>
      <trkpt lat="44.91315" lon="4.21709">
        <ele>1200</ele>
        <time>2022-06-06T11:42:53Z</time>
      </trkpt>
      <trkpt lat="44.9132" lon="4.21704">
        <ele>1202</ele>
        <time>2022-06-06T11:42:54Z</time>
      </trkpt>
      <trkpt lat="44.91327" lon="4.21702">
        <ele>1204</ele>
        <time>2022-06-06T11:42:55Z</time>
      </trkpt>
      <trkpt lat="44.91333" lon="4.21705">
        <ele>1205</ele>
        <time>2022-06-06T11:42:56Z</time>
      </trkpt>
      <trkpt lat="44.91336" lon="4.21711">
        <ele>1206</ele>
        <time>2022-06-06T11:42:57Z</time>
      </trkpt>
      <trkpt lat="44.91338" lon="4.2172">
        <ele>1207</ele>
        <time>2022-06-06T11:42:58Z</time>
      </trkpt>
      <trkpt lat="44.91333" lon="4.2175">
        <ele>1206</ele>
        <time>2022-06-06T11:43:02Z</time>
      </trkpt>
      <trkpt lat="44.91332" lon="4.21783">
        <ele>1206</ele>
        <time>2022-06-06T11:43:06Z</time>
      </trkpt>
      <trkpt lat="44.91335" lon="4.21801">
        <ele>1207</ele>
        <time>2022-06-06T11:43:09Z</time>
      </trkpt>
      <trkpt lat="44.91346" lon="4.21852">
        <ele>1211</ele>
        <time>2022-06-06T11:43:15Z</time>
      </trkpt>
      <trkpt lat="44.91349" lon="4.21878">
        <ele>1212</ele>
        <time>2022-06-06T11:43:19Z</time>
      </trkpt>
      <trkpt lat="44.91349" lon="4.21894">
        <ele>1212</ele>
        <time>2022-06-06T11:43:21Z</time>
      </trkpt>
      <trkpt lat="44.91353" lon="4.21921">
        <ele>1214</ele>
        <time>2022-06-06T11:43:24Z</time>
      </trkpt>
      <trkpt lat="44.91358" lon="4.2193">
        <ele>1215</ele>
        <time>2022-06-06T11:43:26Z</time>
      </trkpt>
      <trkpt lat="44.91366" lon="4.21939">
        <ele>1216</ele>
        <time>2022-06-06T11:43:28Z</time>
      </trkpt>
      <trkpt lat="44.91392" lon="4.21959">
        <ele>1221</ele>
        <time>2022-06-06T11:43:33Z</time>
      </trkpt>
      <trkpt lat="44.91409" lon="4.21978">
        <ele>1223</ele>
        <time>2022-06-06T11:43:37Z</time>
      </trkpt>
      <trkpt lat="44.91465" lon="4.2206">
        <ele>1230</ele>
        <time>2022-06-06T11:43:51Z</time>
      </trkpt>
      <trkpt lat="44.91479" lon="4.22084">
        <ele>1230</ele>
        <time>2022-06-06T11:43:55Z</time>
      </trkpt>
      <trkpt lat="44.915" lon="4.22115">
        <ele>1233</ele>
        <time>2022-06-06T11:44:00Z</time>
      </trkpt>
      <trkpt lat="44.91505" lon="4.22126">
        <ele>1234</ele>
        <time>2022-06-06T11:44:02Z</time>
      </trkpt>
      <trkpt lat="44.91516" lon="4.22177">
        <ele>1233</ele>
        <time>2022-06-06T11:44:09Z</time>
      </trkpt>
      <trkpt lat="44.91517" lon="4.22193">
        <ele>1233</ele>
        <time>2022-06-06T11:44:11Z</time>
      </trkpt>
      <trkpt lat="44.91516" lon="4.22209">
        <ele>1232</ele>
        <time>2022-06-06T11:44:13Z</time>
      </trkpt>
      <trkpt lat="44.91508" lon="4.2225">
        <ele>1228</ele>
        <time>2022-06-06T11:44:18Z</time>
      </trkpt>
      <trkpt lat="44.9151" lon="4.2226">
        <ele>1228</ele>
        <time>2022-06-06T11:44:19Z</time>
      </trkpt>
      <trkpt lat="44.91518" lon="4.2224">
        <ele>1231</ele>
        <time>2022-06-06T11:44:22Z</time>
      </trkpt>
      <trkpt lat="44.91524" lon="4.22215">
        <ele>1234</ele>
        <time>2022-06-06T11:44:26Z</time>
      </trkpt>
      <trkpt lat="44.91528" lon="4.22175">
        <ele>1238</ele>
        <time>2022-06-06T11:44:31Z</time>
      </trkpt>
      <trkpt lat="44.91528" lon="4.22139">
        <ele>1243</ele>
        <time>2022-06-06T11:44:35Z</time>
      </trkpt>
      <trkpt lat="44.91526" lon="4.22118">
        <ele>1246</ele>
        <time>2022-06-06T11:44:38Z</time>
      </trkpt>
      <trkpt lat="44.91523" lon="4.22105">
        <ele>1246</ele>
        <time>2022-06-06T11:44:40Z</time>
      </trkpt>
      <trkpt lat="44.91518" lon="4.22091">
        <ele>1246</ele>
        <time>2022-06-06T11:44:42Z</time>
      </trkpt>
      <trkpt lat="44.91501" lon="4.22061">
        <ele>1241</ele>
        <time>2022-06-06T11:44:46Z</time>
      </trkpt>
      <trkpt lat="44.91491" lon="4.22038">
        <ele>1242</ele>
        <time>2022-06-06T11:44:50Z</time>
      </trkpt>
      <trkpt lat="44.91484" lon="4.22019">
        <ele>1242</ele>
        <time>2022-06-06T11:44:53Z</time>
      </trkpt>
      <trkpt lat="44.91482" lon="4.21995">
        <ele>1245</ele>
        <time>2022-06-06T11:44:56Z</time>
      </trkpt>
      <trkpt lat="44.91479" lon="4.21903">
        <ele>1249</ele>
        <time>2022-06-06T11:45:07Z</time>
      </trkpt>
      <trkpt lat="44.91486" lon="4.21829">
        <ele>1250</ele>
        <time>2022-06-06T11:45:17Z</time>
      </trkpt>
      <trkpt lat="44.91521" lon="4.21676">
        <ele>1255</ele>
        <time>2022-06-06T11:45:37Z</time>
      </trkpt>
      <trkpt lat="44.91544" lon="4.21625">
        <ele>1257</ele>
        <time>2022-06-06T11:45:45Z</time>
      </trkpt>
      <trkpt lat="44.91568" lon="4.21595">
        <ele>1261</ele>
        <time>2022-06-06T11:45:50Z</time>
      </trkpt>
      <trkpt lat="44.91626" lon="4.21565">
        <ele>1269</ele>
        <time>2022-06-06T11:46:01Z</time>
      </trkpt>
      <trkpt lat="44.91649" lon="4.21565">
        <ele>1271</ele>
        <time>2022-06-06T11:46:05Z</time>
      </trkpt>
      <trkpt lat="44.91661" lon="4.2156">
        <ele>1272</ele>
        <time>2022-06-06T11:46:08Z</time>
      </trkpt>
      <trkpt lat="44.91665" lon="4.21547">
        <ele>1273</ele>
        <time>2022-06-06T11:46:09Z</time>
      </trkpt>
      <trkpt lat="44.91665" lon="4.2153">
        <ele>1273</ele>
        <time>2022-06-06T11:46:11Z</time>
      </trkpt>
      <trkpt lat="44.91643" lon="4.21491">
        <ele>1270</ele>
        <time>2022-06-06T11:46:18Z</time>
      </trkpt>
      <trkpt lat="44.91639" lon="4.21471">
        <ele>1270</ele>
        <time>2022-06-06T11:46:20Z</time>
      </trkpt>
      <trkpt lat="44.91645" lon="4.21434">
        <ele>1272</ele>
        <time>2022-06-06T11:46:25Z</time>
      </trkpt>
      <trkpt lat="44.91657" lon="4.21391">
        <ele>1276</ele>
        <time>2022-06-06T11:46:31Z</time>
      </trkpt>
      <trkpt lat="44.91655" lon="4.21359">
        <ele>1279</ele>
        <time>2022-06-06T11:46:35Z</time>
      </trkpt>
      <trkpt lat="44.91624" lon="4.21194">
        <ele>1283</ele>
        <time>2022-06-06T11:46:57Z</time>
      </trkpt>
      <trkpt lat="44.91627" lon="4.21174">
        <ele>1285</ele>
        <time>2022-06-06T11:46:59Z</time>
      </trkpt>
      <trkpt lat="44.91636" lon="4.21167">
        <ele>1288</ele>
        <time>2022-06-06T11:47:01Z</time>
      </trkpt>
      <trkpt lat="44.91647" lon="4.21174">
        <ele>1290</ele>
        <time>2022-06-06T11:47:03Z</time>
      </trkpt>
      <trkpt lat="44.91679" lon="4.21216">
        <ele>1293</ele>
        <time>2022-06-06T11:47:11Z</time>
      </trkpt>
      <trkpt lat="44.9169" lon="4.21226">
        <ele>1293</ele>
        <time>2022-06-06T11:47:13Z</time>
      </trkpt>
      <trkpt lat="44.91726" lon="4.21233">
        <ele>1296</ele>
        <time>2022-06-06T11:47:20Z</time>
      </trkpt>
      <trkpt lat="44.91758" lon="4.21221">
        <ele>1301</ele>
        <time>2022-06-06T11:47:26Z</time>
      </trkpt>
      <trkpt lat="44.91803" lon="4.2122">
        <ele>1306</ele>
        <time>2022-06-06T11:47:34Z</time>
      </trkpt>
      <trkpt lat="44.91825" lon="4.21208">
        <ele>1309</ele>
        <time>2022-06-06T11:47:38Z</time>
      </trkpt>
      <trkpt lat="44.91852" lon="4.21158">
        <ele>1316</ele>
        <time>2022-06-06T11:47:46Z</time>
      </trkpt>
      <trkpt lat="44.91875" lon="4.21133">
        <ele>1321</ele>
        <time>2022-06-06T11:47:51Z</time>
      </trkpt>
      <trkpt lat="44.91911" lon="4.21109">
        <ele>1324</ele>
        <time>2022-06-06T11:47:58Z</time>
      </trkpt>
      <trkpt lat="44.91947" lon="4.20954">
        <ele>1330</ele>
        <time>2022-06-06T11:48:18Z</time>
      </trkpt>
      <trkpt lat="44.91945" lon="4.20932">
        <ele>1330</ele>
        <time>2022-06-06T11:48:21Z</time>
      </trkpt>
      <trkpt lat="44.91937" lon="4.20916">
        <ele>1329</ele>
        <time>2022-06-06T11:48:24Z</time>
      </trkpt>
      <trkpt lat="44.91895" lon="4.2089">
        <ele>1330</ele>
        <time>2022-06-06T11:48:32Z</time>
      </trkpt>
      <trkpt lat="44.91876" lon="4.20874">
        <ele>1332</ele>
        <time>2022-06-06T11:48:36Z</time>
      </trkpt>
      <trkpt lat="44.91852" lon="4.20847">
        <ele>1332</ele>
        <time>2022-06-06T11:48:41Z</time>
      </trkpt>
      <trkpt lat="44.91825" lon="4.20793">
        <ele>1334</ele>
        <time>2022-06-06T11:48:50Z</time>
      </trkpt>
      <trkpt lat="44.91792" lon="4.20711">
        <ele>1340</ele>
        <time>2022-06-06T11:49:01Z</time>
      </trkpt>
      <trkpt lat="44.91779" lon="4.20688">
        <ele>1344</ele>
        <time>2022-06-06T11:49:05Z</time>
      </trkpt>
      <trkpt lat="44.91747" lon="4.20669">
        <ele>1342</ele>
        <time>2022-06-06T11:49:11Z</time>
      </trkpt>
      <trkpt lat="44.91709" lon="4.20659">
        <ele>1338</ele>
        <time>2022-06-06T11:49:18Z</time>
      </trkpt>
      <trkpt lat="44.91677" lon="4.20661">
        <ele>1333</ele>
        <time>2022-06-06T11:49:24Z</time>
      </trkpt>
      <trkpt lat="44.91565" lon="4.20701">
        <ele>1326</ele>
        <time>2022-06-06T11:49:45Z</time>
      </trkpt>
      <trkpt lat="44.91535" lon="4.20704">
        <ele>1326</ele>
        <time>2022-06-06T11:49:50Z</time>
      </trkpt>
      <trkpt lat="44.91461" lon="4.20686">
        <ele>1327</ele>
        <time>2022-06-06T11:50:03Z</time>
      </trkpt>
      <trkpt lat="44.91435" lon="4.2069">
        <ele>1326</ele>
        <time>2022-06-06T11:50:08Z</time>
      </trkpt>
      <trkpt lat="44.91354" lon="4.2071">
        <ele>1325</ele>
        <time>2022-06-06T11:50:23Z</time>
      </trkpt>
      <trkpt lat="44.91319" lon="4.2073">
        <ele>1321</ele>
        <time>2022-06-06T11:50:29Z</time>
      </trkpt>
      <trkpt lat="44.91297" lon="4.20733">
        <ele>1320</ele>
        <time>2022-06-06T11:50:33Z</time>
      </trkpt>
      <trkpt lat="44.91257" lon="4.20729">
        <ele>1321</ele>
        <time>2022-06-06T11:50:40Z</time>
      </trkpt>
      <trkpt lat="44.91222" lon="4.2072">
        <ele>1324</ele>
        <time>2022-06-06T11:50:47Z</time>
      </trkpt>
      <trkpt lat="44.91202" lon="4.20721">
        <ele>1325</ele>
        <time>2022-06-06T11:50:50Z</time>
      </trkpt>
      <trkpt lat="44.91151" lon="4.20738">
        <ele>1321</ele>
        <time>2022-06-06T11:51:00Z</time>
      </trkpt>
      <trkpt lat="44.91119" lon="4.20739">
        <ele>1321</ele>
        <time>2022-06-06T11:51:05Z</time>
      </trkpt>
      <trkpt lat="44.91098" lon="4.20723">
        <ele>1325</ele>
        <time>2022-06-06T11:51:09Z</time>
      </trkpt>
      <trkpt lat="44.91078" lon="4.20691">
        <ele>1333</ele>
        <time>2022-06-06T11:51:15Z</time>
      </trkpt>
      <trkpt lat="44.9106" lon="4.20673">
        <ele>1336</ele>
        <time>2022-06-06T11:51:19Z</time>
      </trkpt>
      <trkpt lat="44.91027" lon="4.20652">
        <ele>1338</ele>
        <time>2022-06-06T11:51:25Z</time>
      </trkpt>
      <trkpt lat="44.90985" lon="4.20637">
        <ele>1338</ele>
        <time>2022-06-06T11:51:33Z</time>
      </trkpt>
      <trkpt lat="44.90951" lon="4.2064">
        <ele>1337</ele>
        <time>2022-06-06T11:51:39Z</time>
      </trkpt>
      <trkpt lat="44.90934" lon="4.20637">
        <ele>1337</ele>
        <time>2022-06-06T11:51:42Z</time>
      </trkpt>
      <trkpt lat="44.90909" lon="4.20615">
        <ele>1340</ele>
        <time>2022-06-06T11:51:47Z</time>
      </trkpt>
      <trkpt lat="44.90864" lon="4.2059">
        <ele>1341</ele>
        <time>2022-06-06T11:51:56Z</time>
      </trkpt>
      <trkpt lat="44.90828" lon="4.20576">
        <ele>1340</ele>
        <time>2022-06-06T11:52:03Z</time>
      </trkpt>
      <trkpt lat="44.90809" lon="4.20578">
        <ele>1340</ele>
        <time>2022-06-06T11:52:06Z</time>
      </trkpt>
      <trkpt lat="44.90427" lon="4.2073">
        <ele>1324</ele>
        <time>2022-06-06T11:53:17Z</time>
      </trkpt>
      <trkpt lat="44.90336" lon="4.20727">
        <ele>1325</ele>
        <time>2022-06-06T11:53:33Z</time>
      </trkpt>
      <trkpt lat="44.90308" lon="4.2072">
        <ele>1323</ele>
        <time>2022-06-06T11:53:38Z</time>
      </trkpt>
      <trkpt lat="44.90292" lon="4.20708">
        <ele>1322</ele>
        <time>2022-06-06T11:53:41Z</time>
      </trkpt>
      <trkpt lat="44.90274" lon="4.20687">
        <ele>1321</ele>
        <time>2022-06-06T11:53:45Z</time>
      </trkpt>
      <trkpt lat="44.90267" lon="4.20674">
        <ele>1321</ele>
        <time>2022-06-06T11:53:47Z</time>
      </trkpt>
      <trkpt lat="44.90258" lon="4.2064">
        <ele>1320</ele>
        <time>2022-06-06T11:53:52Z</time>
      </trkpt>
      <trkpt lat="44.90251" lon="4.20578">
        <ele>1320</ele>
        <time>2022-06-06T11:54:00Z</time>
      </trkpt>
      <trkpt lat="44.90239" lon="4.20538">
        <ele>1321</ele>
        <time>2022-06-06T11:54:05Z</time>
      </trkpt>
      <trkpt lat="44.90218" lon="4.20498">
        <ele>1321</ele>
        <time>2022-06-06T11:54:11Z</time>
      </trkpt>
      <trkpt lat="44.90175" lon="4.20443">
        <ele>1321</ele>
        <time>2022-06-06T11:54:22Z</time>
      </trkpt>
      <trkpt lat="44.90126" lon="4.20391">
        <ele>1320</ele>
        <time>2022-06-06T11:54:33Z</time>
      </trkpt>
      <trkpt lat="44.90114" lon="4.20363">
        <ele>1321</ele>
        <time>2022-06-06T11:54:37Z</time>
      </trkpt>
      <trkpt lat="44.90064" lon="4.20215">
        <ele>1326</ele>
        <time>2022-06-06T11:54:57Z</time>
      </trkpt>
      <trkpt lat="44.9003" lon="4.20164">
        <ele>1325</ele>
        <time>2022-06-06T11:55:06Z</time>
      </trkpt>
      <trkpt lat="44.90015" lon="4.20151">
        <ele>1325</ele>
        <time>2022-06-06T11:55:09Z</time>
      </trkpt>
      <trkpt lat="44.89998" lon="4.20147">
        <ele>1323</ele>
        <time>2022-06-06T11:55:12Z</time>
      </trkpt>
      <trkpt lat="44.89962" lon="4.20158">
        <ele>1318</ele>
        <time>2022-06-06T11:55:19Z</time>
      </trkpt>
      <trkpt lat="44.89944" lon="4.20158">
        <ele>1316</ele>
        <time>2022-06-06T11:55:22Z</time>
      </trkpt>
      <trkpt lat="44.89919" lon="4.20153">
        <ele>1314</ele>
        <time>2022-06-06T11:55:27Z</time>
      </trkpt>
      <trkpt lat="44.89898" lon="4.20137">
        <ele>1309</ele>
        <time>2022-06-06T11:55:31Z</time>
      </trkpt>
      <trkpt lat="44.89885" lon="4.20083">
        <ele>1309</ele>
        <time>2022-06-06T11:55:38Z</time>
      </trkpt>
      <trkpt lat="44.89878" lon="4.20029">
        <ele>1310</ele>
        <time>2022-06-06T11:55:45Z</time>
      </trkpt>
      <trkpt lat="44.89865" lon="4.19965">
        <ele>1306</ele>
        <time>2022-06-06T11:55:53Z</time>
      </trkpt>
      <trkpt lat="44.89863" lon="4.19943">
        <ele>1305</ele>
        <time>2022-06-06T11:55:56Z</time>
      </trkpt>
      <trkpt lat="44.89868" lon="4.19922">
        <ele>1308</ele>
        <time>2022-06-06T11:55:59Z</time>
      </trkpt>
      <trkpt lat="44.89931" lon="4.19671">
        <ele>1316</ele>
        <time>2022-06-06T11:56:33Z</time>
      </trkpt>
      <trkpt lat="44.89924" lon="4.19545">
        <ele>1313</ele>
        <time>2022-06-06T11:56:49Z</time>
      </trkpt>
      <trkpt lat="44.89919" lon="4.19531">
        <ele>1312</ele>
        <time>2022-06-06T11:56:51Z</time>
      </trkpt>
      <trkpt lat="44.8991" lon="4.19521">
        <ele>1311</ele>
        <time>2022-06-06T11:56:53Z</time>
      </trkpt>
      <trkpt lat="44.89855" lon="4.19492">
        <ele>1303</ele>
        <time>2022-06-06T11:57:03Z</time>
      </trkpt>
      <trkpt lat="44.89845" lon="4.19484">
        <ele>1303</ele>
        <time>2022-06-06T11:57:05Z</time>
      </trkpt>
      <trkpt lat="44.89835" lon="4.19472">
        <ele>1303</ele>
        <time>2022-06-06T11:57:07Z</time>
      </trkpt>
      <trkpt lat="44.89718" lon="4.19272">
        <ele>1308</ele>
        <time>2022-06-06T11:57:40Z</time>
      </trkpt>
      <trkpt lat="44.89643" lon="4.19238">
        <ele>1304</ele>
        <time>2022-06-06T11:57:54Z</time>
      </trkpt>
      <trkpt lat="44.89578" lon="4.19187">
        <ele>1305</ele>
        <time>2022-06-06T11:58:07Z</time>
      </trkpt>
      <trkpt lat="44.89558" lon="4.19182">
        <ele>1307</ele>
        <time>2022-06-06T11:58:11Z</time>
      </trkpt>
      <trkpt lat="44.89539" lon="4.19199">
        <ele>1307</ele>
        <time>2022-06-06T11:58:15Z</time>
      </trkpt>
      <trkpt lat="44.89532" lon="4.19217">
        <ele>1306</ele>
        <time>2022-06-06T11:58:18Z</time>
      </trkpt>
      <trkpt lat="44.89529" lon="4.19237">
        <ele>1306</ele>
        <time>2022-06-06T11:58:20Z</time>
      </trkpt>
      <trkpt lat="44.89548" lon="4.1932">
        <ele>1303</ele>
        <time>2022-06-06T11:58:31Z</time>
      </trkpt>
      <trkpt lat="44.89551" lon="4.19368">
        <ele>1304</ele>
        <time>2022-06-06T11:58:37Z</time>
      </trkpt>
      <trkpt lat="44.89574" lon="4.19445">
        <ele>1300</ele>
        <time>2022-06-06T11:58:48Z</time>
      </trkpt>
      <trkpt lat="44.89571" lon="4.19474">
        <ele>1300</ele>
        <time>2022-06-06T11:58:51Z</time>
      </trkpt>
      <trkpt lat="44.89549" lon="4.19543">
        <ele>1299</ele>
        <time>2022-06-06T11:59:01Z</time>
      </trkpt>
      <trkpt lat="44.89489" lon="4.19646">
        <ele>1303</ele>
        <time>2022-06-06T11:59:18Z</time>
      </trkpt>
      <trkpt lat="44.8948" lon="4.19672">
        <ele>1302</ele>
        <time>2022-06-06T11:59:21Z</time>
      </trkpt>
      <trkpt lat="44.89448" lon="4.19867">
        <ele>1292</ele>
        <time>2022-06-06T11:59:47Z</time>
      </trkpt>
      <trkpt lat="44.89439" lon="4.19904">
        <ele>1293</ele>
        <time>2022-06-06T11:59:52Z</time>
      </trkpt>
      <trkpt lat="44.89425" lon="4.19918">
        <ele>1296</ele>
        <time>2022-06-06T11:59:55Z</time>
      </trkpt>
      <trkpt lat="44.89373" lon="4.19943">
        <ele>1295</ele>
        <time>2022-06-06T12:00:04Z</time>
      </trkpt>
      <trkpt lat="44.8932" lon="4.19957">
        <ele>1296</ele>
        <time>2022-06-06T12:00:14Z</time>
      </trkpt>
      <trkpt lat="44.89285" lon="4.1995">
        <ele>1300</ele>
        <time>2022-06-06T12:00:20Z</time>
      </trkpt>
      <trkpt lat="44.89243" lon="4.19956">
        <ele>1302</ele>
        <time>2022-06-06T12:00:28Z</time>
      </trkpt>
      <trkpt lat="44.89183" lon="4.19949">
        <ele>1311</ele>
        <time>2022-06-06T12:00:39Z</time>
      </trkpt>
      <trkpt lat="44.89175" lon="4.19953">
        <ele>1311</ele>
        <time>2022-06-06T12:00:40Z</time>
      </trkpt>
      <trkpt lat="44.89169" lon="4.19959">
        <ele>1311</ele>
        <time>2022-06-06T12:00:41Z</time>
      </trkpt>
      <trkpt lat="44.89162" lon="4.19981">
        <ele>1309</ele>
        <time>2022-06-06T12:00:44Z</time>
      </trkpt>
      <trkpt lat="44.89165" lon="4.20008">
        <ele>1305</ele>
        <time>2022-06-06T12:00:48Z</time>
      </trkpt>
      <trkpt lat="44.89173" lon="4.20031">
        <ele>1305</ele>
        <time>2022-06-06T12:00:51Z</time>
      </trkpt>
      <trkpt lat="44.89249" lon="4.20199">
        <ele>1299</ele>
        <time>2022-06-06T12:01:16Z</time>
      </trkpt>
      <trkpt lat="44.89257" lon="4.20222">
        <ele>1297</ele>
        <time>2022-06-06T12:01:19Z</time>
      </trkpt>
      <trkpt lat="44.89257" lon="4.20246">
        <ele>1298</ele>
        <time>2022-06-06T12:01:22Z</time>
      </trkpt>
      <trkpt lat="44.89248" lon="4.20266">
        <ele>1300</ele>
        <time>2022-06-06T12:01:25Z</time>
      </trkpt>
      <trkpt lat="44.89236" lon="4.20283">
        <ele>1300</ele>
        <time>2022-06-06T12:01:28Z</time>
      </trkpt>
      <trkpt lat="44.89207" lon="4.20307">
        <ele>1302</ele>
        <time>2022-06-06T12:01:34Z</time>
      </trkpt>
      <trkpt lat="44.89171" lon="4.20323">
        <ele>1305</ele>
        <time>2022-06-06T12:01:41Z</time>
      </trkpt>
      <trkpt lat="44.89109" lon="4.20339">
        <ele>1305</ele>
        <time>2022-06-06T12:01:52Z</time>
      </trkpt>
      <trkpt lat="44.89079" lon="4.20368">
        <ele>1302</ele>
        <time>2022-06-06T12:01:59Z</time>
      </trkpt>
      <trkpt lat="44.89042" lon="4.20417">
        <ele>1299</ele>
        <time>2022-06-06T12:02:08Z</time>
      </trkpt>
      <trkpt lat="44.89035" lon="4.20422">
        <ele>1300</ele>
        <time>2022-06-06T12:02:09Z</time>
      </trkpt>
      <trkpt lat="44.89025" lon="4.20425">
        <ele>1301</ele>
        <time>2022-06-06T12:02:11Z</time>
      </trkpt>
      <trkpt lat="44.88956" lon="4.20431">
        <ele>1309</ele>
        <time>2022-06-06T12:02:23Z</time>
      </trkpt>
      <trkpt lat="44.88928" lon="4.20446">
        <ele>1311</ele>
        <time>2022-06-06T12:02:29Z</time>
      </trkpt>
      <trkpt lat="44.88881" lon="4.20483">
        <ele>1311</ele>
        <time>2022-06-06T12:02:38Z</time>
      </trkpt>
      <trkpt lat="44.88858" lon="4.20493">
        <ele>1313</ele>
        <time>2022-06-06T12:02:43Z</time>
      </trkpt>
      <trkpt lat="44.88833" lon="4.205">
        <ele>1315</ele>
        <time>2022-06-06T12:02:47Z</time>
      </trkpt>
      <trkpt lat="44.88818" lon="4.20501">
        <ele>1315</ele>
        <time>2022-06-06T12:02:50Z</time>
      </trkpt>
      <trkpt lat="44.88797" lon="4.20497">
        <ele>1317</ele>
        <time>2022-06-06T12:02:54Z</time>
      </trkpt>
      <trkpt lat="44.8878" lon="4.205">
        <ele>1317</ele>
        <time>2022-06-06T12:02:57Z</time>
      </trkpt>
      <trkpt lat="44.88763" lon="4.20508">
        <ele>1317</ele>
        <time>2022-06-06T12:03:00Z</time>
      </trkpt>
      <trkpt lat="44.88742" lon="4.20546">
        <ele>1316</ele>
        <time>2022-06-06T12:03:06Z</time>
      </trkpt>
      <trkpt lat="44.88724" lon="4.2063">
        <ele>1307</ele>
        <time>2022-06-06T12:03:17Z</time>
      </trkpt>
      <trkpt lat="44.8871" lon="4.2064">
        <ele>1305</ele>
        <time>2022-06-06T12:03:20Z</time>
      </trkpt>
      <trkpt lat="44.88694" lon="4.20645">
        <ele>1303</ele>
        <time>2022-06-06T12:03:23Z</time>
      </trkpt>
      <trkpt lat="44.88606" lon="4.20622">
        <ele>1294</ele>
        <time>2022-06-06T12:03:39Z</time>
      </trkpt>
      <trkpt lat="44.88596" lon="4.20616">
        <ele>1293</ele>
        <time>2022-06-06T12:03:40Z</time>
      </trkpt>
      <trkpt lat="44.88557" lon="4.20549">
        <ele>1303</ele>
        <time>2022-06-06T12:03:51Z</time>
      </trkpt>
      <trkpt lat="44.88553" lon="4.20543">
        <ele>1304</ele>
        <time>2022-06-06T12:03:52Z</time>
      </trkpt>
      <trkpt lat="44.8854" lon="4.20538">
        <ele>1303</ele>
        <time>2022-06-06T12:03:55Z</time>
      </trkpt>
      <trkpt lat="44.88532" lon="4.2054">
        <ele>1302</ele>
        <time>2022-06-06T12:03:56Z</time>
      </trkpt>
      <trkpt lat="44.88461" lon="4.20584">
        <ele>1284</ele>
        <time>2022-06-06T12:04:10Z</time>
      </trkpt>
      <trkpt lat="44.88406" lon="4.20613">
        <ele>1273</ele>
        <time>2022-06-06T12:04:21Z</time>
      </trkpt>
      <trkpt lat="44.88395" lon="4.20613">
        <ele>1270</ele>
        <time>2022-06-06T12:04:22Z</time>
      </trkpt>
      <trkpt lat="44.88399" lon="4.20591">
        <ele>1273</ele>
        <time>2022-06-06T12:04:25Z</time>
      </trkpt>
      <trkpt lat="44.88407" lon="4.20484">
        <ele>1288</ele>
        <time>2022-06-06T12:04:39Z</time>
      </trkpt>
      <trkpt lat="44.88396" lon="4.20408">
        <ele>1293</ele>
        <time>2022-06-06T12:04:49Z</time>
      </trkpt>
      <trkpt lat="44.88375" lon="4.20367">
        <ele>1292</ele>
        <time>2022-06-06T12:04:55Z</time>
      </trkpt>
      <trkpt lat="44.88363" lon="4.2033">
        <ele>1293</ele>
        <time>2022-06-06T12:05:00Z</time>
      </trkpt>
      <trkpt lat="44.88357" lon="4.2029">
        <ele>1294</ele>
        <time>2022-06-06T12:05:05Z</time>
      </trkpt>
      <trkpt lat="44.88356" lon="4.20247">
        <ele>1296</ele>
        <time>2022-06-06T12:05:11Z</time>
      </trkpt>
      <trkpt lat="44.8836" lon="4.20205">
        <ele>1296</ele>
        <time>2022-06-06T12:05:16Z</time>
      </trkpt>
      <trkpt lat="44.88373" lon="4.20156">
        <ele>1299</ele>
        <time>2022-06-06T12:05:23Z</time>
      </trkpt>
      <trkpt lat="44.88384" lon="4.20134">
        <ele>1299</ele>
        <time>2022-06-06T12:05:26Z</time>
      </trkpt>
      <trkpt lat="44.88398" lon="4.20112">
        <ele>1300</ele>
        <time>2022-06-06T12:05:30Z</time>
      </trkpt>
      <trkpt lat="44.88429" lon="4.20071">
        <ele>1304</ele>
        <time>2022-06-06T12:05:37Z</time>
      </trkpt>
      <trkpt lat="44.88462" lon="4.20043">
        <ele>1314</ele>
        <time>2022-06-06T12:05:44Z</time>
      </trkpt>
      <trkpt lat="44.88469" lon="4.20031">
        <ele>1315</ele>
        <time>2022-06-06T12:05:46Z</time>
      </trkpt>
      <trkpt lat="44.8847" lon="4.20022">
        <ele>1315</ele>
        <time>2022-06-06T12:05:47Z</time>
      </trkpt>
      <trkpt lat="44.8847" lon="4.2001">
        <ele>1313</ele>
        <time>2022-06-06T12:05:49Z</time>
      </trkpt>
      <trkpt lat="44.88466" lon="4.19999">
        <ele>1311</ele>
        <time>2022-06-06T12:05:50Z</time>
      </trkpt>
      <trkpt lat="44.88461" lon="4.19981">
        <ele>1313</ele>
        <time>2022-06-06T12:05:53Z</time>
      </trkpt>
      <trkpt lat="44.88453" lon="4.19933">
        <ele>1321</ele>
        <time>2022-06-06T12:05:59Z</time>
      </trkpt>
      <trkpt lat="44.88447" lon="4.19921">
        <ele>1322</ele>
        <time>2022-06-06T12:06:01Z</time>
      </trkpt>
      <trkpt lat="44.88441" lon="4.19912">
        <ele>1322</ele>
        <time>2022-06-06T12:06:02Z</time>
      </trkpt>
      <trkpt lat="44.88432" lon="4.19902">
        <ele>1322</ele>
        <time>2022-06-06T12:06:05Z</time>
      </trkpt>
      <trkpt lat="44.8842" lon="4.19893">
        <ele>1320</ele>
        <time>2022-06-06T12:06:07Z</time>
      </trkpt>
      <trkpt lat="44.88379" lon="4.19875">
        <ele>1316</ele>
        <time>2022-06-06T12:06:15Z</time>
      </trkpt>
      <trkpt lat="44.88366" lon="4.19866">
        <ele>1315</ele>
        <time>2022-06-06T12:06:17Z</time>
      </trkpt>
      <trkpt lat="44.88361" lon="4.19858">
        <ele>1315</ele>
        <time>2022-06-06T12:06:18Z</time>
      </trkpt>
      <trkpt lat="44.88359" lon="4.19848">
        <ele>1316</ele>
        <time>2022-06-06T12:06:20Z</time>
      </trkpt>
      <trkpt lat="44.8836" lon="4.19838">
        <ele>1318</ele>
        <time>2022-06-06T12:06:21Z</time>
      </trkpt>
      <trkpt lat="44.8837" lon="4.19799">
        <ele>1324</ele>
        <time>2022-06-06T12:06:26Z</time>
      </trkpt>
      <trkpt lat="44.88376" lon="4.19749">
        <ele>1331</ele>
        <time>2022-06-06T12:06:33Z</time>
      </trkpt>
      <trkpt lat="44.88376" lon="4.1971">
        <ele>1332</ele>
        <time>2022-06-06T12:06:38Z</time>
      </trkpt>
      <trkpt lat="44.8837" lon="4.19615">
        <ele>1338</ele>
        <time>2022-06-06T12:06:50Z</time>
      </trkpt>
      <trkpt lat="44.88368" lon="4.19606">
        <ele>1338</ele>
        <time>2022-06-06T12:06:51Z</time>
      </trkpt>
      <trkpt lat="44.88363" lon="4.19599">
        <ele>1337</ele>
        <time>2022-06-06T12:06:52Z</time>
      </trkpt>
      <trkpt lat="44.88321" lon="4.19559">
        <ele>1325</ele>
        <time>2022-06-06T12:07:01Z</time>
      </trkpt>
      <trkpt lat="44.88312" lon="4.19544">
        <ele>1324</ele>
        <time>2022-06-06T12:07:04Z</time>
      </trkpt>
      <trkpt lat="44.88309" lon="4.19527">
        <ele>1326</ele>
        <time>2022-06-06T12:07:06Z</time>
      </trkpt>
      <trkpt lat="44.88309" lon="4.19483">
        <ele>1336</ele>
        <time>2022-06-06T12:07:11Z</time>
      </trkpt>
      <trkpt lat="44.88308" lon="4.19467">
        <ele>1339</ele>
        <time>2022-06-06T12:07:13Z</time>
      </trkpt>
      <trkpt lat="44.88305" lon="4.19455">
        <ele>1340</ele>
        <time>2022-06-06T12:07:15Z</time>
      </trkpt>
      <trkpt lat="44.88288" lon="4.19413">
        <ele>1341</ele>
        <time>2022-06-06T12:07:21Z</time>
      </trkpt>
      <trkpt lat="44.88276" lon="4.19361">
        <ele>1345</ele>
        <time>2022-06-06T12:07:28Z</time>
      </trkpt>
      <trkpt lat="44.88265" lon="4.19321">
        <ele>1345</ele>
        <time>2022-06-06T12:07:33Z</time>
      </trkpt>
      <trkpt lat="44.88264" lon="4.1928">
        <ele>1350</ele>
        <time>2022-06-06T12:07:39Z</time>
      </trkpt>
      <trkpt lat="44.88258" lon="4.19235">
        <ele>1349</ele>
        <time>2022-06-06T12:07:44Z</time>
      </trkpt>
      <trkpt lat="44.88256" lon="4.19202">
        <ele>1346</ele>
        <time>2022-06-06T12:07:48Z</time>
      </trkpt>
      <trkpt lat="44.88259" lon="4.19171">
        <ele>1347</ele>
        <time>2022-06-06T12:07:52Z</time>
      </trkpt>
      <trkpt lat="44.88265" lon="4.19132">
        <ele>1360</ele>
        <time>2022-06-06T12:07:57Z</time>
      </trkpt>
      <trkpt lat="44.88262" lon="4.19116">
        <ele>1361</ele>
        <time>2022-06-06T12:08:00Z</time>
      </trkpt>
      <trkpt lat="44.88254" lon="4.19101">
        <ele>1359</ele>
        <time>2022-06-06T12:08:02Z</time>
      </trkpt>
      <trkpt lat="44.88232" lon="4.1908">
        <ele>1356</ele>
        <time>2022-06-06T12:08:07Z</time>
      </trkpt>
      <trkpt lat="44.88199" lon="4.19066">
        <ele>1348</ele>
        <time>2022-06-06T12:08:13Z</time>
      </trkpt>
      <trkpt lat="44.88171" lon="4.19045">
        <ele>1343</ele>
        <time>2022-06-06T12:08:18Z</time>
      </trkpt>
      <trkpt lat="44.88162" lon="4.19034">
        <ele>1342</ele>
        <time>2022-06-06T12:08:21Z</time>
      </trkpt>
      <trkpt lat="44.88145" lon="4.1899">
        <ele>1343</ele>
        <time>2022-06-06T12:08:27Z</time>
      </trkpt>
      <trkpt lat="44.88138" lon="4.18961">
        <ele>1343</ele>
        <time>2022-06-06T12:08:31Z</time>
      </trkpt>
      <trkpt lat="44.88136" lon="4.18932">
        <ele>1345</ele>
        <time>2022-06-06T12:08:34Z</time>
      </trkpt>
      <trkpt lat="44.88136" lon="4.18904">
        <ele>1347</ele>
        <time>2022-06-06T12:08:38Z</time>
      </trkpt>
      <trkpt lat="44.88142" lon="4.18834">
        <ele>1351</ele>
        <time>2022-06-06T12:08:47Z</time>
      </trkpt>
      <trkpt lat="44.88147" lon="4.18802">
        <ele>1354</ele>
        <time>2022-06-06T12:08:51Z</time>
      </trkpt>
      <trkpt lat="44.88177" lon="4.18716">
        <ele>1365</ele>
        <time>2022-06-06T12:09:03Z</time>
      </trkpt>
      <trkpt lat="44.8818" lon="4.18705">
        <ele>1367</ele>
        <time>2022-06-06T12:09:05Z</time>
      </trkpt>
      <trkpt lat="44.88174" lon="4.18687">
        <ele>1368</ele>
        <time>2022-06-06T12:09:07Z</time>
      </trkpt>
      <trkpt lat="44.88154" lon="4.18683">
        <ele>1367</ele>
        <time>2022-06-06T12:09:11Z</time>
      </trkpt>
      <trkpt lat="44.88119" lon="4.18696">
        <ele>1364</ele>
        <time>2022-06-06T12:09:17Z</time>
      </trkpt>
      <trkpt lat="44.88103" lon="4.18696">
        <ele>1363</ele>
        <time>2022-06-06T12:09:20Z</time>
      </trkpt>
      <trkpt lat="44.88059" lon="4.18678">
        <ele>1362</ele>
        <time>2022-06-06T12:09:28Z</time>
      </trkpt>
      <trkpt lat="44.88038" lon="4.18664">
        <ele>1361</ele>
        <time>2022-06-06T12:09:32Z</time>
      </trkpt>
      <trkpt lat="44.8803" lon="4.18651">
        <ele>1361</ele>
        <time>2022-06-06T12:09:34Z</time>
      </trkpt>
      <trkpt lat="44.88026" lon="4.18633">
        <ele>1362</ele>
        <time>2022-06-06T12:09:37Z</time>
      </trkpt>
      <trkpt lat="44.88039" lon="4.18548">
        <ele>1371</ele>
        <time>2022-06-06T12:09:48Z</time>
      </trkpt>
      <trkpt lat="44.88043" lon="4.18501">
        <ele>1375</ele>
        <time>2022-06-06T12:09:54Z</time>
      </trkpt>
      <trkpt lat="44.88043" lon="4.18456">
        <ele>1378</ele>
        <time>2022-06-06T12:09:59Z</time>
      </trkpt>
      <trkpt lat="44.88038" lon="4.18444">
        <ele>1378</ele>
        <time>2022-06-06T12:10:01Z</time>
      </trkpt>
      <trkpt lat="44.8803" lon="4.18431">
        <ele>1377</ele>
        <time>2022-06-06T12:10:03Z</time>
      </trkpt>
      <trkpt lat="44.87996" lon="4.18408">
        <ele>1372</ele>
        <time>2022-06-06T12:10:10Z</time>
      </trkpt>
      <trkpt lat="44.87974" lon="4.18397">
        <ele>1374</ele>
        <time>2022-06-06T12:10:14Z</time>
      </trkpt>
      <trkpt lat="44.87925" lon="4.18402">
        <ele>1374</ele>
        <time>2022-06-06T12:10:23Z</time>
      </trkpt>
      <trkpt lat="44.87917" lon="4.18407">
        <ele>1372</ele>
        <time>2022-06-06T12:10:24Z</time>
      </trkpt>
      <trkpt lat="44.87905" lon="4.18436">
        <ele>1369</ele>
        <time>2022-06-06T12:10:29Z</time>
      </trkpt>
      <trkpt lat="44.87894" lon="4.18452">
        <ele>1369</ele>
        <time>2022-06-06T12:10:31Z</time>
      </trkpt>
      <trkpt lat="44.87878" lon="4.18464">
        <ele>1370</ele>
        <time>2022-06-06T12:10:35Z</time>
      </trkpt>
      <trkpt lat="44.87828" lon="4.18476">
        <ele>1375</ele>
        <time>2022-06-06T12:10:44Z</time>
      </trkpt>
      <trkpt lat="44.87822" lon="4.1848">
        <ele>1376</ele>
        <time>2022-06-06T12:10:45Z</time>
      </trkpt>
      <trkpt lat="44.87819" lon="4.1849">
        <ele>1375</ele>
        <time>2022-06-06T12:10:46Z</time>
      </trkpt>
      <trkpt lat="44.87814" lon="4.18551">
        <ele>1378</ele>
        <time>2022-06-06T12:10:54Z</time>
      </trkpt>
      <trkpt lat="44.87814" lon="4.18569">
        <ele>1379</ele>
        <time>2022-06-06T12:10:56Z</time>
      </trkpt>
      <trkpt lat="44.87819" lon="4.18586">
        <ele>1379</ele>
        <time>2022-06-06T12:10:59Z</time>
      </trkpt>
      <trkpt lat="44.87817" lon="4.18593">
        <ele>1380</ele>
        <time>2022-06-06T12:11:00Z</time>
      </trkpt>
      <trkpt lat="44.87812" lon="4.18595">
        <ele>1382</ele>
        <time>2022-06-06T12:11:00Z</time>
      </trkpt>
      <trkpt lat="44.87807" lon="4.18593">
        <ele>1383</ele>
        <time>2022-06-06T12:11:01Z</time>
      </trkpt>
      <trkpt lat="44.878" lon="4.18581">
        <ele>1384</ele>
        <time>2022-06-06T12:11:03Z</time>
      </trkpt>
      <trkpt lat="44.87796" lon="4.18562">
        <ele>1383</ele>
        <time>2022-06-06T12:11:06Z</time>
      </trkpt>
      <trkpt lat="44.87786" lon="4.18445">
        <ele>1382</ele>
        <time>2022-06-06T12:11:21Z</time>
      </trkpt>
      <trkpt lat="44.87781" lon="4.18417">
        <ele>1383</ele>
        <time>2022-06-06T12:11:24Z</time>
      </trkpt>
      <trkpt lat="44.87661" lon="4.18193">
        <ele>1382</ele>
        <time>2022-06-06T12:12:00Z</time>
      </trkpt>
      <trkpt lat="44.87647" lon="4.18177">
        <ele>1381</ele>
        <time>2022-06-06T12:12:03Z</time>
      </trkpt>
      <trkpt lat="44.876" lon="4.18133">
        <ele>1377</ele>
        <time>2022-06-06T12:12:13Z</time>
      </trkpt>
      <trkpt lat="44.87475" lon="4.17997">
        <ele>1367</ele>
        <time>2022-06-06T12:12:41Z</time>
      </trkpt>
      <trkpt lat="44.87413" lon="4.17951">
        <ele>1365</ele>
        <time>2022-06-06T12:12:54Z</time>
      </trkpt>
      <trkpt lat="44.87385" lon="4.17933">
        <ele>1364</ele>
        <time>2022-06-06T12:12:59Z</time>
      </trkpt>
      <trkpt lat="44.87364" lon="4.17923">
        <ele>1362</ele>
        <time>2022-06-06T12:13:03Z</time>
      </trkpt>
      <trkpt lat="44.87388" lon="4.17953">
        <ele>1361</ele>
        <time>2022-06-06T12:13:09Z</time>
      </trkpt>
      <trkpt lat="44.87405" lon="4.17968">
        <ele>1361</ele>
        <time>2022-06-06T12:13:12Z</time>
      </trkpt>
      <trkpt lat="44.87421" lon="4.17985">
        <ele>1360</ele>
        <time>2022-06-06T12:13:16Z</time>
      </trkpt>
      <trkpt lat="44.87435" lon="4.18003">
        <ele>1360</ele>
        <time>2022-06-06T12:13:19Z</time>
      </trkpt>
      <trkpt lat="44.87453" lon="4.18032">
        <ele>1362</ele>
        <time>2022-06-06T12:13:24Z</time>
      </trkpt>
      <trkpt lat="44.87465" lon="4.1806">
        <ele>1362</ele>
        <time>2022-06-06T12:13:28Z</time>
      </trkpt>
      <trkpt lat="44.87457" lon="4.1806">
        <ele>1361</ele>
        <time>2022-06-06T12:13:30Z</time>
      </trkpt>
      <trkpt lat="44.87434" lon="4.18031">
        <ele>1359</ele>
        <time>2022-06-06T12:13:35Z</time>
      </trkpt>
      <trkpt lat="44.87255" lon="4.17899">
        <ele>1342</ele>
        <time>2022-06-06T12:14:11Z</time>
      </trkpt>
      <trkpt lat="44.87228" lon="4.17872">
        <ele>1338</ele>
        <time>2022-06-06T12:14:17Z</time>
      </trkpt>
      <trkpt lat="44.87211" lon="4.17844">
        <ele>1335</ele>
        <time>2022-06-06T12:14:22Z</time>
      </trkpt>
      <trkpt lat="44.87206" lon="4.17825">
        <ele>1335</ele>
        <time>2022-06-06T12:14:24Z</time>
      </trkpt>
      <trkpt lat="44.87205" lon="4.17809">
        <ele>1335</ele>
        <time>2022-06-06T12:14:26Z</time>
      </trkpt>
      <trkpt lat="44.87208" lon="4.17774">
        <ele>1337</ele>
        <time>2022-06-06T12:14:31Z</time>
      </trkpt>
      <trkpt lat="44.87208" lon="4.17749">
        <ele>1337</ele>
        <time>2022-06-06T12:14:34Z</time>
      </trkpt>
      <trkpt lat="44.87205" lon="4.17729">
        <ele>1336</ele>
        <time>2022-06-06T12:14:36Z</time>
      </trkpt>
      <trkpt lat="44.87192" lon="4.1769">
        <ele>1330</ele>
        <time>2022-06-06T12:14:42Z</time>
      </trkpt>
      <trkpt lat="44.8718" lon="4.17647">
        <ele>1325</ele>
        <time>2022-06-06T12:14:48Z</time>
      </trkpt>
      <trkpt lat="44.87165" lon="4.17568">
        <ele>1318</ele>
        <time>2022-06-06T12:14:58Z</time>
      </trkpt>
      <trkpt lat="44.87164" lon="4.17503">
        <ele>1315</ele>
        <time>2022-06-06T12:15:06Z</time>
      </trkpt>
      <trkpt lat="44.87162" lon="4.17497">
        <ele>1314</ele>
        <time>2022-06-06T12:15:07Z</time>
      </trkpt>
      <trkpt lat="44.87159" lon="4.17494">
        <ele>1313</ele>
        <time>2022-06-06T12:15:08Z</time>
      </trkpt>
      <trkpt lat="44.87155" lon="4.17494">
        <ele>1312</ele>
        <time>2022-06-06T12:15:08Z</time>
      </trkpt>
      <trkpt lat="44.87151" lon="4.17498">
        <ele>1311</ele>
        <time>2022-06-06T12:15:09Z</time>
      </trkpt>
      <trkpt lat="44.87148" lon="4.17506">
        <ele>1311</ele>
        <time>2022-06-06T12:15:10Z</time>
      </trkpt>
      <trkpt lat="44.87135" lon="4.1761">
        <ele>1313</ele>
        <time>2022-06-06T12:15:24Z</time>
      </trkpt>
      <trkpt lat="44.87134" lon="4.17639">
        <ele>1314</ele>
        <time>2022-06-06T12:15:27Z</time>
      </trkpt>
      <trkpt lat="44.87135" lon="4.17682">
        <ele>1316</ele>
        <time>2022-06-06T12:15:33Z</time>
      </trkpt>
      <trkpt lat="44.87139" lon="4.1771">
        <ele>1318</ele>
        <time>2022-06-06T12:15:36Z</time>
      </trkpt>
      <trkpt lat="44.87136" lon="4.1772">
        <ele>1318</ele>
        <time>2022-06-06T12:15:38Z</time>
      </trkpt>
      <trkpt lat="44.87119" lon="4.17764">
        <ele>1317</ele>
        <time>2022-06-06T12:15:44Z</time>
      </trkpt>
      <trkpt lat="44.87111" lon="4.17769">
        <ele>1315</ele>
        <time>2022-06-06T12:15:46Z</time>
      </trkpt>
      <trkpt lat="44.8702" lon="4.17783">
        <ele>1310</ele>
        <time>2022-06-06T12:16:02Z</time>
      </trkpt>
      <trkpt lat="44.86995" lon="4.17786">
        <ele>1311</ele>
        <time>2022-06-06T12:16:06Z</time>
      </trkpt>
      <trkpt lat="44.86987" lon="4.17785">
        <ele>1313</ele>
        <time>2022-06-06T12:16:08Z</time>
      </trkpt>
      <trkpt lat="44.8698" lon="4.17786">
        <ele>1314</ele>
        <time>2022-06-06T12:16:09Z</time>
      </trkpt>
      <trkpt lat="44.86946" lon="4.17804">
        <ele>1320</ele>
        <time>2022-06-06T12:16:15Z</time>
      </trkpt>
      <trkpt lat="44.8691" lon="4.17816">
        <ele>1323</ele>
        <time>2022-06-06T12:16:22Z</time>
      </trkpt>
      <trkpt lat="44.869" lon="4.17823">
        <ele>1322</ele>
        <time>2022-06-06T12:16:24Z</time>
      </trkpt>
      <trkpt lat="44.86891" lon="4.17835">
        <ele>1322</ele>
        <time>2022-06-06T12:16:26Z</time>
      </trkpt>
      <trkpt lat="44.86877" lon="4.17859">
        <ele>1324</ele>
        <time>2022-06-06T12:16:30Z</time>
      </trkpt>
      <trkpt lat="44.86872" lon="4.17864">
        <ele>1325</ele>
        <time>2022-06-06T12:16:31Z</time>
      </trkpt>
      <trkpt lat="44.86867" lon="4.17866">
        <ele>1325</ele>
        <time>2022-06-06T12:16:32Z</time>
      </trkpt>
      <trkpt lat="44.86831" lon="4.17862">
        <ele>1327</ele>
        <time>2022-06-06T12:16:39Z</time>
      </trkpt>
      <trkpt lat="44.86803" lon="4.17844">
        <ele>1328</ele>
        <time>2022-06-06T12:16:44Z</time>
      </trkpt>
      <trkpt lat="44.86795" lon="4.17842">
        <ele>1328</ele>
        <time>2022-06-06T12:16:45Z</time>
      </trkpt>
      <trkpt lat="44.86789" lon="4.17842">
        <ele>1329</ele>
        <time>2022-06-06T12:16:47Z</time>
      </trkpt>
      <trkpt lat="44.86779" lon="4.17845">
        <ele>1329</ele>
        <time>2022-06-06T12:16:48Z</time>
      </trkpt>
      <trkpt lat="44.86733" lon="4.17874">
        <ele>1336</ele>
        <time>2022-06-06T12:16:57Z</time>
      </trkpt>
      <trkpt lat="44.8671" lon="4.17885">
        <ele>1340</ele>
        <time>2022-06-06T12:17:02Z</time>
      </trkpt>
      <trkpt lat="44.86701" lon="4.17888">
        <ele>1342</ele>
        <time>2022-06-06T12:17:03Z</time>
      </trkpt>
      <trkpt lat="44.86693" lon="4.17886">
        <ele>1344</ele>
        <time>2022-06-06T12:17:05Z</time>
      </trkpt>
      <trkpt lat="44.86689" lon="4.17883">
        <ele>1345</ele>
        <time>2022-06-06T12:17:06Z</time>
      </trkpt>
      <trkpt lat="44.86684" lon="4.17868">
        <ele>1346</ele>
        <time>2022-06-06T12:17:08Z</time>
      </trkpt>
      <trkpt lat="44.86681" lon="4.17811">
        <ele>1350</ele>
        <time>2022-06-06T12:17:15Z</time>
      </trkpt>
      <trkpt lat="44.86683" lon="4.17783">
        <ele>1351</ele>
        <time>2022-06-06T12:17:18Z</time>
      </trkpt>
      <trkpt lat="44.86701" lon="4.17705">
        <ele>1352</ele>
        <time>2022-06-06T12:17:29Z</time>
      </trkpt>
      <trkpt lat="44.86705" lon="4.17679">
        <ele>1353</ele>
        <time>2022-06-06T12:17:32Z</time>
      </trkpt>
      <trkpt lat="44.86709" lon="4.17665">
        <ele>1353</ele>
        <time>2022-06-06T12:17:34Z</time>
      </trkpt>
      <trkpt lat="44.86719" lon="4.17644">
        <ele>1352</ele>
        <time>2022-06-06T12:17:37Z</time>
      </trkpt>
      <trkpt lat="44.86743" lon="4.17606">
        <ele>1351</ele>
        <time>2022-06-06T12:17:44Z</time>
      </trkpt>
      <trkpt lat="44.86747" lon="4.17594">
        <ele>1352</ele>
        <time>2022-06-06T12:17:45Z</time>
      </trkpt>
      <trkpt lat="44.86748" lon="4.17585">
        <ele>1352</ele>
        <time>2022-06-06T12:17:46Z</time>
      </trkpt>
      <trkpt lat="44.86747" lon="4.17575">
        <ele>1352</ele>
        <time>2022-06-06T12:17:48Z</time>
      </trkpt>
      <trkpt lat="44.86742" lon="4.17563">
        <ele>1353</ele>
        <time>2022-06-06T12:17:49Z</time>
      </trkpt>
      <trkpt lat="44.86729" lon="4.17545">
        <ele>1355</ele>
        <time>2022-06-06T12:17:53Z</time>
      </trkpt>
      <trkpt lat="44.86721" lon="4.17535">
        <ele>1356</ele>
        <time>2022-06-06T12:17:55Z</time>
      </trkpt>
      <trkpt lat="44.86719" lon="4.17529">
        <ele>1357</ele>
        <time>2022-06-06T12:17:55Z</time>
      </trkpt>
      <trkpt lat="44.8672" lon="4.17511">
        <ele>1356</ele>
        <time>2022-06-06T12:17:58Z</time>
      </trkpt>
      <trkpt lat="44.86725" lon="4.17495">
        <ele>1356</ele>
        <time>2022-06-06T12:18:00Z</time>
      </trkpt>
      <trkpt lat="44.86726" lon="4.17485">
        <ele>1356</ele>
        <time>2022-06-06T12:18:01Z</time>
      </trkpt>
      <trkpt lat="44.86725" lon="4.17475">
        <ele>1356</ele>
        <time>2022-06-06T12:18:02Z</time>
      </trkpt>
      <trkpt lat="44.86721" lon="4.17465">
        <ele>1357</ele>
        <time>2022-06-06T12:18:04Z</time>
      </trkpt>
      <trkpt lat="44.86712" lon="4.17454">
        <ele>1359</ele>
        <time>2022-06-06T12:18:06Z</time>
      </trkpt>
      <trkpt lat="44.86673" lon="4.17416">
        <ele>1366</ele>
        <time>2022-06-06T12:18:14Z</time>
      </trkpt>
      <trkpt lat="44.86669" lon="4.17409">
        <ele>1367</ele>
        <time>2022-06-06T12:18:16Z</time>
      </trkpt>
      <trkpt lat="44.86666" lon="4.174">
        <ele>1369</ele>
        <time>2022-06-06T12:18:17Z</time>
      </trkpt>
      <trkpt lat="44.86667" lon="4.17391">
        <ele>1369</ele>
        <time>2022-06-06T12:18:18Z</time>
      </trkpt>
      <trkpt lat="44.86671" lon="4.17385">
        <ele>1369</ele>
        <time>2022-06-06T12:18:19Z</time>
      </trkpt>
      <trkpt lat="44.86682" lon="4.17372">
        <ele>1369</ele>
        <time>2022-06-06T12:18:22Z</time>
      </trkpt>
      <trkpt lat="44.86713" lon="4.17342">
        <ele>1366</ele>
        <time>2022-06-06T12:18:28Z</time>
      </trkpt>
      <trkpt lat="44.86716" lon="4.17335">
        <ele>1366</ele>
        <time>2022-06-06T12:18:29Z</time>
      </trkpt>
      <trkpt lat="44.86718" lon="4.17326">
        <ele>1366</ele>
        <time>2022-06-06T12:18:31Z</time>
      </trkpt>
      <trkpt lat="44.86718" lon="4.17315">
        <ele>1366</ele>
        <time>2022-06-06T12:18:32Z</time>
      </trkpt>
      <trkpt lat="44.86717" lon="4.17302">
        <ele>1367</ele>
        <time>2022-06-06T12:18:34Z</time>
      </trkpt>
      <trkpt lat="44.8669" lon="4.17174">
        <ele>1373</ele>
        <time>2022-06-06T12:18:50Z</time>
      </trkpt>
      <trkpt lat="44.8668" lon="4.17142">
        <ele>1374</ele>
        <time>2022-06-06T12:18:55Z</time>
      </trkpt>
      <trkpt lat="44.86673" lon="4.17127">
        <ele>1374</ele>
        <time>2022-06-06T12:18:57Z</time>
      </trkpt>
      <trkpt lat="44.86636" lon="4.17074">
        <ele>1382</ele>
        <time>2022-06-06T12:19:06Z</time>
      </trkpt>
      <trkpt lat="44.86613" lon="4.17048">
        <ele>1387</ele>
        <time>2022-06-06T12:19:12Z</time>
      </trkpt>
      <trkpt lat="44.86607" lon="4.17039">
        <ele>1388</ele>
        <time>2022-06-06T12:19:13Z</time>
      </trkpt>
      <trkpt lat="44.86599" lon="4.17026">
        <ele>1389</ele>
        <time>2022-06-06T12:19:15Z</time>
      </trkpt>
      <trkpt lat="44.86595" lon="4.17012">
        <ele>1388</ele>
        <time>2022-06-06T12:19:17Z</time>
      </trkpt>
      <trkpt lat="44.86591" lon="4.16977">
        <ele>1386</ele>
        <time>2022-06-06T12:19:22Z</time>
      </trkpt>
      <trkpt lat="44.86588" lon="4.16967">
        <ele>1386</ele>
        <time>2022-06-06T12:19:23Z</time>
      </trkpt>
      <trkpt lat="44.86583" lon="4.16959">
        <ele>1386</ele>
        <time>2022-06-06T12:19:25Z</time>
      </trkpt>
      <trkpt lat="44.8655" lon="4.16936">
        <ele>1396</ele>
        <time>2022-06-06T12:19:31Z</time>
      </trkpt>
      <trkpt lat="44.86532" lon="4.16921">
        <ele>1400</ele>
        <time>2022-06-06T12:19:35Z</time>
      </trkpt>
      <trkpt lat="44.86519" lon="4.16908">
        <ele>1403</ele>
        <time>2022-06-06T12:19:38Z</time>
      </trkpt>
      <trkpt lat="44.86508" lon="4.16892">
        <ele>1405</ele>
        <time>2022-06-06T12:19:40Z</time>
      </trkpt>
      <trkpt lat="44.86498" lon="4.16871">
        <ele>1406</ele>
        <time>2022-06-06T12:19:44Z</time>
      </trkpt>
      <trkpt lat="44.86494" lon="4.16856">
        <ele>1408</ele>
        <time>2022-06-06T12:19:46Z</time>
      </trkpt>
      <trkpt lat="44.86493" lon="4.1684">
        <ele>1407</ele>
        <time>2022-06-06T12:19:48Z</time>
      </trkpt>
      <trkpt lat="44.86494" lon="4.16778">
        <ele>1407</ele>
        <time>2022-06-06T12:19:55Z</time>
      </trkpt>
      <trkpt lat="44.86498" lon="4.16724">
        <ele>1407</ele>
        <time>2022-06-06T12:20:02Z</time>
      </trkpt>
      <trkpt lat="44.86471" lon="4.16602">
        <ele>1417</ele>
        <time>2022-06-06T12:20:18Z</time>
      </trkpt>
      <trkpt lat="44.86461" lon="4.16561">
        <ele>1420</ele>
        <time>2022-06-06T12:20:24Z</time>
      </trkpt>
      <trkpt lat="44.86459" lon="4.16547">
        <ele>1420</ele>
        <time>2022-06-06T12:20:26Z</time>
      </trkpt>
      <trkpt lat="44.86458" lon="4.16492">
        <ele>1421</ele>
        <time>2022-06-06T12:20:33Z</time>
      </trkpt>
      <trkpt lat="44.8646" lon="4.16478">
        <ele>1422</ele>
        <time>2022-06-06T12:20:34Z</time>
      </trkpt>
      <trkpt lat="44.86465" lon="4.16467">
        <ele>1422</ele>
        <time>2022-06-06T12:20:36Z</time>
      </trkpt>
      <trkpt lat="44.86505" lon="4.16427">
        <ele>1416</ele>
        <time>2022-06-06T12:20:45Z</time>
      </trkpt>
      <trkpt lat="44.86533" lon="4.16387">
        <ele>1413</ele>
        <time>2022-06-06T12:20:52Z</time>
      </trkpt>
      <trkpt lat="44.86542" lon="4.16366">
        <ele>1412</ele>
        <time>2022-06-06T12:20:55Z</time>
      </trkpt>
      <trkpt lat="44.86547" lon="4.16348">
        <ele>1413</ele>
        <time>2022-06-06T12:20:57Z</time>
      </trkpt>
      <trkpt lat="44.8655" lon="4.16316">
        <ele>1412</ele>
        <time>2022-06-06T12:21:02Z</time>
      </trkpt>
      <trkpt lat="44.86548" lon="4.16301">
        <ele>1411</ele>
        <time>2022-06-06T12:21:03Z</time>
      </trkpt>
      <trkpt lat="44.86544" lon="4.16285">
        <ele>1410</ele>
        <time>2022-06-06T12:21:06Z</time>
      </trkpt>
      <trkpt lat="44.86519" lon="4.16227">
        <ele>1408</ele>
        <time>2022-06-06T12:21:14Z</time>
      </trkpt>
      <trkpt lat="44.86512" lon="4.16214">
        <ele>1407</ele>
        <time>2022-06-06T12:21:16Z</time>
      </trkpt>
      <trkpt lat="44.86488" lon="4.16175">
        <ele>1405</ele>
        <time>2022-06-06T12:21:23Z</time>
      </trkpt>
      <trkpt lat="44.8645" lon="4.16122">
        <ele>1400</ele>
        <time>2022-06-06T12:21:32Z</time>
      </trkpt>
      <trkpt lat="44.864" lon="4.16036">
        <ele>1393</ele>
        <time>2022-06-06T12:21:46Z</time>
      </trkpt>
      <trkpt lat="44.86331" lon="4.15948">
        <ele>1398</ele>
        <time>2022-06-06T12:22:03Z</time>
      </trkpt>
      <trkpt lat="44.86327" lon="4.15939">
        <ele>1400</ele>
        <time>2022-06-06T12:22:04Z</time>
      </trkpt>
      <trkpt lat="44.86325" lon="4.1593">
        <ele>1401</ele>
        <time>2022-06-06T12:22:05Z</time>
      </trkpt>
      <trkpt lat="44.86329" lon="4.1591">
        <ele>1400</ele>
        <time>2022-06-06T12:22:08Z</time>
      </trkpt>
      <trkpt lat="44.86339" lon="4.15891">
        <ele>1401</ele>
        <time>2022-06-06T12:22:11Z</time>
      </trkpt>
      <trkpt lat="44.86354" lon="4.15866">
        <ele>1401</ele>
        <time>2022-06-06T12:22:15Z</time>
      </trkpt>
      <trkpt lat="44.8638" lon="4.15836">
        <ele>1401</ele>
        <time>2022-06-06T12:22:21Z</time>
      </trkpt>
      <trkpt lat="44.86391" lon="4.15813">
        <ele>1401</ele>
        <time>2022-06-06T12:22:25Z</time>
      </trkpt>
      <trkpt lat="44.86444" lon="4.15656">
        <ele>1401</ele>
        <time>2022-06-06T12:22:46Z</time>
      </trkpt>
      <trkpt lat="44.8646" lon="4.1562">
        <ele>1396</ele>
        <time>2022-06-06T12:22:52Z</time>
      </trkpt>
      <trkpt lat="44.86461" lon="4.15611">
        <ele>1395</ele>
        <time>2022-06-06T12:22:53Z</time>
      </trkpt>
      <trkpt lat="44.86459" lon="4.15604">
        <ele>1395</ele>
        <time>2022-06-06T12:22:54Z</time>
      </trkpt>
      <trkpt lat="44.86452" lon="4.15593">
        <ele>1395</ele>
        <time>2022-06-06T12:22:56Z</time>
      </trkpt>
      <trkpt lat="44.86409" lon="4.15575">
        <ele>1393</ele>
        <time>2022-06-06T12:23:04Z</time>
      </trkpt>
      <trkpt lat="44.86399" lon="4.15571">
        <ele>1393</ele>
        <time>2022-06-06T12:23:06Z</time>
      </trkpt>
      <trkpt lat="44.86388" lon="4.1557">
        <ele>1393</ele>
        <time>2022-06-06T12:23:08Z</time>
      </trkpt>
      <trkpt lat="44.86372" lon="4.15572">
        <ele>1394</ele>
        <time>2022-06-06T12:23:10Z</time>
      </trkpt>
      <trkpt lat="44.86316" lon="4.15604">
        <ele>1404</ele>
        <time>2022-06-06T12:23:21Z</time>
      </trkpt>
      <trkpt lat="44.86298" lon="4.1561">
        <ele>1407</ele>
        <time>2022-06-06T12:23:24Z</time>
      </trkpt>
      <trkpt lat="44.86287" lon="4.15612">
        <ele>1408</ele>
        <time>2022-06-06T12:23:26Z</time>
      </trkpt>
      <trkpt lat="44.86281" lon="4.15611">
        <ele>1409</ele>
        <time>2022-06-06T12:23:28Z</time>
      </trkpt>
      <trkpt lat="44.86277" lon="4.15608">
        <ele>1409</ele>
        <time>2022-06-06T12:23:28Z</time>
      </trkpt>
      <trkpt lat="44.86273" lon="4.15602">
        <ele>1409</ele>
        <time>2022-06-06T12:23:29Z</time>
      </trkpt>
      <trkpt lat="44.86249" lon="4.15529">
        <ele>1399</ele>
        <time>2022-06-06T12:23:40Z</time>
      </trkpt>
      <trkpt lat="44.8624" lon="4.15514">
        <ele>1398</ele>
        <time>2022-06-06T12:23:42Z</time>
      </trkpt>
      <trkpt lat="44.86226" lon="4.15496">
        <ele>1397</ele>
        <time>2022-06-06T12:23:45Z</time>
      </trkpt>
      <trkpt lat="44.86219" lon="4.15493">
        <ele>1398</ele>
        <time>2022-06-06T12:23:47Z</time>
      </trkpt>
      <trkpt lat="44.86201" lon="4.15491">
        <ele>1401</ele>
        <time>2022-06-06T12:23:50Z</time>
      </trkpt>
      <trkpt lat="44.86194" lon="4.15488">
        <ele>1401</ele>
        <time>2022-06-06T12:23:51Z</time>
      </trkpt>
      <trkpt lat="44.86149" lon="4.15419">
        <ele>1395</ele>
        <time>2022-06-06T12:24:03Z</time>
      </trkpt>
      <trkpt lat="44.86125" lon="4.15378">
        <ele>1394</ele>
        <time>2022-06-06T12:24:10Z</time>
      </trkpt>
      <trkpt lat="44.86092" lon="4.15333">
        <ele>1391</ele>
        <time>2022-06-06T12:24:18Z</time>
      </trkpt>
      <trkpt lat="44.86077" lon="4.15308">
        <ele>1389</ele>
        <time>2022-06-06T12:24:22Z</time>
      </trkpt>
      <trkpt lat="44.85998" lon="4.15209">
        <ele>1385</ele>
        <time>2022-06-06T12:24:41Z</time>
      </trkpt>
      <trkpt lat="44.85958" lon="4.15155">
        <ele>1383</ele>
        <time>2022-06-06T12:24:51Z</time>
      </trkpt>
      <trkpt lat="44.85944" lon="4.1513">
        <ele>1383</ele>
        <time>2022-06-06T12:24:55Z</time>
      </trkpt>
      <trkpt lat="44.85908" lon="4.1506">
        <ele>1382</ele>
        <time>2022-06-06T12:25:06Z</time>
      </trkpt>
      <trkpt lat="44.85874" lon="4.14989">
        <ele>1383</ele>
        <time>2022-06-06T12:25:16Z</time>
      </trkpt>
      <trkpt lat="44.85846" lon="4.14922">
        <ele>1386</ele>
        <time>2022-06-06T12:25:26Z</time>
      </trkpt>
      <trkpt lat="44.85828" lon="4.1488">
        <ele>1389</ele>
        <time>2022-06-06T12:25:32Z</time>
      </trkpt>
      <trkpt lat="44.85803" lon="4.14826">
        <ele>1392</ele>
        <time>2022-06-06T12:25:41Z</time>
      </trkpt>
      <trkpt lat="44.85791" lon="4.14799">
        <ele>1392</ele>
        <time>2022-06-06T12:25:45Z</time>
      </trkpt>
      <trkpt lat="44.85772" lon="4.1475">
        <ele>1391</ele>
        <time>2022-06-06T12:25:52Z</time>
      </trkpt>
      <trkpt lat="44.85708" lon="4.14543">
        <ele>1388</ele>
        <time>2022-06-06T12:26:20Z</time>
      </trkpt>
      <trkpt lat="44.85695" lon="4.14511">
        <ele>1387</ele>
        <time>2022-06-06T12:26:25Z</time>
      </trkpt>
      <trkpt lat="44.85679" lon="4.14482">
        <ele>1386</ele>
        <time>2022-06-06T12:26:29Z</time>
      </trkpt>
      <trkpt lat="44.85671" lon="4.14477">
        <ele>1385</ele>
        <time>2022-06-06T12:26:31Z</time>
      </trkpt>
      <trkpt lat="44.85659" lon="4.14473">
        <ele>1385</ele>
        <time>2022-06-06T12:26:33Z</time>
      </trkpt>
      <trkpt lat="44.85584" lon="4.14466">
        <ele>1380</ele>
        <time>2022-06-06T12:26:46Z</time>
      </trkpt>
      <trkpt lat="44.85524" lon="4.14464">
        <ele>1374</ele>
        <time>2022-06-06T12:26:57Z</time>
      </trkpt>
      <trkpt lat="44.85512" lon="4.14459">
        <ele>1373</ele>
        <time>2022-06-06T12:26:59Z</time>
      </trkpt>
      <trkpt lat="44.85499" lon="4.14446">
        <ele>1372</ele>
        <time>2022-06-06T12:27:02Z</time>
      </trkpt>
      <trkpt lat="44.85484" lon="4.14425">
        <ele>1371</ele>
        <time>2022-06-06T12:27:06Z</time>
      </trkpt>
      <trkpt lat="44.85434" lon="4.14343">
        <ele>1368</ele>
        <time>2022-06-06T12:27:20Z</time>
      </trkpt>
      <trkpt lat="44.85411" lon="4.14313">
        <ele>1368</ele>
        <time>2022-06-06T12:27:25Z</time>
      </trkpt>
      <trkpt lat="44.85396" lon="4.14303">
        <ele>1367</ele>
        <time>2022-06-06T12:27:28Z</time>
      </trkpt>
      <trkpt lat="44.85366" lon="4.14289">
        <ele>1366</ele>
        <time>2022-06-06T12:27:34Z</time>
      </trkpt>
      <trkpt lat="44.85272" lon="4.14239">
        <ele>1358</ele>
        <time>2022-06-06T12:27:52Z</time>
      </trkpt>
      <trkpt lat="44.85257" lon="4.14227">
        <ele>1356</ele>
        <time>2022-06-06T12:27:55Z</time>
      </trkpt>
      <trkpt lat="44.85251" lon="4.14219">
        <ele>1355</ele>
        <time>2022-06-06T12:27:56Z</time>
      </trkpt>
      <trkpt lat="44.85238" lon="4.14191">
        <ele>1353</ele>
        <time>2022-06-06T12:28:00Z</time>
      </trkpt>
      <trkpt lat="44.8522" lon="4.14155">
        <ele>1352</ele>
        <time>2022-06-06T12:28:06Z</time>
      </trkpt>
      <trkpt lat="44.852" lon="4.14124">
        <ele>1350</ele>
        <time>2022-06-06T12:28:11Z</time>
      </trkpt>
      <trkpt lat="44.85159" lon="4.14064">
        <ele>1347</ele>
        <time>2022-06-06T12:28:22Z</time>
      </trkpt>
      <trkpt lat="44.85145" lon="4.14038">
        <ele>1347</ele>
        <time>2022-06-06T12:28:26Z</time>
      </trkpt>
      <trkpt lat="44.85133" lon="4.14027">
        <ele>1346</ele>
        <time>2022-06-06T12:28:28Z</time>
      </trkpt>
      <trkpt lat="44.85124" lon="4.14024">
        <ele>1345</ele>
        <time>2022-06-06T12:28:30Z</time>
      </trkpt>
      <trkpt lat="44.8511" lon="4.1402">
        <ele>1344</ele>
        <time>2022-06-06T12:28:33Z</time>
      </trkpt>
      <trkpt lat="44.851" lon="4.14017">
        <ele>1343</ele>
        <time>2022-06-06T12:28:34Z</time>
      </trkpt>
      <trkpt lat="44.84946" lon="4.13904">
        <ele>1328</ele>
        <time>2022-06-06T12:29:05Z</time>
      </trkpt>
      <trkpt lat="44.84923" lon="4.13891">
        <ele>1326</ele>
        <time>2022-06-06T12:29:10Z</time>
      </trkpt>
      <trkpt lat="44.84881" lon="4.13879">
        <ele>1322</ele>
        <time>2022-06-06T12:29:17Z</time>
      </trkpt>
      <trkpt lat="44.84872" lon="4.13874">
        <ele>1322</ele>
        <time>2022-06-06T12:29:19Z</time>
      </trkpt>
      <trkpt lat="44.8486" lon="4.13865">
        <ele>1321</ele>
        <time>2022-06-06T12:29:22Z</time>
      </trkpt>
      <trkpt lat="44.84822" lon="4.13828">
        <ele>1318</ele>
        <time>2022-06-06T12:29:30Z</time>
      </trkpt>
      <trkpt lat="44.848" lon="4.13806">
        <ele>1314</ele>
        <time>2022-06-06T12:29:35Z</time>
      </trkpt>
      <trkpt lat="44.84791" lon="4.13795">
        <ele>1313</ele>
        <time>2022-06-06T12:29:37Z</time>
      </trkpt>
      <trkpt lat="44.84763" lon="4.13742">
        <ele>1310</ele>
        <time>2022-06-06T12:29:45Z</time>
      </trkpt>
      <trkpt lat="44.84748" lon="4.13704">
        <ele>1307</ele>
        <time>2022-06-06T12:29:50Z</time>
      </trkpt>
      <trkpt lat="44.84732" lon="4.13655">
        <ele>1303</ele>
        <time>2022-06-06T12:29:57Z</time>
      </trkpt>
      <trkpt lat="44.84724" lon="4.13615">
        <ele>1302</ele>
        <time>2022-06-06T12:30:03Z</time>
      </trkpt>
      <trkpt lat="44.84712" lon="4.13591">
        <ele>1301</ele>
        <time>2022-06-06T12:30:06Z</time>
      </trkpt>
      <trkpt lat="44.84668" lon="4.13539">
        <ele>1295</ele>
        <time>2022-06-06T12:30:16Z</time>
      </trkpt>
      <trkpt lat="44.84533" lon="4.13408">
        <ele>1283</ele>
        <time>2022-06-06T12:30:46Z</time>
      </trkpt>
      <trkpt lat="44.84517" lon="4.13385">
        <ele>1281</ele>
        <time>2022-06-06T12:30:50Z</time>
      </trkpt>
      <trkpt lat="44.84511" lon="4.13374">
        <ele>1281</ele>
        <time>2022-06-06T12:30:51Z</time>
      </trkpt>
      <trkpt lat="44.84506" lon="4.13354">
        <ele>1280</ele>
        <time>2022-06-06T12:30:54Z</time>
      </trkpt>
      <trkpt lat="44.84486" lon="4.13265">
        <ele>1275</ele>
        <time>2022-06-06T12:31:06Z</time>
      </trkpt>
      <trkpt lat="44.84482" lon="4.1322">
        <ele>1272</ele>
        <time>2022-06-06T12:31:12Z</time>
      </trkpt>
      <trkpt lat="44.84482" lon="4.13175">
        <ele>1270</ele>
        <time>2022-06-06T12:31:17Z</time>
      </trkpt>
      <trkpt lat="44.84478" lon="4.13166">
        <ele>1269</ele>
        <time>2022-06-06T12:31:19Z</time>
      </trkpt>
      <trkpt lat="44.84419" lon="4.13054">
        <ele>1262</ele>
        <time>2022-06-06T12:31:36Z</time>
      </trkpt>
      <trkpt lat="44.84386" lon="4.12997">
        <ele>1260</ele>
        <time>2022-06-06T12:31:45Z</time>
      </trkpt>
      <trkpt lat="44.8438" lon="4.12983">
        <ele>1259</ele>
        <time>2022-06-06T12:31:48Z</time>
      </trkpt>
      <trkpt lat="44.84391" lon="4.12977">
        <ele>1259</ele>
        <time>2022-06-06T12:31:50Z</time>
      </trkpt>
      <trkpt lat="44.84482" lon="4.12968">
        <ele>1257</ele>
        <time>2022-06-06T12:32:06Z</time>
      </trkpt>
      <trkpt lat="44.84496" lon="4.12965">
        <ele>1257</ele>
        <time>2022-06-06T12:32:08Z</time>
      </trkpt>
      <trkpt lat="44.84508" lon="4.12957">
        <ele>1256</ele>
        <time>2022-06-06T12:32:11Z</time>
      </trkpt>
      <trkpt lat="44.84545" lon="4.12922">
        <ele>1254</ele>
        <time>2022-06-06T12:32:19Z</time>
      </trkpt>
      <trkpt lat="44.84574" lon="4.12886">
        <ele>1251</ele>
        <time>2022-06-06T12:32:26Z</time>
      </trkpt>
      <trkpt lat="44.8458" lon="4.12876">
        <ele>1251</ele>
        <time>2022-06-06T12:32:27Z</time>
      </trkpt>
      <trkpt lat="44.84595" lon="4.12837">
        <ele>1250</ele>
        <time>2022-06-06T12:32:33Z</time>
      </trkpt>
      <trkpt lat="44.84627" lon="4.12762">
        <ele>1249</ele>
        <time>2022-06-06T12:32:44Z</time>
      </trkpt>
      <trkpt lat="44.84633" lon="4.12744">
        <ele>1249</ele>
        <time>2022-06-06T12:32:46Z</time>
      </trkpt>
      <trkpt lat="44.84637" lon="4.12706">
        <ele>1246</ele>
        <time>2022-06-06T12:32:51Z</time>
      </trkpt>
      <trkpt lat="44.84638" lon="4.12608">
        <ele>1237</ele>
        <time>2022-06-06T12:33:04Z</time>
      </trkpt>
      <trkpt lat="44.84636" lon="4.12551">
        <ele>1233</ele>
        <time>2022-06-06T12:33:11Z</time>
      </trkpt>
      <trkpt lat="44.84638" lon="4.12531">
        <ele>1232</ele>
        <time>2022-06-06T12:33:13Z</time>
      </trkpt>
      <trkpt lat="44.84642" lon="4.12518">
        <ele>1232</ele>
        <time>2022-06-06T12:33:15Z</time>
      </trkpt>
      <trkpt lat="44.84659" lon="4.12485">
        <ele>1234</ele>
        <time>2022-06-06T12:33:20Z</time>
      </trkpt>
      <trkpt lat="44.84693" lon="4.12388">
        <ele>1230</ele>
        <time>2022-06-06T12:33:34Z</time>
      </trkpt>
      <trkpt lat="44.84683" lon="4.12378">
        <ele>1228</ele>
        <time>2022-06-06T12:33:36Z</time>
      </trkpt>
      <trkpt lat="44.84674" lon="4.12341">
        <ele>1224</ele>
        <time>2022-06-06T12:33:41Z</time>
      </trkpt>
      <trkpt lat="44.84663" lon="4.12317">
        <ele>1220</ele>
        <time>2022-06-06T12:33:45Z</time>
      </trkpt>
      <trkpt lat="44.84664" lon="4.12303">
        <ele>1218</ele>
        <time>2022-06-06T12:33:46Z</time>
      </trkpt>
      <trkpt lat="44.84708" lon="4.12231">
        <ele>1217</ele>
        <time>2022-06-06T12:33:58Z</time>
      </trkpt>
      <trkpt lat="44.84709" lon="4.12224">
        <ele>1217</ele>
        <time>2022-06-06T12:33:59Z</time>
      </trkpt>
      <trkpt lat="44.84708" lon="4.12216">
        <ele>1216</ele>
        <time>2022-06-06T12:34:00Z</time>
      </trkpt>
      <trkpt lat="44.84702" lon="4.12211">
        <ele>1214</ele>
        <time>2022-06-06T12:34:02Z</time>
      </trkpt>
      <trkpt lat="44.84696" lon="4.12212">
        <ele>1214</ele>
        <time>2022-06-06T12:34:03Z</time>
      </trkpt>
      <trkpt lat="44.84651" lon="4.12256">
        <ele>1212</ele>
        <time>2022-06-06T12:34:12Z</time>
      </trkpt>
      <trkpt lat="44.84638" lon="4.12258">
        <ele>1211</ele>
        <time>2022-06-06T12:34:15Z</time>
      </trkpt>
      <trkpt lat="44.84634" lon="4.12233">
        <ele>1208</ele>
        <time>2022-06-06T12:34:18Z</time>
      </trkpt>
      <trkpt lat="44.8468" lon="4.12164">
        <ele>1207</ele>
        <time>2022-06-06T12:34:30Z</time>
      </trkpt>
      <trkpt lat="44.8467" lon="4.12144">
        <ele>1204</ele>
        <time>2022-06-06T12:34:33Z</time>
      </trkpt>
      <trkpt lat="44.84638" lon="4.12174">
        <ele>1204</ele>
        <time>2022-06-06T12:34:40Z</time>
      </trkpt>
      <trkpt lat="44.84594" lon="4.12231">
        <ele>1204</ele>
        <time>2022-06-06T12:34:50Z</time>
      </trkpt>
      <trkpt lat="44.84583" lon="4.12247">
        <ele>1205</ele>
        <time>2022-06-06T12:34:53Z</time>
      </trkpt>
      <trkpt lat="44.84574" lon="4.12264">
        <ele>1202</ele>
        <time>2022-06-06T12:34:56Z</time>
      </trkpt>
      <trkpt lat="44.84568" lon="4.12286">
        <ele>1201</ele>
        <time>2022-06-06T12:34:59Z</time>
      </trkpt>
      <trkpt lat="44.84564" lon="4.12309">
        <ele>1201</ele>
        <time>2022-06-06T12:35:02Z</time>
      </trkpt>
      <trkpt lat="44.84563" lon="4.12335">
        <ele>1202</ele>
        <time>2022-06-06T12:35:05Z</time>
      </trkpt>
      <trkpt lat="44.84563" lon="4.12391">
        <ele>1202</ele>
        <time>2022-06-06T12:35:12Z</time>
      </trkpt>
      <trkpt lat="44.84559" lon="4.1245">
        <ele>1203</ele>
        <time>2022-06-06T12:35:20Z</time>
      </trkpt>
      <trkpt lat="44.84551" lon="4.12506">
        <ele>1204</ele>
        <time>2022-06-06T12:35:27Z</time>
      </trkpt>
      <trkpt lat="44.84541" lon="4.12554">
        <ele>1205</ele>
        <time>2022-06-06T12:35:33Z</time>
      </trkpt>
      <trkpt lat="44.84536" lon="4.12574">
        <ele>1205</ele>
        <time>2022-06-06T12:35:36Z</time>
      </trkpt>
      <trkpt lat="44.8453" lon="4.12591">
        <ele>1205</ele>
        <time>2022-06-06T12:35:38Z</time>
      </trkpt>
      <trkpt lat="44.84521" lon="4.12606">
        <ele>1204</ele>
        <time>2022-06-06T12:35:41Z</time>
      </trkpt>
      <trkpt lat="44.84498" lon="4.12627">
        <ele>1202</ele>
        <time>2022-06-06T12:35:46Z</time>
      </trkpt>
      <trkpt lat="44.84485" lon="4.12635">
        <ele>1203</ele>
        <time>2022-06-06T12:35:48Z</time>
      </trkpt>
      <trkpt lat="44.84472" lon="4.12639">
        <ele>1205</ele>
        <time>2022-06-06T12:35:51Z</time>
      </trkpt>
      <trkpt lat="44.84458" lon="4.1264">
        <ele>1205</ele>
        <time>2022-06-06T12:35:53Z</time>
      </trkpt>
      <trkpt lat="44.84444" lon="4.12636">
        <ele>1205</ele>
        <time>2022-06-06T12:35:56Z</time>
      </trkpt>
      <trkpt lat="44.84432" lon="4.12627">
        <ele>1204</ele>
        <time>2022-06-06T12:35:58Z</time>
      </trkpt>
      <trkpt lat="44.84422" lon="4.12611">
        <ele>1202</ele>
        <time>2022-06-06T12:36:01Z</time>
      </trkpt>
      <trkpt lat="44.84371" lon="4.125">
        <ele>1196</ele>
        <time>2022-06-06T12:36:17Z</time>
      </trkpt>
      <trkpt lat="44.84332" lon="4.12437">
        <ele>1194</ele>
        <time>2022-06-06T12:36:28Z</time>
      </trkpt>
      <trkpt lat="44.84318" lon="4.12419">
        <ele>1192</ele>
        <time>2022-06-06T12:36:31Z</time>
      </trkpt>
      <trkpt lat="44.84302" lon="4.12405">
        <ele>1193</ele>
        <time>2022-06-06T12:36:35Z</time>
      </trkpt>
      <trkpt lat="44.84285" lon="4.12396">
        <ele>1194</ele>
        <time>2022-06-06T12:36:38Z</time>
      </trkpt>
      <trkpt lat="44.84254" lon="4.12385">
        <ele>1197</ele>
        <time>2022-06-06T12:36:44Z</time>
      </trkpt>
      <trkpt lat="44.84243" lon="4.12378">
        <ele>1199</ele>
        <time>2022-06-06T12:36:46Z</time>
      </trkpt>
      <trkpt lat="44.84234" lon="4.12369">
        <ele>1200</ele>
        <time>2022-06-06T12:36:48Z</time>
      </trkpt>
      <trkpt lat="44.84228" lon="4.12356">
        <ele>1201</ele>
        <time>2022-06-06T12:36:50Z</time>
      </trkpt>
      <trkpt lat="44.84225" lon="4.12337">
        <ele>1200</ele>
        <time>2022-06-06T12:36:52Z</time>
      </trkpt>
      <trkpt lat="44.84226" lon="4.12315">
        <ele>1200</ele>
        <time>2022-06-06T12:36:55Z</time>
      </trkpt>
      <trkpt lat="44.8424" lon="4.12211">
        <ele>1197</ele>
        <time>2022-06-06T12:37:08Z</time>
      </trkpt>
      <trkpt lat="44.84242" lon="4.12184">
        <ele>1196</ele>
        <time>2022-06-06T12:37:12Z</time>
      </trkpt>
      <trkpt lat="44.84242" lon="4.12131">
        <ele>1195</ele>
        <time>2022-06-06T12:37:18Z</time>
      </trkpt>
      <trkpt lat="44.84239" lon="4.1208">
        <ele>1193</ele>
        <time>2022-06-06T12:37:25Z</time>
      </trkpt>
      <trkpt lat="44.84234" lon="4.12056">
        <ele>1193</ele>
        <time>2022-06-06T12:37:28Z</time>
      </trkpt>
      <trkpt lat="44.84214" lon="4.11986">
        <ele>1197</ele>
        <time>2022-06-06T12:37:37Z</time>
      </trkpt>
      <trkpt lat="44.84211" lon="4.11963">
        <ele>1198</ele>
        <time>2022-06-06T12:37:40Z</time>
      </trkpt>
      <trkpt lat="44.8421" lon="4.1194">
        <ele>1199</ele>
        <time>2022-06-06T12:37:43Z</time>
      </trkpt>
      <trkpt lat="44.84211" lon="4.11917">
        <ele>1199</ele>
        <time>2022-06-06T12:37:46Z</time>
      </trkpt>
      <trkpt lat="44.84215" lon="4.11895">
        <ele>1199</ele>
        <time>2022-06-06T12:37:49Z</time>
      </trkpt>
      <trkpt lat="44.84238" lon="4.11862">
        <ele>1196</ele>
        <time>2022-06-06T12:37:55Z</time>
      </trkpt>
      <trkpt lat="44.843" lon="4.11805">
        <ele>1187</ele>
        <time>2022-06-06T12:38:08Z</time>
      </trkpt>
      <trkpt lat="44.84328" lon="4.11769">
        <ele>1186</ele>
        <time>2022-06-06T12:38:15Z</time>
      </trkpt>
      <trkpt lat="44.8434" lon="4.11748">
        <ele>1185</ele>
        <time>2022-06-06T12:38:18Z</time>
      </trkpt>
      <trkpt lat="44.8436" lon="4.11707">
        <ele>1181</ele>
        <time>2022-06-06T12:38:25Z</time>
      </trkpt>
      <trkpt lat="44.84366" lon="4.11689">
        <ele>1181</ele>
        <time>2022-06-06T12:38:27Z</time>
      </trkpt>
      <trkpt lat="44.84369" lon="4.11671">
        <ele>1181</ele>
        <time>2022-06-06T12:38:29Z</time>
      </trkpt>
      <trkpt lat="44.84367" lon="4.11654">
        <ele>1180</ele>
        <time>2022-06-06T12:38:32Z</time>
      </trkpt>
      <trkpt lat="44.84362" lon="4.11639">
        <ele>1180</ele>
        <time>2022-06-06T12:38:34Z</time>
      </trkpt>
      <trkpt lat="44.84352" lon="4.11628">
        <ele>1179</ele>
        <time>2022-06-06T12:38:36Z</time>
      </trkpt>
      <trkpt lat="44.8434" lon="4.11621">
        <ele>1180</ele>
        <time>2022-06-06T12:38:38Z</time>
      </trkpt>
      <trkpt lat="44.84326" lon="4.11619">
        <ele>1180</ele>
        <time>2022-06-06T12:38:41Z</time>
      </trkpt>
      <trkpt lat="44.84293" lon="4.11623">
        <ele>1184</ele>
        <time>2022-06-06T12:38:47Z</time>
      </trkpt>
      <trkpt lat="44.84277" lon="4.11623">
        <ele>1185</ele>
        <time>2022-06-06T12:38:49Z</time>
      </trkpt>
      <trkpt lat="44.84262" lon="4.11619">
        <ele>1185</ele>
        <time>2022-06-06T12:38:52Z</time>
      </trkpt>
      <trkpt lat="44.84248" lon="4.11613">
        <ele>1186</ele>
        <time>2022-06-06T12:38:55Z</time>
      </trkpt>
      <trkpt lat="44.84222" lon="4.11595">
        <ele>1189</ele>
        <time>2022-06-06T12:39:00Z</time>
      </trkpt>
      <trkpt lat="44.84211" lon="4.11585">
        <ele>1191</ele>
        <time>2022-06-06T12:39:02Z</time>
      </trkpt>
      <trkpt lat="44.84202" lon="4.11573">
        <ele>1192</ele>
        <time>2022-06-06T12:39:04Z</time>
      </trkpt>
      <trkpt lat="44.84196" lon="4.1156">
        <ele>1192</ele>
        <time>2022-06-06T12:39:06Z</time>
      </trkpt>
      <trkpt lat="44.84194" lon="4.11544">
        <ele>1192</ele>
        <time>2022-06-06T12:39:08Z</time>
      </trkpt>
      <trkpt lat="44.84208" lon="4.11475">
        <ele>1183</ele>
        <time>2022-06-06T12:39:18Z</time>
      </trkpt>
      <trkpt lat="44.84212" lon="4.11443">
        <ele>1181</ele>
        <time>2022-06-06T12:39:22Z</time>
      </trkpt>
      <trkpt lat="44.84213" lon="4.11423">
        <ele>1181</ele>
        <time>2022-06-06T12:39:24Z</time>
      </trkpt>
      <trkpt lat="44.8421" lon="4.11396">
        <ele>1179</ele>
        <time>2022-06-06T12:39:28Z</time>
      </trkpt>
      <trkpt lat="44.84203" lon="4.11377">
        <ele>1178</ele>
        <time>2022-06-06T12:39:30Z</time>
      </trkpt>
      <trkpt lat="44.84193" lon="4.1136">
        <ele>1179</ele>
        <time>2022-06-06T12:39:33Z</time>
      </trkpt>
      <trkpt lat="44.84162" lon="4.11325">
        <ele>1182</ele>
        <time>2022-06-06T12:39:40Z</time>
      </trkpt>
      <trkpt lat="44.8412" lon="4.11284">
        <ele>1186</ele>
        <time>2022-06-06T12:39:49Z</time>
      </trkpt>
      <trkpt lat="44.84116" lon="4.11278">
        <ele>1187</ele>
        <time>2022-06-06T12:39:50Z</time>
      </trkpt>
      <trkpt lat="44.84113" lon="4.11268">
        <ele>1186</ele>
        <time>2022-06-06T12:39:52Z</time>
      </trkpt>
      <trkpt lat="44.84113" lon="4.1125">
        <ele>1185</ele>
        <time>2022-06-06T12:39:54Z</time>
      </trkpt>
      <trkpt lat="44.84105" lon="4.11241">
        <ele>1186</ele>
        <time>2022-06-06T12:39:56Z</time>
      </trkpt>
      <trkpt lat="44.84116" lon="4.11208">
        <ele>1185</ele>
        <time>2022-06-06T12:40:00Z</time>
      </trkpt>
      <trkpt lat="44.84109" lon="4.11209">
        <ele>1186</ele>
        <time>2022-06-06T12:40:02Z</time>
      </trkpt>
      <trkpt lat="44.84099" lon="4.11227">
        <ele>1188</ele>
        <time>2022-06-06T12:40:04Z</time>
      </trkpt>
      <trkpt lat="44.84087" lon="4.11231">
        <ele>1190</ele>
        <time>2022-06-06T12:40:07Z</time>
      </trkpt>
      <trkpt lat="44.8408" lon="4.11214">
        <ele>1193</ele>
        <time>2022-06-06T12:40:09Z</time>
      </trkpt>
      <trkpt lat="44.84067" lon="4.11149">
        <ele>1196</ele>
        <time>2022-06-06T12:40:18Z</time>
      </trkpt>
      <trkpt lat="44.84056" lon="4.11114">
        <ele>1197</ele>
        <time>2022-06-06T12:40:22Z</time>
      </trkpt>
      <trkpt lat="44.84044" lon="4.11085">
        <ele>1198</ele>
        <time>2022-06-06T12:40:27Z</time>
      </trkpt>
      <trkpt lat="44.84056" lon="4.11114">
        <ele>1197</ele>
        <time>2022-06-06T12:40:31Z</time>
      </trkpt>
      <trkpt lat="44.84067" lon="4.11149">
        <ele>1196</ele>
        <time>2022-06-06T12:40:36Z</time>
      </trkpt>
      <trkpt lat="44.8408" lon="4.11214">
        <ele>1193</ele>
        <time>2022-06-06T12:40:44Z</time>
      </trkpt>
      <trkpt lat="44.84087" lon="4.11231">
        <ele>1190</ele>
        <time>2022-06-06T12:40:47Z</time>
      </trkpt>
      <trkpt lat="44.84099" lon="4.11227">
        <ele>1188</ele>
        <time>2022-06-06T12:40:49Z</time>
      </trkpt>
      <trkpt lat="44.84109" lon="4.11209">
        <ele>1186</ele>
        <time>2022-06-06T12:40:52Z</time>
      </trkpt>
      <trkpt lat="44.84116" lon="4.11208">
        <ele>1185</ele>
        <time>2022-06-06T12:40:53Z</time>
      </trkpt>
      <trkpt lat="44.84105" lon="4.11241">
        <ele>1186</ele>
        <time>2022-06-06T12:40:58Z</time>
      </trkpt>
      <trkpt lat="44.84113" lon="4.1125">
        <ele>1185</ele>
        <time>2022-06-06T12:41:00Z</time>
      </trkpt>
      <trkpt lat="44.84115" lon="4.11242">
        <ele>1184</ele>
        <time>2022-06-06T12:41:01Z</time>
      </trkpt>
      <trkpt lat="44.84139" lon="4.11194">
        <ele>1180</ele>
        <time>2022-06-06T12:41:08Z</time>
      </trkpt>
      <trkpt lat="44.84144" lon="4.11182">
        <ele>1179</ele>
        <time>2022-06-06T12:41:10Z</time>
      </trkpt>
      <trkpt lat="44.84148" lon="4.11162">
        <ele>1178</ele>
        <time>2022-06-06T12:41:12Z</time>
      </trkpt>
      <trkpt lat="44.84147" lon="4.11152">
        <ele>1178</ele>
        <time>2022-06-06T12:41:14Z</time>
      </trkpt>
      <trkpt lat="44.84142" lon="4.1113">
        <ele>1177</ele>
        <time>2022-06-06T12:41:17Z</time>
      </trkpt>
      <trkpt lat="44.84114" lon="4.11065">
        <ele>1180</ele>
        <time>2022-06-06T12:41:26Z</time>
      </trkpt>
      <trkpt lat="44.84106" lon="4.11039">
        <ele>1181</ele>
        <time>2022-06-06T12:41:30Z</time>
      </trkpt>
      <trkpt lat="44.84084" lon="4.10922">
        <ele>1180</ele>
        <time>2022-06-06T12:41:45Z</time>
      </trkpt>
      <trkpt lat="44.84082" lon="4.10885">
        <ele>1179</ele>
        <time>2022-06-06T12:41:50Z</time>
      </trkpt>
      <trkpt lat="44.84085" lon="4.10858">
        <ele>1177</ele>
        <time>2022-06-06T12:41:53Z</time>
      </trkpt>
      <trkpt lat="44.84113" lon="4.10721">
        <ele>1173</ele>
        <time>2022-06-06T12:42:11Z</time>
      </trkpt>
      <trkpt lat="44.84116" lon="4.10698">
        <ele>1173</ele>
        <time>2022-06-06T12:42:14Z</time>
      </trkpt>
      <trkpt lat="44.84117" lon="4.10682">
        <ele>1173</ele>
        <time>2022-06-06T12:42:16Z</time>
      </trkpt>
      <trkpt lat="44.84113" lon="4.1062">
        <ele>1177</ele>
        <time>2022-06-06T12:42:24Z</time>
      </trkpt>
      <trkpt lat="44.84116" lon="4.10602">
        <ele>1176</ele>
        <time>2022-06-06T12:42:26Z</time>
      </trkpt>
      <trkpt lat="44.8412" lon="4.10595">
        <ele>1175</ele>
        <time>2022-06-06T12:42:27Z</time>
      </trkpt>
      <trkpt lat="44.84129" lon="4.10581">
        <ele>1174</ele>
        <time>2022-06-06T12:42:30Z</time>
      </trkpt>
      <trkpt lat="44.84173" lon="4.10532">
        <ele>1169</ele>
        <time>2022-06-06T12:42:40Z</time>
      </trkpt>
      <trkpt lat="44.84189" lon="4.10507">
        <ele>1169</ele>
        <time>2022-06-06T12:42:44Z</time>
      </trkpt>
      <trkpt lat="44.84207" lon="4.10468">
        <ele>1167</ele>
        <time>2022-06-06T12:42:50Z</time>
      </trkpt>
      <trkpt lat="44.84218" lon="4.10426">
        <ele>1166</ele>
        <time>2022-06-06T12:42:56Z</time>
      </trkpt>
      <trkpt lat="44.8422" lon="4.10405">
        <ele>1166</ele>
        <time>2022-06-06T12:42:58Z</time>
      </trkpt>
      <trkpt lat="44.84221" lon="4.10372">
        <ele>1165</ele>
        <time>2022-06-06T12:43:02Z</time>
      </trkpt>
      <trkpt lat="44.8421" lon="4.10275">
        <ele>1166</ele>
        <time>2022-06-06T12:43:15Z</time>
      </trkpt>
      <trkpt lat="44.84197" lon="4.10102">
        <ele>1161</ele>
        <time>2022-06-06T12:43:37Z</time>
      </trkpt>
      <trkpt lat="44.84191" lon="4.10081">
        <ele>1161</ele>
        <time>2022-06-06T12:43:40Z</time>
      </trkpt>
      <trkpt lat="44.84177" lon="4.10053">
        <ele>1158</ele>
        <time>2022-06-06T12:43:44Z</time>
      </trkpt>
      <trkpt lat="44.84162" lon="4.10037">
        <ele>1158</ele>
        <time>2022-06-06T12:43:47Z</time>
      </trkpt>
      <trkpt lat="44.84146" lon="4.10027">
        <ele>1158</ele>
        <time>2022-06-06T12:43:50Z</time>
      </trkpt>
      <trkpt lat="44.84077" lon="4.10004">
        <ele>1162</ele>
        <time>2022-06-06T12:44:03Z</time>
      </trkpt>
      <trkpt lat="44.84053" lon="4.09998">
        <ele>1161</ele>
        <time>2022-06-06T12:44:07Z</time>
      </trkpt>
      <trkpt lat="44.84045" lon="4.09999">
        <ele>1161</ele>
        <time>2022-06-06T12:44:09Z</time>
      </trkpt>
      <trkpt lat="44.84028" lon="4.10003">
        <ele>1162</ele>
        <time>2022-06-06T12:44:12Z</time>
      </trkpt>
      <trkpt lat="44.83992" lon="4.10018">
        <ele>1167</ele>
        <time>2022-06-06T12:44:19Z</time>
      </trkpt>
      <trkpt lat="44.83984" lon="4.1002">
        <ele>1169</ele>
        <time>2022-06-06T12:44:20Z</time>
      </trkpt>
      <trkpt lat="44.83963" lon="4.10017">
        <ele>1171</ele>
        <time>2022-06-06T12:44:24Z</time>
      </trkpt>
      <trkpt lat="44.83945" lon="4.10009">
        <ele>1171</ele>
        <time>2022-06-06T12:44:27Z</time>
      </trkpt>
      <trkpt lat="44.8392" lon="4.0999">
        <ele>1170</ele>
        <time>2022-06-06T12:44:32Z</time>
      </trkpt>
      <trkpt lat="44.83885" lon="4.09954">
        <ele>1164</ele>
        <time>2022-06-06T12:44:40Z</time>
      </trkpt>
      <trkpt lat="44.83777" lon="4.09875">
        <ele>1155</ele>
        <time>2022-06-06T12:45:01Z</time>
      </trkpt>
      <trkpt lat="44.83739" lon="4.09854">
        <ele>1158</ele>
        <time>2022-06-06T12:45:09Z</time>
      </trkpt>
      <trkpt lat="44.83726" lon="4.09841">
        <ele>1159</ele>
        <time>2022-06-06T12:45:12Z</time>
      </trkpt>
      <trkpt lat="44.83719" lon="4.09828">
        <ele>1159</ele>
        <time>2022-06-06T12:45:14Z</time>
      </trkpt>
      <trkpt lat="44.83713" lon="4.09804">
        <ele>1159</ele>
        <time>2022-06-06T12:45:17Z</time>
      </trkpt>
      <trkpt lat="44.83705" lon="4.09725">
        <ele>1155</ele>
        <time>2022-06-06T12:45:27Z</time>
      </trkpt>
      <trkpt lat="44.83706" lon="4.09688">
        <ele>1154</ele>
        <time>2022-06-06T12:45:32Z</time>
      </trkpt>
      <trkpt lat="44.8372" lon="4.09614">
        <ele>1144</ele>
        <time>2022-06-06T12:45:41Z</time>
      </trkpt>
      <trkpt lat="44.83721" lon="4.09593">
        <ele>1143</ele>
        <time>2022-06-06T12:45:44Z</time>
      </trkpt>
      <trkpt lat="44.8372" lon="4.09583">
        <ele>1143</ele>
        <time>2022-06-06T12:45:45Z</time>
      </trkpt>
      <trkpt lat="44.83713" lon="4.09556">
        <ele>1142</ele>
        <time>2022-06-06T12:45:49Z</time>
      </trkpt>
      <trkpt lat="44.83691" lon="4.09492">
        <ele>1137</ele>
        <time>2022-06-06T12:45:58Z</time>
      </trkpt>
      <trkpt lat="44.83684" lon="4.09479">
        <ele>1135</ele>
        <time>2022-06-06T12:46:00Z</time>
      </trkpt>
      <trkpt lat="44.83671" lon="4.0947">
        <ele>1135</ele>
        <time>2022-06-06T12:46:02Z</time>
      </trkpt>
      <trkpt lat="44.83666" lon="4.09469">
        <ele>1135</ele>
        <time>2022-06-06T12:46:03Z</time>
      </trkpt>
      <trkpt lat="44.83659" lon="4.09469">
        <ele>1134</ele>
        <time>2022-06-06T12:46:05Z</time>
      </trkpt>
      <trkpt lat="44.83647" lon="4.09473">
        <ele>1134</ele>
        <time>2022-06-06T12:46:07Z</time>
      </trkpt>
      <trkpt lat="44.83553" lon="4.09517">
        <ele>1142</ele>
        <time>2022-06-06T12:46:24Z</time>
      </trkpt>
      <trkpt lat="44.83539" lon="4.09522">
        <ele>1144</ele>
        <time>2022-06-06T12:46:27Z</time>
      </trkpt>
      <trkpt lat="44.83525" lon="4.09523">
        <ele>1144</ele>
        <time>2022-06-06T12:46:29Z</time>
      </trkpt>
      <trkpt lat="44.83511" lon="4.09519">
        <ele>1143</ele>
        <time>2022-06-06T12:46:32Z</time>
      </trkpt>
      <trkpt lat="44.83497" lon="4.09507">
        <ele>1139</ele>
        <time>2022-06-06T12:46:35Z</time>
      </trkpt>
      <trkpt lat="44.83454" lon="4.09448">
        <ele>1127</ele>
        <time>2022-06-06T12:46:46Z</time>
      </trkpt>
      <trkpt lat="44.83409" lon="4.09406">
        <ele>1122</ele>
        <time>2022-06-06T12:46:55Z</time>
      </trkpt>
      <trkpt lat="44.83398" lon="4.0939">
        <ele>1119</ele>
        <time>2022-06-06T12:46:58Z</time>
      </trkpt>
      <trkpt lat="44.83372" lon="4.09334">
        <ele>1110</ele>
        <time>2022-06-06T12:47:06Z</time>
      </trkpt>
      <trkpt lat="44.83362" lon="4.09321">
        <ele>1107</ele>
        <time>2022-06-06T12:47:09Z</time>
      </trkpt>
      <trkpt lat="44.83352" lon="4.09316">
        <ele>1107</ele>
        <time>2022-06-06T12:47:11Z</time>
      </trkpt>
      <trkpt lat="44.8334" lon="4.09317">
        <ele>1107</ele>
        <time>2022-06-06T12:47:13Z</time>
      </trkpt>
      <trkpt lat="44.8333" lon="4.09324">
        <ele>1109</ele>
        <time>2022-06-06T12:47:15Z</time>
      </trkpt>
      <trkpt lat="44.83321" lon="4.09338">
        <ele>1111</ele>
        <time>2022-06-06T12:47:17Z</time>
      </trkpt>
      <trkpt lat="44.83309" lon="4.09374">
        <ele>1117</ele>
        <time>2022-06-06T12:47:22Z</time>
      </trkpt>
      <trkpt lat="44.83303" lon="4.0939">
        <ele>1120</ele>
        <time>2022-06-06T12:47:25Z</time>
      </trkpt>
      <trkpt lat="44.83294" lon="4.09401">
        <ele>1122</ele>
        <time>2022-06-06T12:47:27Z</time>
      </trkpt>
      <trkpt lat="44.83283" lon="4.09407">
        <ele>1123</ele>
        <time>2022-06-06T12:47:29Z</time>
      </trkpt>
      <trkpt lat="44.83272" lon="4.09409">
        <ele>1124</ele>
        <time>2022-06-06T12:47:31Z</time>
      </trkpt>
      <trkpt lat="44.83262" lon="4.09405">
        <ele>1122</ele>
        <time>2022-06-06T12:47:33Z</time>
      </trkpt>
      <trkpt lat="44.83221" lon="4.09371">
        <ele>1124</ele>
        <time>2022-06-06T12:47:41Z</time>
      </trkpt>
      <trkpt lat="44.83206" lon="4.09356">
        <ele>1127</ele>
        <time>2022-06-06T12:47:44Z</time>
      </trkpt>
      <trkpt lat="44.83198" lon="4.09341">
        <ele>1127</ele>
        <time>2022-06-06T12:47:47Z</time>
      </trkpt>
      <trkpt lat="44.83196" lon="4.09321">
        <ele>1123</ele>
        <time>2022-06-06T12:47:49Z</time>
      </trkpt>
      <trkpt lat="44.83197" lon="4.09288">
        <ele>1114</ele>
        <time>2022-06-06T12:47:53Z</time>
      </trkpt>
      <trkpt lat="44.83194" lon="4.09264">
        <ele>1108</ele>
        <time>2022-06-06T12:47:57Z</time>
      </trkpt>
      <trkpt lat="44.83187" lon="4.09244">
        <ele>1105</ele>
        <time>2022-06-06T12:47:59Z</time>
      </trkpt>
      <trkpt lat="44.83177" lon="4.09226">
        <ele>1104</ele>
        <time>2022-06-06T12:48:02Z</time>
      </trkpt>
      <trkpt lat="44.83152" lon="4.09192">
        <ele>1102</ele>
        <time>2022-06-06T12:48:08Z</time>
      </trkpt>
      <trkpt lat="44.83135" lon="4.09152">
        <ele>1097</ele>
        <time>2022-06-06T12:48:14Z</time>
      </trkpt>
      <trkpt lat="44.83122" lon="4.0911">
        <ele>1092</ele>
        <time>2022-06-06T12:48:20Z</time>
      </trkpt>
      <trkpt lat="44.83119" lon="4.09102">
        <ele>1091</ele>
        <time>2022-06-06T12:48:21Z</time>
      </trkpt>
      <trkpt lat="44.8311" lon="4.09089">
        <ele>1091</ele>
        <time>2022-06-06T12:48:23Z</time>
      </trkpt>
      <trkpt lat="44.83099" lon="4.0908">
        <ele>1092</ele>
        <time>2022-06-06T12:48:26Z</time>
      </trkpt>
      <trkpt lat="44.83087" lon="4.09077">
        <ele>1094</ele>
        <time>2022-06-06T12:48:28Z</time>
      </trkpt>
      <trkpt lat="44.83064" lon="4.09074">
        <ele>1101</ele>
        <time>2022-06-06T12:48:32Z</time>
      </trkpt>
      <trkpt lat="44.83054" lon="4.09069">
        <ele>1104</ele>
        <time>2022-06-06T12:48:34Z</time>
      </trkpt>
      <trkpt lat="44.83047" lon="4.09058">
        <ele>1104</ele>
        <time>2022-06-06T12:48:36Z</time>
      </trkpt>
      <trkpt lat="44.83043" lon="4.09045">
        <ele>1103</ele>
        <time>2022-06-06T12:48:38Z</time>
      </trkpt>
      <trkpt lat="44.83043" lon="4.09034">
        <ele>1101</ele>
        <time>2022-06-06T12:48:39Z</time>
      </trkpt>
      <trkpt lat="44.83051" lon="4.09006">
        <ele>1093</ele>
        <time>2022-06-06T12:48:43Z</time>
      </trkpt>
      <trkpt lat="44.8306" lon="4.08982">
        <ele>1086</ele>
        <time>2022-06-06T12:48:46Z</time>
      </trkpt>
      <trkpt lat="44.83065" lon="4.08963">
        <ele>1082</ele>
        <time>2022-06-06T12:48:49Z</time>
      </trkpt>
      <trkpt lat="44.83065" lon="4.08954">
        <ele>1082</ele>
        <time>2022-06-06T12:48:50Z</time>
      </trkpt>
      <trkpt lat="44.83063" lon="4.08937">
        <ele>1081</ele>
        <time>2022-06-06T12:48:52Z</time>
      </trkpt>
      <trkpt lat="44.83054" lon="4.08923">
        <ele>1082</ele>
        <time>2022-06-06T12:48:54Z</time>
      </trkpt>
      <trkpt lat="44.8304" lon="4.08914">
        <ele>1084</ele>
        <time>2022-06-06T12:48:57Z</time>
      </trkpt>
      <trkpt lat="44.82987" lon="4.08897">
        <ele>1095</ele>
        <time>2022-06-06T12:49:07Z</time>
      </trkpt>
      <trkpt lat="44.82982" lon="4.08893">
        <ele>1096</ele>
        <time>2022-06-06T12:49:08Z</time>
      </trkpt>
      <trkpt lat="44.82976" lon="4.08878">
        <ele>1095</ele>
        <time>2022-06-06T12:49:10Z</time>
      </trkpt>
      <trkpt lat="44.82973" lon="4.08867">
        <ele>1094</ele>
        <time>2022-06-06T12:49:12Z</time>
      </trkpt>
      <trkpt lat="44.82972" lon="4.08855">
        <ele>1092</ele>
        <time>2022-06-06T12:49:13Z</time>
      </trkpt>
      <trkpt lat="44.82989" lon="4.08787">
        <ele>1075</ele>
        <time>2022-06-06T12:49:22Z</time>
      </trkpt>
      <trkpt lat="44.8299" lon="4.08762">
        <ele>1072</ele>
        <time>2022-06-06T12:49:25Z</time>
      </trkpt>
      <trkpt lat="44.82986" lon="4.08734">
        <ele>1070</ele>
        <time>2022-06-06T12:49:29Z</time>
      </trkpt>
      <trkpt lat="44.82979" lon="4.08695">
        <ele>1066</ele>
        <time>2022-06-06T12:49:34Z</time>
      </trkpt>
      <trkpt lat="44.8297" lon="4.0864">
        <ele>1059</ele>
        <time>2022-06-06T12:49:41Z</time>
      </trkpt>
      <trkpt lat="44.82962" lon="4.08625">
        <ele>1058</ele>
        <time>2022-06-06T12:49:43Z</time>
      </trkpt>
      <trkpt lat="44.82951" lon="4.08615">
        <ele>1058</ele>
        <time>2022-06-06T12:49:46Z</time>
      </trkpt>
      <trkpt lat="44.82867" lon="4.08583">
        <ele>1057</ele>
        <time>2022-06-06T12:50:01Z</time>
      </trkpt>
      <trkpt lat="44.82824" lon="4.0855">
        <ele>1052</ele>
        <time>2022-06-06T12:50:10Z</time>
      </trkpt>
      <trkpt lat="44.82809" lon="4.08542">
        <ele>1050</ele>
        <time>2022-06-06T12:50:13Z</time>
      </trkpt>
      <trkpt lat="44.8278" lon="4.08535">
        <ele>1047</ele>
        <time>2022-06-06T12:50:18Z</time>
      </trkpt>
      <trkpt lat="44.82766" lon="4.08535">
        <ele>1047</ele>
        <time>2022-06-06T12:50:21Z</time>
      </trkpt>
      <trkpt lat="44.82752" lon="4.0854">
        <ele>1047</ele>
        <time>2022-06-06T12:50:23Z</time>
      </trkpt>
      <trkpt lat="44.82739" lon="4.0855">
        <ele>1048</ele>
        <time>2022-06-06T12:50:26Z</time>
      </trkpt>
      <trkpt lat="44.82723" lon="4.08574">
        <ele>1050</ele>
        <time>2022-06-06T12:50:30Z</time>
      </trkpt>
      <trkpt lat="44.82661" lon="4.08641">
        <ele>1053</ele>
        <time>2022-06-06T12:50:44Z</time>
      </trkpt>
      <trkpt lat="44.8265" lon="4.08647">
        <ele>1056</ele>
        <time>2022-06-06T12:50:46Z</time>
      </trkpt>
      <trkpt lat="44.82641" lon="4.08646">
        <ele>1056</ele>
        <time>2022-06-06T12:50:48Z</time>
      </trkpt>
      <trkpt lat="44.82626" lon="4.08639">
        <ele>1057</ele>
        <time>2022-06-06T12:50:50Z</time>
      </trkpt>
      <trkpt lat="44.82619" lon="4.08628">
        <ele>1057</ele>
        <time>2022-06-06T12:50:52Z</time>
      </trkpt>
      <trkpt lat="44.82617" lon="4.0861">
        <ele>1056</ele>
        <time>2022-06-06T12:50:55Z</time>
      </trkpt>
      <trkpt lat="44.82627" lon="4.08488">
        <ele>1047</ele>
        <time>2022-06-06T12:51:10Z</time>
      </trkpt>
      <trkpt lat="44.82632" lon="4.08465">
        <ele>1048</ele>
        <time>2022-06-06T12:51:13Z</time>
      </trkpt>
      <trkpt lat="44.8264" lon="4.08443">
        <ele>1047</ele>
        <time>2022-06-06T12:51:16Z</time>
      </trkpt>
      <trkpt lat="44.82688" lon="4.08378">
        <ele>1039</ele>
        <time>2022-06-06T12:51:28Z</time>
      </trkpt>
      <trkpt lat="44.82698" lon="4.08358">
        <ele>1038</ele>
        <time>2022-06-06T12:51:31Z</time>
      </trkpt>
      <trkpt lat="44.82706" lon="4.08335">
        <ele>1037</ele>
        <time>2022-06-06T12:51:34Z</time>
      </trkpt>
      <trkpt lat="44.82714" lon="4.08313">
        <ele>1036</ele>
        <time>2022-06-06T12:51:37Z</time>
      </trkpt>
      <trkpt lat="44.82725" lon="4.08267">
        <ele>1034</ele>
        <time>2022-06-06T12:51:44Z</time>
      </trkpt>
      <trkpt lat="44.82732" lon="4.08208">
        <ele>1030</ele>
        <time>2022-06-06T12:51:51Z</time>
      </trkpt>
      <trkpt lat="44.82731" lon="4.08183">
        <ele>1029</ele>
        <time>2022-06-06T12:51:54Z</time>
      </trkpt>
      <trkpt lat="44.82725" lon="4.08165">
        <ele>1029</ele>
        <time>2022-06-06T12:51:57Z</time>
      </trkpt>
      <trkpt lat="44.82714" lon="4.08153">
        <ele>1030</ele>
        <time>2022-06-06T12:51:59Z</time>
      </trkpt>
      <trkpt lat="44.82693" lon="4.0814">
        <ele>1033</ele>
        <time>2022-06-06T12:52:03Z</time>
      </trkpt>
      <trkpt lat="44.82677" lon="4.08112">
        <ele>1032</ele>
        <time>2022-06-06T12:52:08Z</time>
      </trkpt>
      <trkpt lat="44.82662" lon="4.08063">
        <ele>1029</ele>
        <time>2022-06-06T12:52:15Z</time>
      </trkpt>
      <trkpt lat="44.82644" lon="4.07952">
        <ele>1019</ele>
        <time>2022-06-06T12:52:29Z</time>
      </trkpt>
      <trkpt lat="44.82642" lon="4.07939">
        <ele>1018</ele>
        <time>2022-06-06T12:52:31Z</time>
      </trkpt>
      <trkpt lat="44.82644" lon="4.0791">
        <ele>1013</ele>
        <time>2022-06-06T12:52:34Z</time>
      </trkpt>
      <trkpt lat="44.82642" lon="4.07891">
        <ele>1010</ele>
        <time>2022-06-06T12:52:37Z</time>
      </trkpt>
      <trkpt lat="44.82636" lon="4.07873">
        <ele>1009</ele>
        <time>2022-06-06T12:52:39Z</time>
      </trkpt>
      <trkpt lat="44.82626" lon="4.07855">
        <ele>1009</ele>
        <time>2022-06-06T12:52:42Z</time>
      </trkpt>
      <trkpt lat="44.82621" lon="4.07836">
        <ele>1008</ele>
        <time>2022-06-06T12:52:45Z</time>
      </trkpt>
      <trkpt lat="44.8262" lon="4.07728">
        <ele>997</ele>
        <time>2022-06-06T12:52:58Z</time>
      </trkpt>
      <trkpt lat="44.82621" lon="4.07682">
        <ele>993</ele>
        <time>2022-06-06T12:53:04Z</time>
      </trkpt>
      <trkpt lat="44.82618" lon="4.07672">
        <ele>993</ele>
        <time>2022-06-06T12:53:06Z</time>
      </trkpt>
      <trkpt lat="44.82614" lon="4.07666">
        <ele>994</ele>
        <time>2022-06-06T12:53:07Z</time>
      </trkpt>
      <trkpt lat="44.82605" lon="4.07664">
        <ele>995</ele>
        <time>2022-06-06T12:53:08Z</time>
      </trkpt>
      <trkpt lat="44.82595" lon="4.07667">
        <ele>998</ele>
        <time>2022-06-06T12:53:10Z</time>
      </trkpt>
      <trkpt lat="44.82587" lon="4.07672">
        <ele>1000</ele>
        <time>2022-06-06T12:53:12Z</time>
      </trkpt>
      <trkpt lat="44.82574" lon="4.07683">
        <ele>1004</ele>
        <time>2022-06-06T12:53:14Z</time>
      </trkpt>
      <trkpt lat="44.8255" lon="4.07706">
        <ele>1010</ele>
        <time>2022-06-06T12:53:19Z</time>
      </trkpt>
      <trkpt lat="44.82543" lon="4.07709">
        <ele>1012</ele>
        <time>2022-06-06T12:53:21Z</time>
      </trkpt>
      <trkpt lat="44.82537" lon="4.07707">
        <ele>1012</ele>
        <time>2022-06-06T12:53:22Z</time>
      </trkpt>
      <trkpt lat="44.82531" lon="4.07701">
        <ele>1013</ele>
        <time>2022-06-06T12:53:23Z</time>
      </trkpt>
      <trkpt lat="44.82529" lon="4.07693">
        <ele>1012</ele>
        <time>2022-06-06T12:53:24Z</time>
      </trkpt>
      <trkpt lat="44.82528" lon="4.07676">
        <ele>1010</ele>
        <time>2022-06-06T12:53:26Z</time>
      </trkpt>
      <trkpt lat="44.82548" lon="4.07586">
        <ele>996</ele>
        <time>2022-06-06T12:53:38Z</time>
      </trkpt>
      <trkpt lat="44.82555" lon="4.07539">
        <ele>990</ele>
        <time>2022-06-06T12:53:44Z</time>
      </trkpt>
      <trkpt lat="44.82556" lon="4.07497">
        <ele>985</ele>
        <time>2022-06-06T12:53:50Z</time>
      </trkpt>
      <trkpt lat="44.8255" lon="4.07483">
        <ele>986</ele>
        <time>2022-06-06T12:53:52Z</time>
      </trkpt>
      <trkpt lat="44.82528" lon="4.07463">
        <ele>989</ele>
        <time>2022-06-06T12:53:56Z</time>
      </trkpt>
      <trkpt lat="44.82518" lon="4.07447">
        <ele>990</ele>
        <time>2022-06-06T12:53:59Z</time>
      </trkpt>
      <trkpt lat="44.82514" lon="4.07433">
        <ele>991</ele>
        <time>2022-06-06T12:54:01Z</time>
      </trkpt>
      <trkpt lat="44.82514" lon="4.07422">
        <ele>990</ele>
        <time>2022-06-06T12:54:02Z</time>
      </trkpt>
      <trkpt lat="44.82524" lon="4.07324">
        <ele>987</ele>
        <time>2022-06-06T12:54:15Z</time>
      </trkpt>
      <trkpt lat="44.82542" lon="4.07265">
        <ele>980</ele>
        <time>2022-06-06T12:54:23Z</time>
      </trkpt>
      <trkpt lat="44.82545" lon="4.07231">
        <ele>978</ele>
        <time>2022-06-06T12:54:27Z</time>
      </trkpt>
      <trkpt lat="44.82544" lon="4.07197">
        <ele>978</ele>
        <time>2022-06-06T12:54:32Z</time>
      </trkpt>
      <trkpt lat="44.82537" lon="4.07156">
        <ele>980</ele>
        <time>2022-06-06T12:54:37Z</time>
      </trkpt>
      <trkpt lat="44.82537" lon="4.07134">
        <ele>979</ele>
        <time>2022-06-06T12:54:40Z</time>
      </trkpt>
      <trkpt lat="44.82551" lon="4.0705">
        <ele>971</ele>
        <time>2022-06-06T12:54:51Z</time>
      </trkpt>
      <trkpt lat="44.8255" lon="4.07013">
        <ele>970</ele>
        <time>2022-06-06T12:54:55Z</time>
      </trkpt>
      <trkpt lat="44.82542" lon="4.06979">
        <ele>970</ele>
        <time>2022-06-06T12:55:00Z</time>
      </trkpt>
      <trkpt lat="44.82514" lon="4.0693">
        <ele>974</ele>
        <time>2022-06-06T12:55:08Z</time>
      </trkpt>
      <trkpt lat="44.82512" lon="4.06916">
        <ele>974</ele>
        <time>2022-06-06T12:55:09Z</time>
      </trkpt>
      <trkpt lat="44.82516" lon="4.06866">
        <ele>969</ele>
        <time>2022-06-06T12:55:16Z</time>
      </trkpt>
      <trkpt lat="44.82512" lon="4.06823">
        <ele>968</ele>
        <time>2022-06-06T12:55:21Z</time>
      </trkpt>
      <trkpt lat="44.82508" lon="4.06718">
        <ele>958</ele>
        <time>2022-06-06T12:55:35Z</time>
      </trkpt>
      <trkpt lat="44.8251" lon="4.06692">
        <ele>954</ele>
        <time>2022-06-06T12:55:38Z</time>
      </trkpt>
      <trkpt lat="44.82514" lon="4.06675">
        <ele>951</ele>
        <time>2022-06-06T12:55:40Z</time>
      </trkpt>
      <trkpt lat="44.82515" lon="4.06661">
        <ele>949</ele>
        <time>2022-06-06T12:55:42Z</time>
      </trkpt>
      <trkpt lat="44.82513" lon="4.06647">
        <ele>947</ele>
        <time>2022-06-06T12:55:44Z</time>
      </trkpt>
      <trkpt lat="44.82509" lon="4.06636">
        <ele>946</ele>
        <time>2022-06-06T12:55:45Z</time>
      </trkpt>
      <trkpt lat="44.82502" lon="4.06624">
        <ele>946</ele>
        <time>2022-06-06T12:55:47Z</time>
      </trkpt>
      <trkpt lat="44.82495" lon="4.06616">
        <ele>946</ele>
        <time>2022-06-06T12:55:49Z</time>
      </trkpt>
      <trkpt lat="44.82486" lon="4.0661">
        <ele>947</ele>
        <time>2022-06-06T12:55:51Z</time>
      </trkpt>
      <trkpt lat="44.82472" lon="4.06605">
        <ele>949</ele>
        <time>2022-06-06T12:55:53Z</time>
      </trkpt>
      <trkpt lat="44.82458" lon="4.06594">
        <ele>950</ele>
        <time>2022-06-06T12:55:56Z</time>
      </trkpt>
      <trkpt lat="44.82436" lon="4.06534">
        <ele>948</ele>
        <time>2022-06-06T12:56:05Z</time>
      </trkpt>
      <trkpt lat="44.82433" lon="4.06522">
        <ele>947</ele>
        <time>2022-06-06T12:56:06Z</time>
      </trkpt>
      <trkpt lat="44.82433" lon="4.06512">
        <ele>946</ele>
        <time>2022-06-06T12:56:07Z</time>
      </trkpt>
      <trkpt lat="44.82443" lon="4.06464">
        <ele>943</ele>
        <time>2022-06-06T12:56:14Z</time>
      </trkpt>
      <trkpt lat="44.82449" lon="4.06425">
        <ele>941</ele>
        <time>2022-06-06T12:56:19Z</time>
      </trkpt>
      <trkpt lat="44.82453" lon="4.06425">
        <ele>940</ele>
        <time>2022-06-06T12:56:19Z</time>
      </trkpt>
      <trkpt lat="44.82457" lon="4.06421">
        <ele>939</ele>
        <time>2022-06-06T12:56:20Z</time>
      </trkpt>
      <trkpt lat="44.82458" lon="4.06414">
        <ele>939</ele>
        <time>2022-06-06T12:56:21Z</time>
      </trkpt>
      <trkpt lat="44.82457" lon="4.06408">
        <ele>939</ele>
        <time>2022-06-06T12:56:22Z</time>
      </trkpt>
      <trkpt lat="44.82454" lon="4.06405">
        <ele>940</ele>
        <time>2022-06-06T12:56:23Z</time>
      </trkpt>
      <trkpt lat="44.82448" lon="4.06404">
        <ele>942</ele>
        <time>2022-06-06T12:56:24Z</time>
      </trkpt>
      <trkpt lat="44.8244" lon="4.06366">
        <ele>943</ele>
        <time>2022-06-06T12:56:29Z</time>
      </trkpt>
      <trkpt lat="44.82419" lon="4.06293">
        <ele>945</ele>
        <time>2022-06-06T12:56:39Z</time>
      </trkpt>
      <trkpt lat="44.82414" lon="4.06282">
        <ele>945</ele>
        <time>2022-06-06T12:56:40Z</time>
      </trkpt>
      <trkpt lat="44.82398" lon="4.06267">
        <ele>950</ele>
        <time>2022-06-06T12:56:44Z</time>
      </trkpt>
      <trkpt lat="44.8239" lon="4.06254">
        <ele>952</ele>
        <time>2022-06-06T12:56:46Z</time>
      </trkpt>
      <trkpt lat="44.82384" lon="4.06241">
        <ele>954</ele>
        <time>2022-06-06T12:56:48Z</time>
      </trkpt>
      <trkpt lat="44.82379" lon="4.06221">
        <ele>955</ele>
        <time>2022-06-06T12:56:51Z</time>
      </trkpt>
      <trkpt lat="44.82376" lon="4.06198">
        <ele>954</ele>
        <time>2022-06-06T12:56:54Z</time>
      </trkpt>
      <trkpt lat="44.82375" lon="4.06113">
        <ele>953</ele>
        <time>2022-06-06T12:57:04Z</time>
      </trkpt>
      <trkpt lat="44.82372" lon="4.06065">
        <ele>955</ele>
        <time>2022-06-06T12:57:10Z</time>
      </trkpt>
      <trkpt lat="44.82367" lon="4.06047">
        <ele>957</ele>
        <time>2022-06-06T12:57:13Z</time>
      </trkpt>
      <trkpt lat="44.8236" lon="4.06036">
        <ele>959</ele>
        <time>2022-06-06T12:57:15Z</time>
      </trkpt>
      <trkpt lat="44.8235" lon="4.06029">
        <ele>961</ele>
        <time>2022-06-06T12:57:17Z</time>
      </trkpt>
      <trkpt lat="44.82339" lon="4.06027">
        <ele>963</ele>
        <time>2022-06-06T12:57:19Z</time>
      </trkpt>
      <trkpt lat="44.82328" lon="4.06028">
        <ele>965</ele>
        <time>2022-06-06T12:57:21Z</time>
      </trkpt>
      <trkpt lat="44.82318" lon="4.06034">
        <ele>967</ele>
        <time>2022-06-06T12:57:23Z</time>
      </trkpt>
      <trkpt lat="44.82308" lon="4.06043">
        <ele>968</ele>
        <time>2022-06-06T12:57:25Z</time>
      </trkpt>
      <trkpt lat="44.82301" lon="4.06054">
        <ele>969</ele>
        <time>2022-06-06T12:57:26Z</time>
      </trkpt>
      <trkpt lat="44.82296" lon="4.06069">
        <ele>971</ele>
        <time>2022-06-06T12:57:29Z</time>
      </trkpt>
      <trkpt lat="44.82294" lon="4.06105">
        <ele>972</ele>
        <time>2022-06-06T12:57:33Z</time>
      </trkpt>
      <trkpt lat="44.82295" lon="4.06148">
        <ele>973</ele>
        <time>2022-06-06T12:57:39Z</time>
      </trkpt>
      <trkpt lat="44.82293" lon="4.06162">
        <ele>973</ele>
        <time>2022-06-06T12:57:40Z</time>
      </trkpt>
      <trkpt lat="44.82288" lon="4.06173">
        <ele>974</ele>
        <time>2022-06-06T12:57:42Z</time>
      </trkpt>
      <trkpt lat="44.82279" lon="4.06182">
        <ele>976</ele>
        <time>2022-06-06T12:57:44Z</time>
      </trkpt>
      <trkpt lat="44.82264" lon="4.06192">
        <ele>979</ele>
        <time>2022-06-06T12:57:47Z</time>
      </trkpt>
      <trkpt lat="44.82219" lon="4.0621">
        <ele>985</ele>
        <time>2022-06-06T12:57:55Z</time>
      </trkpt>
      <trkpt lat="44.8221" lon="4.06212">
        <ele>987</ele>
        <time>2022-06-06T12:57:57Z</time>
      </trkpt>
    </trkseg>
  </trk>
</gpx>